Detalle de ayer:

16/3/21
Time         Wind Dir  Wind Gust   Humidity       Temp   Tot Rain Wind Chill Heat Index  Dew Point   Barom SL Temp Out H Temp Out L  DailyRain   HourRain   24HrRain   RainRate   Wind Run   Deg Heat   Deg Cool  MonthRain
                          km/hr          %         C         mm         C         C         C         mb         C         C         mm         mm         mm      mm/hr         km         C         C         mm
0:00               28        0.0         52       15.4      176.0       15.4       15.9        5.6     1020.1       15.4       15.4        0.0        0.0        0.0       0.00       88.9       2.44       0.27       20.2
0:02               28        0.0         53       15.4      176.0       15.4       16.0        5.9     1020.1       15.4       15.4        0.0        0.0        0.0       0.00        0.1       0.03       0.00       20.2
0:04               28        0.0         53       15.4      176.0       15.4       16.0        5.9     1020.2       15.4       15.4        0.0        0.0        0.0       0.00        0.2       0.03       0.00       20.2
0:05               28        0.0         53       15.4      176.0       15.4       16.0        5.9     1020.1       15.4       15.4        0.0        0.0        0.0       0.00        0.2       0.03       0.00       20.2
0:08               28        0.0         53       15.4      176.0       15.4       16.0        5.9     1020.0       15.4       15.4        0.0        0.0        0.0       0.00        0.3       0.03       0.00       20.2
0:10               28        0.0         53       15.3      176.0       15.3       15.9        5.8     1020.1       15.4       15.3        0.0        0.0        0.0       0.00        0.4       0.03       0.00       20.2
0:11               28        0.0         53       15.3      176.0       15.3       15.9        5.8     1020.0       15.4       15.3        0.0        0.0        0.0       0.00        0.5       0.03       0.00       20.2
0:14               28        0.0         53       15.3      176.0       15.3       15.9        5.8     1020.0       15.4       15.3        0.0        0.0        0.0       0.00        0.5       0.03       0.00       20.2
0:16               28        0.0         53       15.3      176.0       15.3       15.9        5.8     1019.9       15.4       15.3        0.0        0.0        0.0       0.00        0.6       0.06       0.00       20.2
0:18               28        0.0         53       15.3      176.0       15.3       15.9        5.8     1019.9       15.4       15.3        0.0        0.0        0.0       0.00        0.7       0.06       0.00       20.2
0:19               28        0.0         53       15.2      176.0       15.2       15.8        5.7     1019.9       15.4       15.2        0.0        0.0        0.0       0.00        0.8       0.06       0.00       20.2
0:22               28        0.0         53       15.2      176.0       15.2       15.8        5.7     1019.9       15.4       15.2        0.0        0.0        0.0       0.00        0.9       0.06       0.00       20.2
0:24               28        0.0         53       15.2      176.0       15.2       15.8        5.7     1019.9       15.4       15.2        0.0        0.0        0.0       0.00        1.0       0.06       0.00       20.2
0:25               28        0.0         53       15.2      176.0       15.2       15.8        5.7     1020.0       15.4       15.2        0.0        0.0        0.0       0.00        1.1       0.06       0.00       20.2
0:28               28        0.0         54       15.2      176.0       15.2       15.8        5.9     1020.0       15.4       15.2        0.0        0.0        0.0       0.00        1.1       0.06       0.00       20.2
0:30               28        0.0         54       15.1      176.0       15.1       15.8        5.9     1020.0       15.4       15.1        0.0        0.0        0.0       0.00        1.2       0.06       0.00       20.2
0:32               28        0.0         53       15.1      176.0       15.1       15.7        5.6     1019.9       15.4       15.1        0.0        0.0        0.0       0.00        1.3       0.09       0.00       20.2
0:34               28        0.0         54       15.1      176.0       15.1       15.8        5.9     1019.9       15.4       15.1        0.0        0.0        0.0       0.00        1.4       0.09       0.00       20.2
0:36               28        0.0         54       15.1      176.0       15.1       15.8        5.9     1019.9       15.4       15.1        0.0        0.0        0.0       0.00        1.5       0.09       0.00       20.2
0:37               28        0.0         54       15.1      176.0       15.1       15.8        5.9     1019.9       15.4       15.1        0.0        0.0        0.0       0.00        1.6       0.09       0.00       20.2
0:40               28        0.0         54       15.1      176.0       15.1       15.8        5.9     1019.8       15.4       15.1        0.0        0.0        0.0       0.00        1.6       0.09       0.00       20.2
0:41               28        0.0         54       15.1      176.0       15.1       15.8        5.9     1019.8       15.4       15.1        0.0        0.0        0.0       0.00        1.7       0.09       0.00       20.2
0:44               28        0.0         54       15.1      176.0       15.1       15.8        5.9     1019.8       15.4       15.1        0.0        0.0        0.0       0.00        1.7       0.09       0.00       20.2
0:46               28        0.0         54       15.1      176.0       15.1       15.8        5.9     1019.8       15.4       15.1        0.0        0.0        0.0       0.00        1.8       0.12       0.00       20.2
0:48               28        0.0         54       15.1      176.0       15.1       15.7        5.8     1019.8       15.4       15.1        0.0        0.0        0.0       0.00        1.9       0.12       0.00       20.2
0:50               28        0.0         54       15.1      176.0       15.1       15.7        5.8     1019.9       15.4       15.1        0.0        0.0        0.0       0.00        1.9       0.12       0.00       20.2
0:52               28        0.0         54       15.0      176.0       15.0       15.7        5.8     1019.8       15.4       15.0        0.0        0.0        0.0       0.00        2.0       0.12       0.00       20.2
0:54               28        0.0         55       15.0      176.0       15.0       15.7        6.0     1019.8       15.4       15.0        0.0        0.0        0.0       0.00        2.1       0.12       0.00       20.2
0:56               28        0.0         55       14.9      176.0       14.9       15.7        6.0     1019.7       15.4       14.9        0.0        0.0        0.0       0.00        2.2       0.12       0.00       20.2
0:58               28        0.0         55       14.9      176.0       14.9       15.7        6.0     1019.8       15.4       14.9        0.0        0.0        0.0       0.00        2.3       0.12       0.00       20.2
1:00               28        0.0         55       14.9      176.0       14.9       15.6        5.9     1019.7       15.4       14.9        0.0        0.0        0.0       0.00        2.4       0.12       0.00       20.2
1:02               28        0.0         55       14.8      176.0       14.8       15.5        5.9     1020.0       15.4       14.8        0.0        0.0        0.0       0.00        2.5       0.15       0.00       20.2
1:03               28        0.0         55       14.8      176.0       14.8       15.5        5.9     1019.9       15.4       14.8        0.0        0.0        0.0       0.00        2.5       0.15       0.00       20.2
1:06               28        0.0         55       14.8      176.0       14.8       15.5        5.8     1019.9       15.4       14.8        0.0        0.0        0.0       0.00        2.6       0.15       0.00       20.2
1:08               28        0.0         56       14.7      176.0       14.7       15.5        6.0     1020.0       15.4       14.7        0.0        0.0        0.0       0.00        2.7       0.15       0.00       20.2
1:09               28        0.0         56       14.7      176.0       14.7       15.5        6.0     1020.0       15.4       14.7        0.0        0.0        0.0       0.00        2.7       0.15       0.00       20.2
1:12               28        0.0         56       14.7      176.0       14.7       15.4        6.0     1019.9       15.4       14.7        0.0        0.0        0.0       0.00        2.8       0.15       0.00       20.2
1:13               28        0.0         56       14.6      176.0       14.6       15.4        5.9     1019.9       15.4       14.6        0.0        0.0        0.0       0.00        2.9       0.15       0.00       20.2
1:16               28        0.0         56       14.6      176.0       14.6       15.4        5.9     1019.9       15.4       14.6        0.0        0.0        0.0       0.00        3.0       0.18       0.00       20.2
1:18               28        0.0         57       14.6      176.0       14.6       15.4        6.1     1019.9       15.4       14.6        0.0        0.0        0.0       0.00        3.1       0.18       0.00       20.2
1:20               28        0.0         57       14.5      176.0       14.5       15.3        6.1     1019.9       15.4       14.5        0.0        0.0        0.0       0.00        3.1       0.18       0.00       20.2
1:21               28        0.0         57       14.5      176.0       14.5       15.3        6.1     1019.9       15.4       14.5        0.0        0.0        0.0       0.00        3.2       0.18       0.00       20.2
1:24               28        0.0         57       14.4      176.0       14.4       15.3        6.0     1019.9       15.4       14.4        0.0        0.0        0.0       0.00        3.3       0.18       0.00       20.2
1:26               28        0.0         57       14.4      176.0       14.4       15.2        6.0     1019.8       15.4       14.4        0.0        0.0        0.0       0.00        3.4       0.18       0.00       20.2
1:27               28        0.0         57       14.4      176.0       14.4       15.2        6.0     1019.8       15.4       14.4        0.0        0.0        0.0       0.00        3.5       0.18       0.00       20.2
1:30               28        0.0         57       14.3      176.0       14.3       15.2        5.9     1019.9       15.4       14.3        0.0        0.0        0.0       0.00        3.6       0.18       0.00       20.2
1:32               28        0.0         57       14.3      176.0       14.3       15.2        5.9     1019.8       15.4       14.3        0.0        0.0        0.0       0.00        3.6       0.22       0.00       20.2
1:33               27        0.0         57       14.3      176.0       14.3       15.1        5.9     1019.8       15.4       14.3        0.0        0.0        0.0       0.00        3.7       0.22       0.00       20.2
1:36               27        0.0         58       14.3      176.0       14.3       15.2        6.1     1019.8       15.4       14.3        0.0        0.0        0.0       0.00        3.8       0.22       0.00       20.2
1:38               27        0.0         58       14.2      176.0       14.2       15.1        6.1     1019.8       15.4       14.2        0.0        0.0        0.0       0.00        3.9       0.22       0.00       20.2
1:40               27        0.0         58       14.2      176.0       14.2       15.1        6.0     1019.8       15.4       14.2        0.0        0.0        0.0       0.00        4.0       0.22       0.00       20.2
1:42               27        0.0         58       14.2      176.0       14.2       15.1        6.0     1019.8       15.4       14.2        0.0        0.0        0.0       0.00        4.1       0.22       0.00       20.2
1:44               26        0.0         58       14.1      176.0       14.1       15.0        6.0     1019.8       15.4       14.1        0.0        0.0        0.0       0.00        4.2       0.22       0.00       20.2
1:46               26        0.0         58       14.1      176.0       14.1       15.0        6.0     1019.8       15.4       14.1        0.0        0.0        0.0       0.00        4.3       0.26       0.00       20.2
1:48               26        0.0         58       14.1      176.0       14.1       15.0        6.0     1019.8       15.4       14.1        0.0        0.0        0.0       0.00        4.4       0.26       0.00       20.2
1:50               24        0.0         58       14.1      176.0       14.1       14.9        5.9     1019.8       15.4       14.1        0.0        0.0        0.0       0.00        4.5       0.26       0.00       20.2
1:52               24        0.0         58       14.1      176.0       14.1       14.9        5.9     1019.9       15.4       14.1        0.0        0.0        0.0       0.00        4.6       0.26       0.00       20.2
1:54               24        0.0         58       14.0      176.0       14.0       14.9        5.9     1019.8       15.4       14.0        0.0        0.0        0.0       0.00        4.7       0.26       0.00       20.2
1:56               21        0.0         58       14.0      176.0       14.0       14.9        5.9     1019.8       15.4       14.0        0.0        0.0        0.0       0.00        4.8       0.26       0.00       20.2
1:58               20        0.0         58       14.0      176.0       14.0       14.9        5.9     1019.8       15.4       14.0        0.0        0.0        0.0       0.00        4.9       0.26       0.00       20.2
2:00               20        0.0         58       13.9      176.0       13.9       14.8        5.8     1019.7       15.4       13.9        0.0        0.0        0.0       0.00        5.0       0.26       0.00       20.2
2:02               20        0.0         58       13.9      176.0       13.9       14.8        5.8     1019.7       15.4       13.9        0.0        0.0        0.0       0.00        5.1       0.30       0.00       20.2
2:04               20        0.0         58       13.9      176.0       13.9       14.8        5.8     1019.7       15.4       13.9        0.0        0.0        0.0       0.00        5.1       0.30       0.00       20.2
2:05               19        0.0         58       13.9      176.0       13.9       14.8        5.8     1019.7       15.4       13.9        0.0        0.0        0.0       0.00        5.2       0.30       0.00       20.2
2:08               20        0.0         58       13.9      176.0       13.9       14.8        5.8     1019.7       15.4       13.9        0.0        0.0        0.0       0.00        5.3       0.30       0.00       20.2
2:10               20        0.0         58       13.9      176.0       13.9       14.8        5.8     1019.7       15.4       13.9        0.0        0.0        0.0       0.00        5.4       0.30       0.00       20.2
2:11               20        0.0         58       13.9      176.0       13.9       14.8        5.8     1019.8       15.4       13.9        0.0        0.0        0.0       0.00        5.5       0.30       0.00       20.2
2:14               21        0.0         58       13.9      176.0       13.9       14.8        5.8     1019.8       15.4       13.9        0.0        0.0        0.0       0.00        5.6       0.30       0.00       20.2
2:16               22        0.0         58       13.9      176.0       13.9       14.8        5.8     1019.8       15.4       13.9        0.0        0.0        0.0       0.00        5.7       0.35       0.00       20.2
2:18               26        0.0         58       13.9      176.0       13.9       14.8        5.8     1019.8       15.4       13.9        0.0        0.0        0.0       0.00        5.8       0.35       0.00       20.2
2:20               26        0.0         58       13.9      176.0       13.9       14.8        5.8     1019.8       15.4       13.9        0.0        0.0        0.0       0.00        5.9       0.35       0.00       20.2
2:22               26        0.0         58       13.9      176.0       13.9       14.8        5.8     1019.7       15.4       13.8        0.0        0.0        0.0       0.00        6.0       0.35       0.00       20.2
2:24               28        0.0         59       13.8      176.0       13.8       14.8        6.0     1019.7       15.4       13.8        0.0        0.0        0.0       0.00        6.2       0.35       0.00       20.2
2:26               28        0.0         59       13.8      176.0       13.8       14.8        6.0     1019.7       15.4       13.8        0.0        0.0        0.0       0.00        6.3       0.35       0.00       20.2
2:28               28        0.0         59       13.8      176.0       13.8       14.8        6.0     1019.7       15.4       13.8        0.0        0.0        0.0       0.00        6.4       0.35       0.00       20.2
2:30               26        0.0         59       13.8      176.0       13.8       14.8        6.0     1019.6       15.4       13.8        0.0        0.0        0.0       0.00        6.5       0.35       0.00       20.2
2:32               26        0.0         59       13.8      176.0       13.8       14.7        5.9     1019.6       15.4       13.8        0.0        0.0        0.0       0.00        6.6       0.39       0.00       20.2
2:34               26        0.0         59       13.7      176.0       13.7       14.7        5.9     1019.5       15.4       13.7        0.0        0.0        0.0       0.00        6.7       0.39       0.00       20.2
2:36               26        0.0         60       13.7      176.0       13.7       14.7        6.1     1019.5       15.4       13.7        0.0        0.0        0.0       0.00        6.8       0.39       0.00       20.2
2:38               22        0.0         60       13.6      176.0       13.6       14.6        6.0     1019.5       15.4       13.6        0.0        0.0        0.0       0.00        6.9       0.39       0.00       20.2
2:40               22        0.0         60       13.6      176.0       13.6       14.6        5.9     1019.5       15.4       13.6        0.0        0.0        0.0       0.00        7.0       0.39       0.00       20.2
2:42               19        0.0         60       13.6      176.0       13.6       14.6        5.9     1019.5       15.4       13.6        0.0        0.0        0.0       0.00        7.1       0.39       0.00       20.2
2:44               20        0.0         60       13.5      176.0       13.5       14.5        5.9     1019.5       15.4       13.5        0.0        0.0        0.0       0.00        7.2       0.39       0.00       20.2
2:46               19        0.0         60       13.4      176.0       13.4       14.4        5.8     1019.5       15.4       13.4        0.0        0.0        0.0       0.00        7.3       0.44       0.00       20.2
2:48               19        0.0         61       13.3      176.0       13.3       14.4        6.0     1019.4       15.4       13.3        0.0        0.0        0.0       0.00        7.4       0.44       0.00       20.2
2:49               19        0.0         61       13.3      176.0       13.3       14.3        5.9     1019.4       15.4       13.3        0.0        0.0        0.0       0.00        7.5       0.44       0.00       20.2
2:52               18        0.0         61       13.2      176.0       13.2       14.3        5.9     1019.4       15.4       13.2        0.0        0.0        0.0       0.00        7.6       0.44       0.00       20.2
2:54               19        0.0         61       13.2      176.0       13.2       14.2        5.8     1019.4       15.4       13.2        0.0        0.0        0.0       0.00        7.7       0.44       0.00       20.2
2:55               15        0.0         62       13.1      176.0       13.1       14.2        5.9     1019.3       15.4       13.1        0.0        0.0        0.0       0.00        7.8       0.44       0.00       20.2
2:58               18        0.0         62       13.0      176.0       13.0       14.1        5.9     1019.4       15.4       13.0        0.0        0.0        0.0       0.00        7.9       0.44       0.00       20.2
3:00               18        0.0         62       12.9      176.0       12.9       14.1        5.8     1019.3       15.4       12.9        0.0        0.0        0.0       0.00        8.0       0.44       0.00       20.2
3:01               19        0.0         63       12.8      176.0       12.8       14.0        6.0     1019.4       15.4       12.8        0.0        0.0        0.0       0.00        8.1       0.49       0.00       20.2
3:04               19        0.0         63       12.8      176.0       12.8       14.0        5.9     1019.3       15.4       12.8        0.0        0.0        0.0       0.00        8.2       0.49       0.00       20.2
3:06               19        0.0         63       12.8      176.0       12.8       14.0        5.9     1019.4       15.4       12.8        0.0        0.0        0.0       0.00        8.3       0.49       0.00       20.2
3:08               19        0.0         63       12.7      176.0       12.7       13.9        5.9     1019.2       15.4       12.7        0.0        0.0        0.0       0.00        8.4       0.49       0.00       20.2
3:10               19        0.0         64       12.7      176.0       12.7       13.9        6.0     1019.2       15.4       12.7        0.0        0.0        0.0       0.00        8.5       0.49       0.00       20.2
3:12               19        0.0         64       12.6      176.0       12.6       13.9        6.0     1019.2       15.4       12.6        0.0        0.0        0.0       0.00        8.6       0.49       0.00       20.2
3:13               19        0.0         64       12.6      176.0       12.6       13.8        5.9     1019.3       15.4       12.6        0.0        0.0        0.0       0.00        8.6       0.49       0.00       20.2
3:16               19        0.0         64       12.5      176.0       12.5       13.8        5.9     1019.2       15.4       12.5        0.0        0.0        0.0       0.00        8.7       0.55       0.00       20.2
3:18               20        0.0         64       12.5      176.0       12.5       13.8        5.9     1019.2       15.4       12.5        0.0        0.0        0.0       0.00        8.8       0.55       0.00       20.2
3:19               20        0.0         64       12.4      176.0       12.4       13.7        5.8     1019.2       15.4       12.4        0.0        0.0        0.0       0.00        8.9       0.55       0.00       20.2
3:22               19        0.0         64       12.4      176.0       12.4       13.6        5.8     1019.2       15.4       12.4        0.0        0.0        0.0       0.00        9.0       0.55       0.00       20.2
3:24               19        0.0         64       12.3      176.0       12.3       13.6        5.7     1019.3       15.4       12.3        0.0        0.0        0.0       0.00        9.1       0.55       0.00       20.2
3:26               19        0.0         64       12.3      176.0       12.3       13.5        5.7     1019.3       15.4       12.3        0.0        0.0        0.0       0.00        9.2       0.55       0.00       20.2
3:28               19        0.0         64       12.3      176.0       12.3       13.5        5.7     1019.2       15.4       12.3        0.0        0.0        0.0       0.00        9.3       0.55       0.00       20.2
3:30               19        0.0         64       12.2      176.0       12.2       13.5        5.6     1019.2       15.4       12.2        0.0        0.0        0.0       0.00        9.4       0.55       0.00       20.2
3:32               19        0.0         64       12.2      176.0       12.2       13.4        5.6     1019.2       15.4       12.2        0.0        0.0        0.0       0.00        9.5       0.61       0.00       20.2
3:34               19        0.0         64       12.2      176.0       12.2       13.4        5.6     1019.3       15.4       12.2        0.0        0.0        0.0       0.00        9.6       0.61       0.00       20.2
3:36               19        0.0         64       12.1      176.0       12.1       13.4        5.5     1019.3       15.4       12.1        0.0        0.0        0.0       0.00        9.7       0.61       0.00       20.2
3:38               17        0.0         65       12.1      176.0       12.1       13.4        5.7     1019.2       15.4       12.1        0.0        0.0        0.0       0.00        9.8       0.61       0.00       20.2
3:39               18        0.0         65       12.1      176.0       12.1       13.4        5.7     1019.2       15.4       12.1        0.0        0.0        0.0       0.00        9.9       0.61       0.00       20.2
3:42               19        0.0         65       12.1      176.0       12.1       13.4        5.7     1019.2       15.4       12.1        0.0        0.0        0.0       0.00        9.9       0.61       0.00       20.2
3:43               18        0.0         66       12.0      176.0       12.0       13.4        5.9     1019.2       15.4       12.0        0.0        0.0        0.0       0.00       10.0       0.61       0.00       20.2
3:45               17        0.0         66       12.0      176.0       12.0       13.4        5.9     1019.3       15.4       12.0        0.0        0.0        0.0       0.00       10.1       0.67       0.00       20.2
3:48               18        0.0         66       11.9      176.0       11.9       13.3        5.8     1019.2       15.4       11.9        0.0        0.0        0.0       0.00       10.2       0.67       0.00       20.2
3:50               18        0.0         66       11.9      176.0       11.9       13.3        5.8     1019.2       15.4       11.9        0.0        0.0        0.0       0.00       10.3       0.67       0.00       20.2
3:52               18        0.0         67       11.9      176.0       11.9       13.3        6.0     1019.2       15.4       11.9        0.0        0.0        0.0       0.00       10.4       0.67       0.00       20.2
3:54               17        0.0         67       11.8      176.0       11.8       13.3        5.9     1019.2       15.4       11.8        0.0        0.0        0.0       0.00       10.5       0.67       0.00       20.2
3:56               17        0.0         67       11.8      176.0       11.8       13.2        5.9     1019.3       15.4       11.8        0.0        0.0        0.0       0.00       10.6       0.67       0.00       20.2
3:58               17        0.0         67       11.8      176.0       11.8       13.2        5.9     1019.2       15.4       11.8        0.0        0.0        0.0       0.00       10.7       0.67       0.00       20.2
4:00               17        0.0         67       11.7      176.0       11.7       13.2        5.8     1019.3       15.4       11.7        0.0        0.0        0.0       0.00       10.7       0.67       0.00       20.2
4:02               18        0.0         68       11.7      176.0       11.7       13.2        6.0     1019.4       15.4       11.7        0.0        0.0        0.0       0.00       10.8       0.74       0.00       20.2
4:03               18        0.0         68       11.7      176.0       11.7       13.2        6.0     1019.4       15.4       11.7        0.0        0.0        0.0       0.00       10.9       0.74       0.00       20.2
4:06               18        0.0         68       11.6      176.0       11.6       13.1        5.9     1019.2       15.4       11.6        0.0        0.0        0.0       0.00       11.0       0.74       0.00       20.2
4:08               18        0.0         68       11.6      176.0       11.6       13.1        5.9     1019.2       15.4       11.6        0.0        0.0        0.0       0.00       11.0       0.74       0.00       20.2
4:10               17        0.0         68       11.6      176.0       11.6       13.1        5.9     1019.2       15.4       11.6        0.0        0.0        0.0       0.00       11.1       0.74       0.00       20.2
4:12               17        0.0         68       11.5      176.0       11.5       13.0        5.8     1019.2       15.4       11.5        0.0        0.0        0.0       0.00       11.2       0.74       0.00       20.2
4:14               17        0.0         68       11.4      176.0       11.4       13.0        5.8     1019.3       15.4       11.4        0.0        0.0        0.0       0.00       11.2       0.74       0.00       20.2
4:16               17        0.0         68       11.4      176.0       11.4       12.9        5.7     1019.4       15.4       11.4        0.0        0.0        0.0       0.00       11.3       0.80       0.00       20.2
4:18               17        0.0         68       11.4      176.0       11.4       12.9        5.7     1019.3       15.4       11.4        0.0        0.0        0.0       0.00       11.4       0.80       0.00       20.2
4:20               17        0.0         69       11.3      176.0       11.3       12.9        5.9     1019.2       15.4       11.3        0.0        0.0        0.0       0.00       11.4       0.80       0.00       20.2
4:22               17        0.0         69       11.3      176.0       11.3       12.9        5.9     1019.4       15.4       11.3        0.0        0.0        0.0       0.00       11.5       0.80       0.00       20.2
4:24               18        0.0         69       11.3      176.0       11.3       12.9        5.8     1019.4       15.4       11.3        0.0        0.0        0.0       0.00       11.6       0.80       0.00       20.2
4:26               17        0.0         69       11.2      176.0       11.2       12.8        5.8     1019.4       15.4       11.2        0.0        0.0        0.0       0.00       11.7       0.80       0.00       20.2
4:28               17        0.0         69       11.2      176.0       11.2       12.8        5.8     1019.4       15.4       11.2        0.0        0.0        0.0       0.00       11.7       0.80       0.00       20.2
4:30               17        0.0         69       11.2      176.0       11.2       12.7        5.7     1019.4       15.4       11.2        0.0        0.0        0.0       0.00       11.8       0.80       0.00       20.2
4:32               17        0.0         69       11.2      176.0       11.2       12.7        5.7     1019.4       15.4       11.2        0.0        0.0        0.0       0.00       11.9       0.88       0.00       20.2
4:33               19        0.0         70       11.1      176.0       11.1       12.8        5.9     1019.5       15.4       11.1        0.0        0.0        0.0       0.00       12.0       0.88       0.00       20.2
4:35               19        0.0         70       11.1      176.0       11.1       12.8        5.9     1019.5       15.4       11.1        0.0        0.0        0.0       0.00       12.1       0.88       0.00       20.2
4:38               19        0.0         70       11.1      176.0       11.1       12.8        5.9     1019.5       15.4       11.1        0.0        0.0        0.0       0.00       12.2       0.88       0.00       20.2
4:40               19        0.0         70       11.1      176.0       11.1       12.7        5.8     1019.5       15.4       11.1        0.0        0.0        0.0       0.00       12.3       0.88       0.00       20.2
4:42               19        0.0         71       11.1      176.0       11.1       12.8        6.1     1019.4       15.4       11.1        0.0        0.0        0.0       0.00       12.4       0.88       0.00       20.2
4:44               19        0.0         71       11.1      176.0       11.1       12.8        6.0     1019.6       15.4       11.1        0.0        0.0        0.0       0.00       12.4       0.88       0.00       20.2
4:46               19        0.0         71       11.1      176.0       11.1       12.8        6.0     1019.6       15.4       11.1        0.0        0.0        0.0       0.00       12.5       0.95       0.00       20.2
4:48               19        0.0         71       11.1      176.0       11.1       12.8        6.0     1019.6       15.4       11.0        0.0        0.0        0.0       0.00       12.6       0.95       0.00       20.2
4:49               19        0.0         71       11.0      176.0       11.0       12.7        5.9     1019.6       15.4       11.0        0.0        0.0        0.0       0.00       12.6       0.95       0.00       20.2
4:52               19        0.0         71       11.0      176.0       11.0       12.7        5.9     1019.7       15.4       11.0        0.0        0.0        0.0       0.00       12.7       0.95       0.00       20.2
4:54               19        0.0         71       11.0      176.0       11.0       12.7        5.9     1019.6       15.4       11.0        0.0        0.0        0.0       0.00       12.8       0.95       0.00       20.2
4:56               19        0.0         71       11.0      176.0       11.0       12.7        5.9     1019.7       15.4       10.9        0.0        0.0        0.0       0.00       12.8       0.95       0.00       20.2
4:58               19        0.0         71       11.0      176.0       11.0       12.7        5.9     1019.7       15.4       10.9        0.0        0.0        0.0       0.00       12.9       0.95       0.00       20.2
5:00               19        0.0         71       10.9      176.0       10.9       12.7        5.9     1019.7       15.4       10.9        0.0        0.0        0.0       0.00       13.0       0.95       0.00       20.2
5:02               19        0.0         71       10.9      176.0       10.9       12.6        5.8     1019.6       15.4       10.9        0.0        0.0        0.0       0.00       13.0       1.02       0.00       20.2
5:04               19        0.0         71       10.9      176.0       10.9       12.6        5.8     1019.8       15.4       10.9        0.0        0.0        0.0       0.00       13.1       1.02       0.00       20.2
5:06               19        0.0         71       10.9      176.0       10.9       12.6        5.8     1019.7       15.4       10.9        0.0        0.0        0.0       0.00       13.2       1.02       0.00       20.2
5:08               19        0.0         71       10.9      176.0       10.9       12.6        5.8     1019.7       15.4       10.9        0.0        0.0        0.0       0.00       13.3       1.02       0.00       20.2
5:10               19        0.0         71       10.9      176.0       10.9       12.6        5.8     1019.8       15.4       10.9        0.0        0.0        0.0       0.00       13.4       1.02       0.00       20.2
5:12               19        0.0         71       10.9      176.0       10.9       12.6        5.8     1019.8       15.4       10.9        0.0        0.0        0.0       0.00       13.4       1.02       0.00       20.2
5:13               19        0.0         71       10.8      176.0       10.8       12.5        5.8     1019.8       15.4       10.8        0.0        0.0        0.0       0.00       13.5       1.02       0.00       20.2
5:16               18        0.0         70       10.9      176.0       10.9       12.5        5.6     1019.8       15.4       10.8        0.0        0.0        0.0       0.00       13.6       1.10       0.00       20.2
5:18               18        0.0         70       10.8      176.0       10.8       12.5        5.6     1019.7       15.4       10.8        0.0        0.0        0.0       0.00       13.7       1.10       0.00       20.2
5:19               17        0.0         70       10.9      176.0       10.9       12.5        5.6     1019.8       15.4       10.8        0.0        0.0        0.0       0.00       13.8       1.10       0.00       20.2
5:22               17        0.0         70       10.9      176.0       10.9       12.5        5.6     1019.7       15.4       10.8        0.0        0.0        0.0       0.00       13.9       1.10       0.00       20.2
5:24               17        0.0         70       10.9      176.0       10.9       12.5        5.6     1019.8       15.4       10.8        0.0        0.0        0.0       0.00       13.9       1.10       0.00       20.2
5:26               18        0.0         70       10.9      176.0       10.9       12.5        5.6     1019.8       15.4       10.8        0.0        0.0        0.0       0.00       14.0       1.10       0.00       20.2
5:28               17        0.0         70       10.9      176.0       10.9       12.5        5.6     1019.8       15.4       10.8        0.0        0.0        0.0       0.00       14.1       1.10       0.00       20.2
5:30               17        0.0         70       10.9      176.0       10.9       12.5        5.6     1019.8       15.4       10.8        0.0        0.0        0.0       0.00       14.2       1.10       0.00       20.2
5:32               17        0.0         71       10.9      176.0       10.9       12.6        5.8     1019.9       15.4       10.8        0.0        0.0        0.0       0.00       14.2       1.17       0.00       20.2
5:34               17        0.0         71       10.9      176.0       10.9       12.7        5.9     1019.9       15.4       10.8        0.0        0.0        0.0       0.00       14.3       1.17       0.00       20.2
5:36               17        0.0         71       10.9      176.0       10.9       12.7        5.9     1019.9       15.4       10.8        0.0        0.0        0.0       0.00       14.4       1.17       0.00       20.2
5:38               17        0.0         71       10.9      176.0       10.9       12.6        5.8     1019.9       15.4       10.8        0.0        0.0        0.0       0.00       14.5       1.17       0.00       20.2
5:39               17        0.0         71       10.9      176.0       10.9       12.7        5.9     1020.0       15.4       10.8        0.0        0.0        0.0       0.00       14.6       1.17       0.00       20.2
5:42               17        0.0         71       10.9      176.0       10.9       12.7        5.9     1020.0       15.4       10.8        0.0        0.0        0.0       0.00       14.7       1.17       0.00       20.2
5:43               17        0.0         71       10.9      176.0       10.9       12.7        5.9     1019.9       15.4       10.8        0.0        0.0        0.0       0.00       14.8       1.17       0.00       20.2
5:45               17        0.0         71       10.9      176.0       10.9       12.7        5.9     1020.0       15.4       10.8        0.0        0.0        0.0       0.00       14.9       1.24       0.00       20.2
5:48               16        0.0         71       10.9      176.0       10.9       12.7        5.9     1019.9       15.4       10.8        0.0        0.0        0.0       0.00       15.0       1.24       0.00       20.2
5:49               17        0.0         71       10.9      176.0       10.9       12.7        5.9     1020.0       15.4       10.8        0.0        0.0        0.0       0.00       15.1       1.24       0.00       20.2
5:51               17        0.0         71       10.9      176.0       10.9       12.7        5.9     1019.9       15.4       10.8        0.0        0.0        0.0       0.00       15.2       1.24       0.00       20.2
5:54               17        0.0         71       11.0      176.0       11.0       12.7        5.9     1020.0       15.4       10.8        0.0        0.0        0.0       0.00       15.2       1.24       0.00       20.2
5:56               17        0.0         71       11.0      176.0       11.0       12.7        5.9     1019.9       15.4       10.8        0.0        0.0        0.0       0.00       15.3       1.24       0.00       20.2
5:57               17        0.0         70       11.0      176.0       11.0       12.6        5.7     1020.0       15.4       10.8        0.0        0.0        0.0       0.00       15.4       1.24       0.00       20.2
6:00               16        0.0         70       11.0      176.0       11.0       12.6        5.7     1020.0       15.4       10.8        0.0        0.0        0.0       0.00       15.5       1.24       0.00       20.2
6:02               16        0.0         70       11.1      176.0       11.1       12.7        5.8     1019.9       15.4       10.8        0.0        0.0        0.0       0.00       15.6       1.32       0.00       20.2
6:03               16        0.0         70       11.1      176.0       11.1       12.8        5.9     1019.9       15.4       10.8        0.0        0.0        0.0       0.00       15.6       1.32       0.00       20.2
6:06               17        0.0         70       11.1      176.0       11.1       12.8        5.9     1019.9       15.4       10.8        0.0        0.0        0.0       0.00       15.7       1.32       0.00       20.2
6:08               16        0.0         70       11.1      176.0       11.1       12.8        5.9     1020.0       15.4       10.8        0.0        0.0        0.0       0.00       15.8       1.32       0.00       20.2
6:09               13        0.0         70       11.1      176.0       11.1       12.7        5.8     1020.0       15.4       10.8        0.0        0.0        0.0       0.00       16.0       1.32       0.00       20.2
6:12               12        0.0         70       11.1      176.0       11.1       12.7        5.8     1019.9       15.4       10.8        0.0        0.0        0.0       0.00       16.1       1.32       0.00       20.2
6:14               12        0.0         70       11.0      176.0       11.0       12.6        5.7     1019.9       15.4       10.8        0.0        0.0        0.0       0.00       16.1       1.32       0.00       20.2
6:16               12        0.0         70       10.9      176.0       10.9       12.6        5.7     1019.9       15.4       10.8        0.0        0.0        0.0       0.00       16.2       1.39       0.00       20.2
6:17               13        0.0         70       10.9      176.0       10.9       12.6        5.7     1020.0       15.4       10.8        0.0        0.0        0.0       0.00       16.3       1.39       0.00       20.2
6:19               15        0.0         70       10.9      176.0       10.9       12.6        5.7     1020.0       15.4       10.8        0.0        0.0        0.0       0.00       16.4       1.39       0.00       20.2
6:22               15        0.0         70       10.9      176.0       10.9       12.5        5.6     1019.9       15.4       10.8        0.0        0.0        0.0       0.00       16.5       1.39       0.00       20.2
6:23               14        0.0         70       10.9      176.0       10.9       12.5        5.6     1019.9       15.4       10.8        0.0        0.0        0.0       0.00       16.6       1.39       0.00       20.2
6:26               14        0.0         70       10.9      176.0       10.9       12.5        5.6     1020.0       15.4       10.8        0.0        0.0        0.0       0.00       16.7       1.39       0.00       20.2
6:28               14        0.0         70       10.9      176.0       10.9       12.5        5.6     1020.0       15.4       10.8        0.0        0.0        0.0       0.00       16.8       1.39       0.00       20.2
6:30               15        0.0         70       10.9      176.0       10.9       12.5        5.6     1020.0       15.4       10.8        0.0        0.0        0.0       0.00       16.9       1.39       0.00       20.2
6:32               17        0.0         70       10.9      176.0       10.9       12.5        5.6     1020.0       15.4       10.8        0.0        0.0        0.0       0.00       17.0       1.46       0.00       20.2
6:34               23        0.0         69       11.0      176.0       11.0       12.6        5.5     1020.1       15.4       10.8        0.0        0.0        0.0       0.00       17.1       1.46       0.00       20.2
6:35               23        0.0         69       11.0      176.0       11.0       12.6        5.5     1020.1       15.4       10.8        0.0        0.0        0.0       0.00       17.2       1.46       0.00       20.2
6:38               19        0.0         69       11.1      176.0       11.1       12.6        5.6     1020.1       15.4       10.8        0.0        0.0        0.0       0.00       17.3       1.46       0.00       20.2
6:40               17        0.0         67       11.1      176.0       11.1       12.6        5.2     1020.1       15.4       10.8        0.0        0.0        0.0       0.00       17.5       1.46       0.00       20.2
6:41               22        0.0         67       11.2      176.0       11.2       12.7        5.3     1020.2       15.4       10.8        0.0        0.0        0.0       0.00       17.6       1.46       0.00       20.2
6:44               18        0.0         67       11.3      176.0       11.3       12.8        5.4     1020.1       15.4       10.8        0.0        0.0        0.0       0.00       17.8       1.46       0.00       20.2
6:46               22        0.0         66       11.4      176.0       11.4       12.8        5.3     1020.1       15.4       10.8        0.0        0.0        0.0       0.00       17.9       1.53       0.00       20.2
6:47               17        0.0         65       11.6      176.0       11.6       12.9        5.2     1020.1       15.4       10.8        0.0        0.0        0.0       0.00       18.0       1.53       0.00       20.2
6:50               14        0.0         65       11.7      176.0       11.7       13.0        5.3     1020.1       15.4       10.8        0.0        0.0        0.0       0.00       18.1       1.53       0.00       20.2
6:51               16        0.0         65       11.7      176.0       11.7       13.0        5.4     1020.1       15.4       10.8        0.0        0.0        0.0       0.00       18.2       1.53       0.00       20.2
6:53                5        0.0         65       11.7      176.0       11.7       13.0        5.4     1020.1       15.4       10.8        0.0        0.0        0.0       0.00       18.4       1.53       0.00       20.2
6:56               12        0.0         65       11.7      176.0       11.7       13.0        5.4     1020.1       15.4       10.8        0.0        0.0        0.0       0.00       18.5       1.53       0.00       20.2
6:58               11        0.0         65       11.7      176.0       11.7       13.0        5.4     1020.2       15.4       10.8        0.0        0.0        0.0       0.00       18.7       1.53       0.00       20.2
7:00               19        0.0         65       11.7      176.0       11.7       13.0        5.4     1020.2       15.4       10.8        0.0        0.0        0.0       0.00       18.8       1.53       0.00       20.2
7:02               11        0.0         65       11.7      176.0       11.7       13.0        5.3     1020.2       15.4       10.8        0.0        0.0        0.0       0.00       18.9       1.60       0.00       20.2
7:04               15        0.0         66       11.5      176.0       11.5       12.9        5.4     1020.2       15.4       10.8        0.0        0.0        0.0       0.00       19.1       1.60       0.00       20.2
7:05               17        0.0         67       11.3      176.0       11.3       12.8        5.4     1020.2       15.4       10.8        0.0        0.0        0.0       0.00       19.2       1.60       0.00       20.2
7:08               23        0.0         68       11.2      176.0       11.2       12.7        5.5     1020.2       15.4       10.8        0.0        0.0        0.0       0.00       19.3       1.60       0.00       20.2
7:09                5        0.0         69       11.1      176.0       11.1       12.7        5.6     1020.3       15.4       10.8        0.0        0.0        0.0       0.00       19.4       1.60       0.00       20.2
7:12               18        0.0         69       11.0      176.0       11.0       12.6        5.5     1020.3       15.4       10.8        0.0        0.0        0.0       0.00       19.5       1.60       0.00       20.2
7:14               25        0.0         69       11.0      176.0       11.0       12.6        5.5     1020.3       15.4       10.8        0.0        0.0        0.0       0.00       19.7       1.60       0.00       20.2
7:16               24        0.0         69       10.9      176.0       10.9       12.5        5.5     1020.2       15.4       10.8        0.0        0.0        0.0       0.00       19.8       1.67       0.00       20.2
7:18               25        0.0         70       10.9      176.0       10.9       12.5        5.6     1020.3       15.4       10.8        0.0        0.0        0.0       0.00       19.9       1.67       0.00       20.2
7:19               24        0.0         70       10.9      176.0       10.9       12.5        5.6     1020.2       15.4       10.8        0.0        0.0        0.0       0.00       20.0       1.67       0.00       20.2
7:22               30        0.0         70       10.9      176.0       10.9       12.5        5.6     1020.3       15.4       10.8        0.0        0.0        0.0       0.00       20.1       1.67       0.00       20.2
7:24               22        0.0         70       10.9      176.0       10.9       12.5        5.6     1020.3       15.4       10.8        0.0        0.0        0.0       0.00       20.2       1.67       0.00       20.2
7:25               19        0.0         70       10.9      176.0       10.9       12.5        5.6     1020.3       15.4       10.8        0.0        0.0        0.0       0.00       20.3       1.67       0.00       20.2
7:28               15        0.0         70       10.9      176.0       10.9       12.5        5.6     1020.3       15.4       10.8        0.0        0.0        0.0       0.00       20.4       1.67       0.00       20.2
7:30               20        0.0         70       10.9      176.0       10.9       12.6        5.7     1020.3       15.4       10.8        0.0        0.0        0.0       0.00       20.5       1.67       0.00       20.2
7:32               16        0.0         70       11.0      176.0       11.0       12.6        5.7     1020.3       15.4       10.8        0.0        0.0        0.0       0.00       20.6       1.74       0.00       20.2
7:34               13        0.0         69       11.0      176.0       11.0       12.6        5.5     1020.3       15.4       10.8        0.0        0.0        0.0       0.00       20.8       1.74       0.00       20.2
7:36               15        0.0         69       11.1      176.0       11.1       12.6        5.6     1020.3       15.4       10.8        0.0        0.0        0.0       0.00       20.9       1.74       0.00       20.2
7:37               19        0.0         69       11.1      176.0       11.1       12.7        5.6     1020.3       15.4       10.8        0.0        0.0        0.0       0.00       21.0       1.74       0.00       20.2
7:40               32        0.0         69       11.2      176.0       11.2       12.7        5.7     1020.3       15.4       10.8        0.0        0.0        0.0       0.00       21.2       1.74       0.00       20.2
7:42               34        0.0         68       11.2      176.0       11.2       12.7        5.5     1020.4       15.4       10.8        0.0        0.0        0.0       0.00       21.3       1.74       0.00       20.2
7:43               22        0.0         68       11.3      176.0       11.3       12.8        5.6     1020.5       15.4       10.8        0.0        0.0        0.0       0.00       21.5       1.74       0.00       20.2
7:46               30        0.0         68       11.3      176.0       11.3       12.8        5.6     1020.4       15.4       10.8        0.0        0.0        0.0       0.00       21.6       1.81       0.00       20.2
7:48               24        0.0         68       11.4      176.0       11.4       12.9        5.7     1020.5       15.4       10.8        0.0        0.0        0.0       0.00       21.8       1.81       0.00       20.2
7:50               22        0.0         68       11.4      176.0       11.4       12.9        5.7     1020.5       15.4       10.8        0.0        0.0        0.0       0.00       21.9       1.81       0.00       20.2
7:52               19        0.0         68       11.4      176.0       11.4       13.0        5.8     1020.6       15.4       10.8        0.0        0.0        0.0       0.00       22.1       1.81       0.00       20.2
7:54               24        0.0         68       11.5      176.0       11.5       13.0        5.8     1020.6       15.4       10.8        0.0        0.0        0.0       0.00       22.2       1.81       0.00       20.2
7:56               22        0.0         68       11.4      176.0       11.4       13.0        5.8     1020.6       15.4       10.8        0.0        0.0        0.0       0.00       22.3       1.81       0.00       20.2
7:58               22        0.0         68       11.5      176.0       11.5       13.0        5.8     1020.7       15.4       10.8        0.0        0.0        0.0       0.00       22.5       1.81       0.00       20.2
8:00               17        0.0         68       11.5      176.0       11.5       13.0        5.8     1020.7       15.4       10.8        0.0        0.0        0.0       0.00       22.6       1.81       0.00       20.2
8:02               19        0.0         68       11.5      176.0       11.5       13.0        5.8     1020.7       15.4       10.8        0.0        0.0        0.0       0.00       22.8       1.88       0.00       20.2
8:03               26        0.0         68       11.6      176.0       11.6       13.1        5.9     1020.7       15.4       10.8        0.0        0.0        0.0       0.00       22.9       1.88       0.00       20.2
8:06               13        0.0         68       11.6      176.0       11.6       13.1        5.9     1020.8       15.4       10.8        0.0        0.0        0.0       0.00       23.1       1.88       0.00       20.2
8:08               28        0.0         68       11.6      176.0       11.6       13.1        5.9     1020.8       15.4       10.8        0.0        0.0        0.0       0.00       23.2       1.88       0.00       20.2
8:09               24        0.0         68       11.7      176.0       11.7       13.2        6.0     1020.8       15.4       10.8        0.0        0.0        0.0       0.00       23.4       1.88       0.00       20.2
8:12               27        0.0         68       11.7      176.0       11.7       13.2        6.0     1020.8       15.4       10.8        0.0        0.0        0.0       0.00       23.5       1.88       0.00       20.2
8:14              329        0.0         68       11.8      176.0       11.8       13.3        6.1     1020.8       15.4       10.8        0.0        0.0        0.0       0.00       23.6       1.88       0.00       20.2
8:15               13        0.0         68       11.8      176.0       11.8       13.3        6.1     1020.8       15.4       10.8        0.0        0.0        0.0       0.00       23.7       1.95       0.00       20.2
8:18               22        0.0         68       11.8      176.0       11.8       13.3        6.1     1020.8       15.4       10.8        0.0        0.0        0.0       0.00       23.9       1.95       0.00       20.2
8:20               11        0.0         68       11.9      176.0       11.9       13.4        6.2     1020.8       15.4       10.8        0.0        0.0        0.0       0.00       24.0       1.95       0.00       20.2
8:21               22        0.0         68       11.9      176.0       11.9       13.4        6.2     1020.8       15.4       10.8        0.0        0.0        0.0       0.00       24.2       1.95       0.00       20.2
8:24                9        0.0         68       11.9      176.0       11.9       13.5        6.2     1020.8       15.4       10.8        0.0        0.0        0.0       0.00       24.4       1.95       0.00       20.2
8:26               14        0.0         68       12.0      176.0       12.0       13.5        6.3     1020.7       15.4       10.8        0.0        0.0        0.0       0.00       24.5       1.95       0.00       20.2
8:28                5        0.0         67       12.1      176.0       12.1       13.5        6.1     1020.7       15.4       10.8        0.0        0.0        0.0       0.00       24.7       1.95       0.00       20.2
8:30               13        0.0         67       12.1      176.0       12.1       13.6        6.2     1020.8       15.4       10.8        0.0        0.0        0.0       0.00       24.9       1.95       0.00       20.2
8:32                5        0.0         67       12.2      176.0       12.2       13.7        6.3     1020.9       15.4       10.8        0.0        0.0        0.0       0.00       25.0       2.01       0.00       20.2
8:34               10        0.0         67       12.3      176.0       12.3       13.8        6.4     1020.9       15.4       10.8        0.0        0.0        0.0       0.00       25.2       2.01       0.00       20.2
8:36               24        0.0         66       12.4      176.0       12.4       13.8        6.2     1021.0       15.4       10.8        0.0        0.0        0.0       0.00       25.4       2.01       0.00       20.2
8:38               30        0.0         66       12.5      176.0       12.5       13.9        6.3     1020.9       15.4       10.8        0.0        0.0        0.0       0.00       25.5       2.01       0.00       20.2
8:40               24        0.0         65       12.6      176.0       12.6       13.9        6.2     1021.0       15.4       10.8        0.0        0.0        0.0       0.00       25.7       2.01       0.00       20.2
8:42              360        0.0         65       12.7      176.0       12.7       14.0        6.3     1021.0       15.4       10.8        0.0        0.0        0.0       0.00       25.9       2.01       0.00       20.2
8:44               24        0.0         64       12.8      176.0       12.8       14.0        6.1     1021.0       15.4       10.8        0.0        0.0        0.0       0.00       26.1       2.01       0.00       20.2
8:46               17        0.0         64       12.9      176.0       12.9       14.1        6.3     1021.0       15.4       10.8        0.0        0.0        0.0       0.00       26.2       2.06       0.00       20.2
8:48               19        0.0         64       12.9      176.0       12.9       14.2        6.3     1021.0       15.4       10.8        0.0        0.0        0.0       0.00       26.4       2.06       0.00       20.2
8:50               22        0.0         64       13.1      176.0       13.1       14.3        6.4     1021.1       15.4       10.8        0.0        0.0        0.0       0.00       26.6       2.06       0.00       20.2
8:52               13        0.0         64       13.1      176.0       13.1       14.4        6.5     1021.0       15.4       10.8        0.0        0.0        0.0       0.00       26.8       2.06       0.00       20.2
8:54               13        0.0         63       13.2      176.0       13.2       14.4        6.3     1021.1       15.4       10.8        0.0        0.0        0.0       0.00       26.9       2.06       0.00       20.2
8:56               15        0.0         63       13.3      176.0       13.3       14.5        6.4     1021.0       15.4       10.8        0.0        0.0        0.0       0.00       27.1       2.06       0.00       20.2
8:57               18        0.0         63       13.3      176.0       13.3       14.5        6.4     1021.1       15.4       10.8        0.0        0.0        0.0       0.00       27.3       2.06       0.00       20.2
9:00               16        0.0         62       13.4      176.0       13.4       14.6        6.3     1021.1       15.4       10.8        0.0        0.0        0.0       0.00       27.5       2.06       0.00       20.2
9:02               24        0.0         62       13.6      176.0       13.6       14.7        6.4     1021.2       15.4       10.8        0.0        0.0        0.0       0.00       27.7       2.11       0.00       20.2
9:04               19        0.0         61       13.6      176.0       13.6       14.7        6.2     1021.1       15.4       10.8        0.0        0.0        0.0       0.00       27.9       2.11       0.00       20.2
9:05               22        0.0         61       13.7      176.0       13.7       14.7        6.3     1021.1       15.4       10.8        0.0        0.0        0.0       0.00       28.2       2.11       0.00       20.2
9:08               38        0.0         61       13.7      176.0       13.7       14.8        6.3     1021.0       15.4       10.8        0.0        0.0        0.0       0.00       28.4       2.11       0.00       20.2
9:10               25        0.0         61       13.8      176.0       13.8       14.9        6.4     1021.0       15.4       10.8        0.0        0.0        0.0       0.00       28.5       2.11       0.00       20.2
9:11               32        0.0         60       13.9      176.0       13.9       14.9        6.3     1021.1       15.4       10.8        0.0        0.0        0.0       0.00       28.7       2.11       0.00       20.2
9:14               30        0.0         60       14.0      176.0       14.0       15.0        6.4     1021.0       15.4       10.8        0.0        0.0        0.0       0.00       28.9       2.11       0.00       20.2
9:16              360        0.0         59       14.1      176.0       14.1       15.1        6.2     1021.1       15.4       10.8        0.0        0.0        0.0       0.00       29.1       2.15       0.00       20.2
9:17               37        0.0         59       14.2      176.0       14.2       15.2        6.3     1021.1       15.4       10.8        0.0        0.0        0.0       0.00       29.3       2.15       0.00       20.2
9:20               34        0.0         59       14.3      176.0       14.3       15.2        6.4     1021.0       15.4       10.8        0.0        0.0        0.0       0.00       29.6       2.15       0.00       20.2
9:22               19        0.0         59       14.4      176.0       14.4       15.3        6.5     1021.1       15.4       10.8        0.0        0.0        0.0       0.00       29.7       2.15       0.00       20.2
9:24               44        0.0         59       14.5      176.0       14.5       15.4        6.6     1021.1       15.4       10.8        0.0        0.0        0.0       0.00       29.9       2.15       0.00       20.2
9:26               46        0.0         58       14.6      176.0       14.6       15.4        6.4     1021.2       15.4       10.8        0.0        0.0        0.0       0.00       30.2       2.15       0.00       20.2
9:28               30        0.0         58       14.7      176.0       14.7       15.6        6.5     1021.2       15.4       10.8        0.0        0.0        0.0       0.00       30.3       2.15       0.00       20.2
9:30               48        0.0         58       14.8      176.0       14.8       15.7        6.6     1021.1       15.4       10.8        0.0        0.0        0.0       0.00       30.5       2.15       0.00       20.2
9:32               40        0.0         57       14.9      176.0       14.9       15.7        6.5     1021.2       15.4       10.8        0.0        0.0        0.0       0.00       30.7       2.18       0.00       20.2
9:34               36        0.0         57       15.0      176.0       15.0       15.8        6.6     1021.2       15.4       10.8        0.0        0.0        0.0       0.00       31.0       2.18       0.00       20.2
9:36               18        0.0         56       15.1      176.0       15.1       15.8        6.4     1021.3       15.4       10.8        0.0        0.0        0.0       0.00       31.2       2.18       0.00       20.2
9:38               35        0.0         57       15.2      176.0       15.2       16.0        6.7     1021.2       15.4       10.8        0.0        0.0        0.0       0.00       31.3       2.18       0.00       20.2
9:40               23        0.0         56       15.3      176.0       15.3       16.1        6.6     1021.2       15.4       10.8        0.0        0.0        0.0       0.00       31.6       2.18       0.00       20.2
9:42               63        0.0         56       15.4      176.0       15.4       16.2        6.7     1021.2       15.4       10.8        0.0        0.0        0.0       0.00       31.7       2.18       0.00       20.2
9:44               46        0.0         56       15.5      176.0       15.5       16.3        6.8     1021.1       15.5       10.8        0.0        0.0        0.0       0.00       32.0       2.18       0.00       20.2
9:46               13        0.0         55       15.6      176.0       15.6       16.3        6.6     1021.1       15.6       10.8        0.0        0.0        0.0       0.00       32.2       2.21       0.00       20.2
9:48               34        0.0         55       15.7      176.0       15.7       16.4        6.7     1021.1       15.7       10.8        0.0        0.0        0.0       0.00       32.4       2.21       0.00       20.2
9:50               18        0.0         55       15.8      176.0       15.8       16.5        6.8     1021.1       15.8       10.8        0.0        0.0        0.0       0.00       32.6       2.21       0.00       20.2
9:52               24        0.0         54       15.8      176.0       15.8       16.5        6.5     1021.0       15.8       10.8        0.0        0.0        0.0       0.00       32.9       2.21       0.00       20.2
9:54               37        0.0         54       15.9      176.0       15.9       16.6        6.7     1021.0       15.9       10.8        0.0        0.0        0.0       0.00       33.2       2.21       0.00       20.2
9:55               40        0.0         54       16.0      176.0       16.0       16.7        6.7     1021.1       16.0       10.8        0.0        0.0        0.0       0.00       33.3       2.21       0.00       20.2
9:58               45        0.0         54       16.1      176.0       16.1       16.7        6.8     1021.1       16.1       10.8        0.0        0.0        0.0       0.00       33.5       2.21       0.00       20.2
10:00              19        0.0         54       16.2      176.0       16.2       16.9        6.9     1021.0       16.2       10.8        0.0        0.0        0.0       0.00       33.7       2.21       0.00       20.2
10:02              44        0.0         53       16.3      176.0       16.3       16.9        6.7     1021.1       16.3       10.8        0.0        0.0        0.0       0.00       33.9       2.23       0.00       20.2
10:03              32        0.0         53       16.4      176.0       16.4       17.0        6.8     1021.0       16.4       10.8        0.0        0.0        0.0       0.00       34.1       2.23       0.00       20.2
10:06              38        0.0         53       16.5      176.0       16.5       17.1        6.9     1021.0       16.5       10.8        0.0        0.0        0.0       0.00       34.3       2.23       0.00       20.2
10:08              34        0.0         51       16.6      176.0       16.6       17.1        6.4     1021.0       16.6       10.8        0.0        0.0        0.0       0.00       34.5       2.23       0.00       20.2
10:10              40        0.0         51       16.7      176.0       16.7       17.2        6.5     1020.9       16.7       10.8        0.0        0.0        0.0       0.00       34.7       2.23       0.00       20.2
10:12              43        0.0         52       16.9      176.0       16.9       17.4        7.0     1021.0       16.9       10.8        0.0        0.0        0.0       0.00       34.9       2.23       0.00       20.2
10:14              30        0.0         52       17.0      176.0       17.0       17.6        7.1     1021.0       17.0       10.8        0.0        0.0        0.0       0.00       35.0       2.23       0.00       20.2
10:16              34        0.0         51       17.2      176.0       17.2       17.7        7.0     1020.9       17.2       10.8        0.0        0.0        0.0       0.00       35.2       2.24       0.00       20.2
10:18              35        0.0         49       17.3      176.0       17.3       17.7        6.5     1020.9       17.3       10.8        0.0        0.0        0.0       0.00       35.5       2.24       0.00       20.2
10:20              28        0.0         49       17.4      176.0       17.4       17.8        6.6     1020.8       17.4       10.8        0.0        0.0        0.0       0.00       35.7       2.24       0.00       20.2
10:22              51        0.0         48       17.6      176.0       17.6       17.9        6.4     1020.9       17.6       10.8        0.0        0.0        0.0       0.00       35.9       2.24       0.00       20.2
10:24              23        0.0         48       17.7      176.0       17.7       18.0        6.5     1020.9       17.7       10.8        0.0        0.0        0.0       0.00       36.1       2.24       0.00       20.2
10:26              49        0.0         47       17.8      176.0       17.8       18.1        6.4     1020.8       17.8       10.8        0.0        0.0        0.0       0.00       36.3       2.24       0.00       20.2
10:28              32        0.0         46       17.9      176.0       17.9       18.2        6.2     1020.8       17.9       10.8        0.0        0.0        0.0       0.00       36.5       2.24       0.00       20.2
10:30              59        0.0         46       18.0      176.0       18.0       18.2        6.2     1020.8       18.0       10.8        0.0        0.0        0.0       0.00       36.8       2.24       0.00       20.2
10:32               5        0.0         46       18.1      176.0       18.1       18.3        6.3     1020.7       18.1       10.8        0.0        0.0        0.0       0.00       37.0       2.24       0.00       20.2
10:34              24        0.0         45       18.2      176.0       18.2       18.4        6.1     1020.7       18.2       10.8        0.0        0.0        0.0       0.00       37.2       2.24       0.00       20.2
10:36              51        0.0         45       18.2      176.0       18.2       18.4        6.1     1020.6       18.2       10.8        0.0        0.0        0.0       0.00       37.4       2.24       0.00       20.2
10:38              62        0.0         45       18.3      176.0       18.3       18.5        6.2     1020.7       18.3       10.8        0.0        0.0        0.0       0.00       37.7       2.24       0.00       20.2
10:39              49        0.0         44       18.4      176.0       18.4       18.5        5.9     1020.6       18.4       10.8        0.0        0.0        0.0       0.00       38.0       2.24       0.00       20.2
10:42              15        0.0         44       18.4      176.0       18.4       18.6        6.0     1020.4       18.4       10.8        0.0        0.0        0.0       0.00       38.2       2.24       0.00       20.2
10:44              44        0.0         43       18.5      176.0       18.5       18.6        5.7     1020.6       18.5       10.8        0.0        0.0        0.0       0.00       38.5       2.24       0.00       20.2
10:45             355        0.0         43       18.6      176.0       18.6       18.7        5.7     1020.6       18.6       10.8        0.0        0.0        0.0       0.00       38.8       2.24       0.00       20.2
10:48              42        0.0         43       18.6      176.0       18.6       18.7        5.8     1020.6       18.6       10.8        0.0        0.0        0.0       0.00       39.0       2.24       0.00       20.2
10:50              38        0.0         43       18.7      176.0       18.7       18.8        5.8     1020.5       18.7       10.8        0.0        0.0        0.0       0.00       39.2       2.24       0.00       20.2
10:51              38        0.0         43       18.7      176.0       18.7       18.8        5.9     1020.5       18.7       10.8        0.0        0.0        0.0       0.00       39.4       2.24       0.00       20.2
10:54              15        0.0         43       18.8      176.0       18.8       18.9        5.9     1020.6       18.8       10.8        0.0        0.0        0.0       0.00       39.7       2.24       0.00       20.2
10:56              21        0.0         43       18.8      176.0       18.8       18.9        6.0     1020.5       18.9       10.8        0.0        0.0        0.0       0.00       39.8       2.24       0.00       20.2
10:57              67        0.0         43       19.0      176.0       19.0       19.1        6.1     1020.5       19.0       10.8        0.0        0.0        0.0       0.00       40.0       2.24       0.00       20.2
11:00              48        0.0         43       19.1      176.0       19.1       19.2        6.2     1020.5       19.1       10.8        0.0        0.0        0.0       0.00       40.3       2.24       0.00       20.2
11:02              66        0.0         43       19.2      176.0       19.2       19.3        6.3     1020.6       19.2       10.8        0.0        0.0        0.0       0.00       40.6       2.24       0.00       20.2
11:04              38        0.0         43       19.3      176.0       19.3       19.4        6.4     1020.6       19.3       10.8        0.0        0.0        0.0       0.00       40.8       2.24       0.00       20.2
11:05              68        0.0         42       19.4      176.0       19.4       19.4        6.2     1020.5       19.4       10.8        0.0        0.0        0.0       0.00       41.0       2.24       0.00       20.2
11:08              66        0.0         42       19.4      176.0       19.4       19.5        6.2     1020.6       19.4       10.8        0.0        0.0        0.0       0.00       41.4       2.24       0.00       20.2
11:10              11        0.0         42       19.6      176.0       19.6       19.6        6.3     1020.6       19.6       10.8        0.0        0.0        0.0       0.00       41.6       2.24       0.00       20.2
11:12              40        0.0         41       19.6      176.0       19.6       19.6        6.0     1020.6       19.6       10.8        0.0        0.0        0.0       0.00       41.8       2.24       0.00       20.2
11:14              30        0.0         41       19.6      176.0       19.6       19.6        6.0     1020.6       19.6       10.8        0.0        0.0        0.0       0.00       42.1       2.24       0.00       20.2
11:16              49        0.0         41       19.6      176.0       19.6       19.6        6.0     1020.5       19.6       10.8        0.0        0.0        0.0       0.00       42.4       2.24       0.00       20.2
11:18              30        0.0         41       19.6      176.0       19.6       19.6        6.0     1020.6       19.6       10.8        0.0        0.0        0.0       0.00       42.6       2.24       0.00       20.2
11:20              26        0.0         41       19.6      176.0       19.6       19.6        6.0     1020.5       19.6       10.8        0.0        0.0        0.0       0.00       42.8       2.24       0.00       20.2
11:22              76        0.0         41       19.7      176.0       19.7       19.7        6.1     1020.5       19.7       10.8        0.0        0.0        0.0       0.00       43.1       2.24       0.00       20.2
11:24              56        0.0         41       19.8      176.0       19.8       19.8        6.2     1020.4       19.8       10.8        0.0        0.0        0.0       0.00       43.4       2.24       0.00       20.2
11:25              51        0.0         41       19.9      176.0       19.9       19.9        6.3     1020.5       19.9       10.8        0.0        0.0        0.0       0.00       43.6       2.24       0.00       20.2
11:28              61        0.0         40       19.9      176.0       19.9       19.8        5.9     1020.4       19.9       10.8        0.0        0.0        0.0       0.00       43.9       2.24       0.00       20.2
11:30              26        0.0         40       19.9      176.0       19.9       19.8        5.9     1020.4       19.9       10.8        0.0        0.0        0.0       0.00       44.2       2.24       0.00       20.2
11:32              36        0.0         41       19.8      176.0       19.8       19.8        6.2     1020.4       19.9       10.8        0.0        0.0        0.0       0.00       44.4       2.24       0.00       20.2
11:34              63        0.0         41       19.9      176.0       19.9       19.9        6.3     1020.5       19.9       10.8        0.0        0.0        0.0       0.00       44.6       2.24       0.00       20.2
11:35              62        0.0         41       20.0      176.0       20.0       20.0        6.4     1020.4       20.0       10.8        0.0        0.0        0.0       0.00       44.8       2.24       0.00       20.2
11:38              55        0.0         40       20.1      176.0       20.1       20.1        6.1     1020.4       20.1       10.8        0.0        0.0        0.0       0.00       45.0       2.24       0.00       20.2
11:40              55        0.0         40       20.2      176.0       20.2       20.1        6.2     1020.4       20.2       10.8        0.0        0.0        0.0       0.00       45.2       2.24       0.00       20.2
11:41              35        0.0         40       20.2      176.0       20.2       20.2        6.2     1020.4       20.2       10.8        0.0        0.0        0.0       0.00       45.4       2.24       0.00       20.2
11:44              94        0.0         40       20.3      176.0       20.3       20.2        6.3     1020.4       20.3       10.8        0.0        0.0        0.0       0.00       45.6       2.24       0.00       20.2
11:46              30        0.0         40       20.3      176.0       20.3       20.3        6.3     1020.3       20.3       10.8        0.0        0.0        0.0       0.00       45.8       2.24       0.00       20.2
11:47              61        0.0         40       20.4      176.0       20.4       20.3        6.3     1020.4       20.4       10.8        0.0        0.0        0.0       0.00       46.0       2.24       0.00       20.2
11:50              63        0.0         40       20.4      176.0       20.4       20.4        6.4     1020.4       20.4       10.8        0.0        0.0        0.0       0.00       46.3       2.24       0.00       20.2
11:52              32        0.0         40       20.5      176.0       20.5       20.5        6.4     1020.2       20.5       10.8        0.0        0.0        0.0       0.00       46.6       2.24       0.00       20.2
11:54              32        0.0         40       20.6      176.0       20.6       20.5        6.5     1020.3       20.6       10.8        0.0        0.0        0.0       0.00       46.7       2.24       0.00       20.2
11:56              40        0.0         39       20.6      176.0       20.6       20.5        6.2     1020.2       20.6       10.8        0.0        0.0        0.0       0.00       47.0       2.24       0.00       20.2
11:58              31        0.0         39       20.6      176.0       20.6       20.5        6.1     1020.2       20.6       10.8        0.0        0.0        0.0       0.00       47.3       2.24       0.00       20.2
12:00              37        0.0         40       20.6      176.0       20.6       20.6        6.5     1020.2       20.6       10.8        0.0        0.0        0.0       0.00       47.5       2.24       0.00       20.2
12:02              28        0.0         40       20.6      176.0       20.6       20.6        6.5     1020.1       20.6       10.8        0.0        0.0        0.0       0.00       47.7       2.24       0.00       20.2
12:04              67        0.0         40       20.7      176.0       20.7       20.6        6.6     1020.2       20.7       10.8        0.0        0.0        0.0       0.00       47.9       2.24       0.00       20.2
12:06              56        0.0         39       20.8      176.0       20.8       20.7        6.3     1020.2       20.8       10.8        0.0        0.0        0.0       0.00       48.2       2.24       0.00       20.2
12:08              59        0.0         39       20.9      176.0       20.9       20.9        6.5     1020.2       20.9       10.8        0.0        0.0        0.0       0.00       48.5       2.24       0.00       20.2
12:10              45        0.0         38       21.1      176.0       21.1       20.9        6.2     1020.2       21.1       10.8        0.0        0.0        0.0       0.00       48.7       2.24       0.00       20.2
12:12              77        0.0         38       21.1      176.0       21.1       21.0        6.3     1020.2       21.1       10.8        0.0        0.0        0.0       0.00       49.0       2.24       0.00       20.2
12:14              67        0.0         38       21.2      176.0       21.2       21.0        6.3     1020.2       21.2       10.8        0.0        0.0        0.0       0.00       49.2       2.24       0.00       20.2
12:16              85        0.0         38       21.3      176.0       21.3       21.2        6.4     1020.2       21.3       10.8        0.0        0.0        0.0       0.00       49.4       2.24       0.00       20.2
12:18              74        0.0         38       21.4      176.0       21.4       21.3        6.5     1020.2       21.4       10.8        0.0        0.0        0.0       0.00       49.5       2.24       0.00       20.2
12:19              71        0.0         37       21.6      176.0       21.6       21.4        6.3     1020.1       21.6       10.8        0.0        0.0        0.0       0.00       49.7       2.24       0.00       20.2
12:22              37        0.0         38       21.7      176.0       21.7       21.6        6.8     1020.1       21.7       10.8        0.0        0.0        0.0       0.00       49.8       2.24       0.00       20.2
12:24              69        0.0         37       21.8      176.0       21.8       21.6        6.5     1020.0       21.8       10.8        0.0        0.0        0.0       0.00       50.0       2.24       0.00       20.2
12:25              71        0.0         37       21.9      176.0       21.9       21.7        6.6     1020.1       21.9       10.8        0.0        0.0        0.0       0.00       50.3       2.24       0.00       20.2
12:28              20        0.0         37       22.0      176.0       22.0       21.8        6.7     1020.0       22.0       10.8        0.0        0.0        0.0       0.00       50.5       2.24       0.00       20.2
12:30              21        0.0         37       21.9      176.0       21.9       21.8        6.6     1020.1       22.0       10.8        0.0        0.0        0.0       0.00       50.7       2.24       0.00       20.2
12:32              46        0.0         37       21.9      176.0       21.9       21.8        6.6     1020.0       22.0       10.8        0.0        0.0        0.0       0.00       50.8       2.24       0.00       20.2
12:34              52        0.0         37       22.0      176.0       22.0       21.8        6.7     1020.0       22.0       10.8        0.0        0.0        0.0       0.00       51.1       2.24       0.00       20.2
12:36              55        0.0         37       22.1      176.0       22.1       21.9        6.7     1020.0       22.1       10.8        0.0        0.0        0.0       0.00       51.3       2.24       0.00       20.2
12:37               5        0.0         37       22.1      176.0       22.1       21.9        6.8     1020.0       22.1       10.8        0.0        0.0        0.0       0.00       51.5       2.24       0.00       20.2
12:40              52        0.0         36       22.1      176.0       22.1       21.9        6.4     1020.0       22.1       10.8        0.0        0.0        0.0       0.00       51.7       2.24       0.00       20.2
12:42              65        0.0         37       22.1      176.0       22.1       21.9        6.8     1020.0       22.1       10.8        0.0        0.0        0.0       0.00       52.0       2.24       0.00       20.2
12:44              72        0.0         36       22.2      176.0       22.2       22.0        6.4     1019.9       22.2       10.8        0.0        0.0        0.0       0.00       52.2       2.24       0.00       20.2
12:46              75        0.0         37       22.2      176.0       22.2       22.1        6.9     1019.9       22.2       10.8        0.0        0.0        0.0       0.00       52.3       2.24       0.00       20.2
12:48               5        0.0         37       22.3      176.0       22.3       22.2        6.9     1019.9       22.3       10.8        0.0        0.0        0.0       0.00       52.5       2.24       0.00       20.2
12:50              46        0.0         36       22.4      176.0       22.4       22.2        6.6     1019.9       22.4       10.8        0.0        0.0        0.0       0.00       52.7       2.24       0.00       20.2
12:52              69        0.0         36       22.4      176.0       22.4       22.2        6.6     1019.9       22.4       10.8        0.0        0.0        0.0       0.00       52.9       2.24       0.00       20.2
12:54              73        0.0         36       22.5      176.0       22.5       22.3        6.7     1019.9       22.5       10.8        0.0        0.0        0.0       0.00       53.3       2.24       0.00       20.2
12:55              73        0.0         36       22.6      176.0       22.6       22.4        6.8     1019.9       22.6       10.8        0.0        0.0        0.0       0.00       53.4       2.24       0.00       20.2
12:58              71        0.0         36       22.7      176.0       22.7       22.5        6.9     1019.9       22.7       10.8        0.0        0.0        0.0       0.00       53.6       2.24       0.00       20.2
13:00              71        0.0         36       22.9      176.0       22.9       22.7        7.0     1019.7       22.9       10.8        0.0        0.0        0.0       0.00       53.8       2.24       0.00       20.2
13:02              36        0.0         35       23.0      176.0       23.0       22.7        6.7     1019.7       23.0       10.8        0.0        0.0        0.0       0.00       54.0       2.24       0.01       20.2
13:04              17        0.0         35       23.0      176.0       23.0       22.7        6.7     1019.7       23.0       10.8        0.0        0.0        0.0       0.00       54.2       2.24       0.01       20.2
13:06              28        0.0         35       22.9      176.0       22.9       22.7        6.7     1019.7       23.0       10.8        0.0        0.0        0.0       0.00       54.4       2.24       0.01       20.2
13:08               5        0.0         35       22.9      176.0       22.9       22.6        6.6     1019.5       23.0       10.8        0.0        0.0        0.0       0.00       54.6       2.24       0.01       20.2
13:09              38        0.0         35       22.8      176.0       22.8       22.6        6.6     1019.4       23.0       10.8        0.0        0.0        0.0       0.00       54.8       2.24       0.01       20.2
13:12              53        0.0         35       22.8      176.0       22.8       22.6        6.6     1019.4       23.0       10.8        0.0        0.0        0.0       0.00       54.9       2.24       0.01       20.2
13:14              53        0.0         35       22.9      176.0       22.9       22.7        6.7     1019.3       23.0       10.8        0.0        0.0        0.0       0.00       55.2       2.24       0.01       20.2
13:15              70        0.0         35       23.0      176.0       23.0       22.7        6.7     1019.3       23.0       10.8        0.0        0.0        0.0       0.00       55.4       2.24       0.02       20.2
13:18              64        0.0         35       23.1      176.0       23.1       22.9        6.8     1019.2       23.1       10.8        0.0        0.0        0.0       0.00       55.6       2.24       0.02       20.2
13:20              63        0.0         35       23.2      176.0       23.2       23.0        6.9     1019.1       23.2       10.8        0.0        0.0        0.0       0.00       55.8       2.24       0.02       20.2
13:22              87        0.0         34       23.3      176.0       23.3       23.0        6.6     1019.2       23.3       10.8        0.0        0.0        0.0       0.00       56.0       2.24       0.02       20.2
13:24              76        0.0         34       23.4      176.0       23.4       23.1        6.6     1019.1       23.4       10.8        0.0        0.0        0.0       0.00       56.1       2.24       0.02       20.2
13:26              81        0.0         34       23.6      176.0       23.6       23.3        6.8     1019.1       23.6       10.8        0.0        0.0        0.0       0.00       56.3       2.24       0.02       20.2
13:28              71        0.0         34       23.7      176.0       23.7       23.4        6.9     1019.1       23.7       10.8        0.0        0.0        0.0       0.00       56.5       2.24       0.02       20.2
13:29              54        0.0         33       23.8      176.0       23.8       23.5        6.6     1019.0       23.8       10.8        0.0        0.0        0.0       0.00       56.7       2.24       0.02       20.2
13:32              47        0.0         33       23.9      176.0       23.9       23.6        6.7     1019.0       23.9       10.8        0.0        0.0        0.0       0.00       56.9       2.24       0.04       20.2
13:33              53        0.0         33       23.9      176.0       23.9       23.6        6.7     1019.0       23.9       10.8        0.0        0.0        0.0       0.00       57.0       2.24       0.04       20.2
13:36              74        0.0         33       23.9      176.0       23.9       23.6        6.7     1018.9       23.9       10.8        0.0        0.0        0.0       0.00       57.3       2.24       0.04       20.2
13:38              40        0.0         33       23.9      176.0       23.9       23.6        6.7     1018.9       23.9       10.8        0.0        0.0        0.0       0.00       57.5       2.24       0.04       20.2
13:40              51        0.0         33       23.9      176.0       23.9       23.6        6.7     1019.0       23.9       10.8        0.0        0.0        0.0       0.00       57.7       2.24       0.04       20.2
13:42              67        0.0         33       24.0      176.0       24.0       23.7        6.8     1019.0       24.0       10.8        0.0        0.0        0.0       0.00       57.9       2.24       0.04       20.2
13:44              32        0.0         33       24.0      176.0       24.0       23.7        6.8     1018.9       24.0       10.8        0.0        0.0        0.0       0.00       58.1       2.24       0.04       20.2
13:46              28        0.0         33       23.9      176.0       23.9       23.6        6.7     1018.8       24.0       10.8        0.0        0.0        0.0       0.00       58.3       2.24       0.06       20.2
13:48              41        0.0         33       23.8      176.0       23.8       23.5        6.6     1018.8       24.0       10.8        0.0        0.0        0.0       0.00       58.5       2.24       0.06       20.2
13:50              39        0.0         34       23.8      176.0       23.8       23.5        7.0     1018.8       24.0       10.8        0.0        0.0        0.0       0.00       58.6       2.24       0.06       20.2
13:52              74        0.0         34       23.9      176.0       23.9       23.6        7.1     1018.7       24.0       10.8        0.0        0.0        0.0       0.00       58.7       2.24       0.06       20.2
13:54              77        0.0         34       24.0      176.0       24.0       23.7        7.2     1018.7       24.0       10.8        0.0        0.0        0.0       0.00       58.9       2.24       0.06       20.2
13:56              76        0.0         33       24.2      176.0       24.2       23.8        6.9     1018.7       24.2       10.8        0.0        0.0        0.0       0.00       59.1       2.24       0.06       20.2
13:58              80        0.0         33       24.3      176.0       24.3       23.9        7.0     1018.7       24.3       10.8        0.0        0.0        0.0       0.00       59.3       2.24       0.06       20.2
14:00              71        0.0         32       24.4      176.0       24.4       24.0        6.6     1018.7       24.4       10.8        0.0        0.0        0.0       0.00       59.4       2.24       0.06       20.2
14:02              71        0.0         32       24.4      176.0       24.4       24.0        6.6     1018.7       24.4       10.8        0.0        0.0        0.0       0.00       59.5       2.24       0.09       20.2
14:04              65        0.0         33       24.4      176.0       24.4       24.1        7.1     1018.7       24.4       10.8        0.0        0.0        0.0       0.00       59.7       2.24       0.09       20.2
14:05              38        0.0         33       24.5      176.0       24.5       24.2        7.2     1018.6       24.5       10.8        0.0        0.0        0.0       0.00       59.9       2.24       0.09       20.2
14:08              39        0.0         32       24.6      176.0       24.6       24.2        6.8     1018.6       24.6       10.8        0.0        0.0        0.0       0.00       60.0       2.24       0.09       20.2
14:09              74        0.0         32       24.6      176.0       24.6       24.2        6.8     1018.6       24.6       10.8        0.0        0.0        0.0       0.00       60.3       2.24       0.09       20.2
14:12              94        0.0         32       24.7      176.0       24.7       24.3        6.9     1018.6       24.7       10.8        0.0        0.0        0.0       0.00       60.5       2.24       0.09       20.2
14:14              94        0.0         32       24.7      176.0       24.7       24.3        6.9     1018.5       24.7       10.8        0.0        0.0        0.0       0.00       60.6       2.24       0.09       20.2
14:16              84        0.0         32       24.8      176.0       24.8       24.5        7.0     1018.5       24.8       10.8        0.0        0.0        0.0       0.00       60.8       2.24       0.11       20.2
14:18              87        0.0         31       24.9      176.0       24.9       24.5        6.6     1018.4       24.9       10.8        0.0        0.0        0.0       0.00       61.0       2.24       0.11       20.2
14:20              87        0.0         32       25.0      176.0       25.0       24.6        7.2     1018.4       25.0       10.8        0.0        0.0        0.0       0.00       61.1       2.24       0.11       20.2
14:22              87        0.0         32       25.2      176.0       25.2       24.8        7.3     1018.3       25.2       10.8        0.0        0.0        0.0       0.00       61.2       2.24       0.11       20.2
14:24              55        0.0         31       25.2      176.0       25.2       24.8        6.9     1018.3       25.2       10.8        0.0        0.0        0.0       0.00       61.3       2.24       0.11       20.2
14:26              67        0.0         31       25.2      176.0       25.2       24.8        6.9     1018.3       25.2       10.8        0.0        0.0        0.0       0.00       61.5       2.24       0.11       20.2
14:28              57        0.0         31       25.2      176.0       25.2       24.8        6.9     1018.3       25.2       10.8        0.0        0.0        0.0       0.00       61.7       2.24       0.11       20.2
14:30              74        0.0         31       25.1      176.0       25.1       24.7        6.8     1018.2       25.2       10.8        0.0        0.0        0.0       0.00       62.0       2.24       0.11       20.2
14:32              37        0.0         31       25.1      176.0       25.1       24.6        6.8     1018.2       25.2       10.8        0.0        0.0        0.0       0.00       62.2       2.24       0.15       20.2
14:34              96        0.0         31       24.9      176.0       24.9       24.5        6.7     1018.3       25.2       10.8        0.0        0.0        0.0       0.00       62.5       2.24       0.15       20.2
14:36              67        0.0         31       24.9      176.0       24.9       24.5        6.7     1018.3       25.2       10.8        0.0        0.0        0.0       0.00       62.7       2.24       0.15       20.2
14:38              84        0.0         31       24.9      176.0       24.9       24.5        6.6     1018.2       25.2       10.8        0.0        0.0        0.0       0.00       62.9       2.24       0.15       20.2
14:40              78        0.0         31       24.9      176.0       24.9       24.5        6.6     1018.2       25.2       10.8        0.0        0.0        0.0       0.00       63.1       2.24       0.15       20.2
14:42              91        0.0         30       24.9      176.0       24.9       24.4        6.1     1018.2       25.2       10.8        0.0        0.0        0.0       0.00       63.4       2.24       0.15       20.2
14:44              65        0.0         30       24.9      176.0       24.9       24.4        6.1     1018.2       25.2       10.8        0.0        0.0        0.0       0.00       63.6       2.24       0.15       20.2
14:46              65        0.0         30       24.9      176.0       24.9       24.4        6.1     1018.2       25.2       10.8        0.0        0.0        0.0       0.00       63.8       2.24       0.18       20.2
14:48              47        0.0         31       24.9      176.0       24.9       24.5        6.6     1018.2       25.2       10.8        0.0        0.0        0.0       0.00       64.0       2.24       0.18       20.2
14:50              69        0.0         32       24.9      176.0       24.9       24.6        7.1     1018.3       25.2       10.8        0.0        0.0        0.0       0.00       64.2       2.24       0.18       20.2
14:52              67        0.0         32       24.9      176.0       24.9       24.6        7.1     1018.2       25.2       10.8        0.0        0.0        0.0       0.00       64.4       2.24       0.18       20.2
14:54              73        0.0         31       25.0      176.0       25.0       24.6        6.7     1018.3       25.2       10.8        0.0        0.0        0.0       0.00       64.6       2.24       0.18       20.2
14:56              69        0.0         31       25.1      176.0       25.1       24.6        6.8     1018.2       25.2       10.8        0.0        0.0        0.0       0.00       64.9       2.24       0.18       20.2
14:58              61        0.0         32       25.1      176.0       25.1       24.7        7.2     1018.2       25.2       10.8        0.0        0.0        0.0       0.00       65.0       2.24       0.18       20.2
15:00              59        0.0         33       25.0      176.0       25.0       24.7        7.6     1018.1       25.2       10.8        0.0        0.0        0.0       0.00       65.1       2.24       0.18       20.2
15:01              92        0.0         32       25.0      176.0       25.0       24.6        7.2     1018.1       25.2       10.8        0.0        0.0        0.0       0.00       65.3       2.24       0.21       20.2
15:04              79        0.0         32       25.0      176.0       25.0       24.6        7.2     1018.1       25.2       10.8        0.0        0.0        0.0       0.00       65.6       2.24       0.21       20.2
15:06              76        0.0         32       25.1      176.0       25.1       24.7        7.3     1018.1       25.2       10.8        0.0        0.0        0.0       0.00       65.7       2.24       0.21       20.2
15:08              71        0.0         32       25.2      176.0       25.2       24.8        7.4     1018.2       25.2       10.8        0.0        0.0        0.0       0.00       65.9       2.24       0.21       20.2
15:10              82        0.0         32       25.3      176.0       25.3       24.9        7.4     1018.1       25.3       10.8        0.0        0.0        0.0       0.00       66.2       2.24       0.21       20.2
15:12              92        0.0         32       25.3      176.0       25.3       25.0        7.5     1018.2       25.3       10.8        0.0        0.0        0.0       0.00       66.5       2.24       0.21       20.2
15:14              90        0.0         32       25.4      176.0       25.4       25.0        7.5     1018.2       25.4       10.8        0.0        0.0        0.0       0.00       66.7       2.24       0.21       20.2
15:16              62        0.0         32       25.4      176.0       25.4       25.0        7.5     1018.2       25.4       10.8        0.0        0.0        0.0       0.00       66.9       2.24       0.24       20.2
15:18              32        0.0         32       25.4      176.0       25.4       25.0        7.5     1018.2       25.4       10.8        0.0        0.0        0.0       0.00       67.1       2.24       0.24       20.2
15:20              43        0.0         32       25.3      176.0       25.3       24.9        7.4     1018.2       25.4       10.8        0.0        0.0        0.0       0.00       67.4       2.24       0.24       20.2
15:22              40        0.0         32       25.1      176.0       25.1       24.7        7.3     1018.2       25.4       10.8        0.0        0.0        0.0       0.00       67.6       2.24       0.24       20.2
15:24              73        0.0         32       25.1      176.0       25.1       24.7        7.2     1018.2       25.4       10.8        0.0        0.0        0.0       0.00       67.9       2.24       0.24       20.2
15:26              86        0.0         32       25.0      176.0       25.0       24.6        7.2     1018.0       25.4       10.8        0.0        0.0        0.0       0.00       68.1       2.24       0.24       20.2
15:28              67        0.0         33       25.1      176.0       25.1       24.7        7.7     1018.1       25.4       10.8        0.0        0.0        0.0       0.00       68.3       2.24       0.24       20.2
15:30              67        0.0         32       25.1      176.0       25.1       24.7        7.3     1018.1       25.4       10.8        0.0        0.0        0.0       0.00       68.4       2.24       0.24       20.2
15:32              67        0.0         32       25.2      176.0       25.2       24.8        7.3     1018.1       25.4       10.8        0.0        0.0        0.0       0.00       68.7       2.24       0.28       20.2
15:34              74        0.0         32       25.2      176.0       25.2       24.8        7.4     1018.1       25.4       10.8        0.0        0.0        0.0       0.00       68.9       2.24       0.28       20.2
15:36              71        0.0         32       25.2      176.0       25.2       24.8        7.4     1018.0       25.4       10.8        0.0        0.0        0.0       0.00       69.1       2.24       0.28       20.2
15:38              71        0.0         32       25.3      176.0       25.3       24.9        7.4     1018.0       25.4       10.8        0.0        0.0        0.0       0.00       69.3       2.24       0.28       20.2
15:40              72        0.0         32       25.3      176.0       25.3       25.0        7.5     1018.0       25.4       10.8        0.0        0.0        0.0       0.00       69.4       2.24       0.28       20.2
15:42              81        0.0         31       25.4      176.0       25.4       25.0        7.0     1018.0       25.4       10.8        0.0        0.0        0.0       0.00       69.6       2.24       0.28       20.2
15:44              67        0.0         31       25.4      176.0       25.4       25.0        7.0     1018.1       25.4       10.8        0.0        0.0        0.0       0.00       69.9       2.24       0.28       20.2
15:45              83        0.0         31       25.4      176.0       25.4       25.0        7.0     1018.1       25.4       10.8        0.0        0.0        0.0       0.00       70.1       2.24       0.31       20.2
15:48              73        0.0         32       25.3      176.0       25.3       25.0        7.5     1018.1       25.4       10.8        0.0        0.0        0.0       0.00       70.3       2.24       0.31       20.2
15:50              78        0.0         32       25.4      176.0       25.4       25.0        7.5     1018.0       25.4       10.8        0.0        0.0        0.0       0.00       70.5       2.24       0.31       20.2
15:51              78        0.0         32       25.4      176.0       25.4       25.0        7.5     1018.1       25.4       10.8        0.0        0.0        0.0       0.00       70.6       2.24       0.31       20.2
15:54              84        0.0         32       25.4      176.0       25.4       25.1        7.6     1018.1       25.4       10.8        0.0        0.0        0.0       0.00       70.9       2.24       0.31       20.2
15:56              86        0.0         31       25.5      176.0       25.5       25.1        7.1     1018.1       25.5       10.8        0.0        0.0        0.0       0.00       71.2       2.24       0.31       20.2
15:57              66        0.0         31       25.4      176.0       25.4       25.0        7.1     1018.1       25.5       10.8        0.0        0.0        0.0       0.00       71.5       2.24       0.31       20.2
16:00              95        0.0         32       25.4      176.0       25.4       25.0        7.5     1018.1       25.5       10.8        0.0        0.0        0.0       0.00       71.7       2.24       0.31       20.2
16:02              84        0.0         32       25.4      176.0       25.4       25.1        7.6     1018.1       25.5       10.8        0.0        0.0        0.0       0.00       71.9       2.24       0.35       20.2
16:03              74        0.0         31       25.4      176.0       25.4       25.0        7.1     1018.1       25.5       10.8        0.0        0.0        0.0       0.00       72.0       2.24       0.35       20.2
16:05              71        0.0         31       25.4      176.0       25.4       25.0        7.0     1018.1       25.5       10.8        0.0        0.0        0.0       0.00       72.3       2.24       0.35       20.2
16:08              83        0.0         32       25.4      176.0       25.4       25.0        7.5     1018.1       25.5       10.8        0.0        0.0        0.0       0.00       72.4       2.24       0.35       20.2
16:10              82        0.0         31       25.4      176.0       25.4       25.0        7.1     1018.1       25.5       10.8        0.0        0.0        0.0       0.00       72.6       2.24       0.35       20.2
16:12              74        0.0         31       25.4      176.0       25.4       25.0        7.1     1018.1       25.5       10.8        0.0        0.0        0.0       0.00       72.8       2.24       0.35       20.2
16:14              66        0.0         31       25.4      176.0       25.4       25.0        7.1     1018.1       25.5       10.8        0.0        0.0        0.0       0.00       73.0       2.24       0.35       20.2
16:16              69        0.0         31       25.4      176.0       25.4       25.0        7.0     1018.1       25.5       10.8        0.0        0.0        0.0       0.00       73.3       2.24       0.38       20.2
16:18              67        0.0         31       25.3      176.0       25.3       24.9        7.0     1018.1       25.5       10.8        0.0        0.0        0.0       0.00       73.5       2.24       0.38       20.2
16:20              46        0.0         32       25.3      176.0       25.3       25.0        7.5     1018.1       25.5       10.8        0.0        0.0        0.0       0.00       73.6       2.24       0.38       20.2
16:22              40        0.0         32       25.3      176.0       25.3       24.9        7.4     1018.1       25.5       10.8        0.0        0.0        0.0       0.00       73.8       2.24       0.38       20.2
16:24              43        0.0         32       25.2      176.0       25.2       24.8        7.3     1018.1       25.5       10.8        0.0        0.0        0.0       0.00       74.0       2.24       0.38       20.2
16:26              50        0.0         33       25.1      176.0       25.1       24.7        7.7     1018.1       25.5       10.8        0.0        0.0        0.0       0.00       74.2       2.24       0.38       20.2
16:28              12        0.0         33       24.9      176.0       24.9       24.6        7.6     1018.1       25.5       10.8        0.0        0.0        0.0       0.00       74.3       2.24       0.38       20.2
16:30              39        0.0         34       24.8      176.0       24.8       24.5        7.9     1018.0       25.5       10.8        0.0        0.0        0.0       0.00       74.5       2.24       0.38       20.2
16:32              74        0.0         33       24.8      176.0       24.8       24.4        7.4     1018.1       25.5       10.8        0.0        0.0        0.0       0.00       74.7       2.24       0.41       20.2
16:34              87        0.0         34       24.7      176.0       24.7       24.4        7.8     1018.0       25.5       10.8        0.0        0.0        0.0       0.00       75.0       2.24       0.41       20.2
16:36              80        0.0         34       24.8      176.0       24.8       24.5        7.9     1018.0       25.5       10.8        0.0        0.0        0.0       0.00       75.1       2.24       0.41       20.2
16:38              70        0.0         33       24.8      176.0       24.8       24.4        7.4     1018.0       25.5       10.8        0.0        0.0        0.0       0.00       75.3       2.24       0.41       20.2
16:40              70        0.0         34       24.8      176.0       24.8       24.5        7.9     1018.0       25.5       10.8        0.0        0.0        0.0       0.00       75.4       2.24       0.41       20.2
16:41              64        0.0         34       24.8      176.0       24.8       24.5        7.9     1018.0       25.5       10.8        0.0        0.0        0.0       0.00       75.7       2.24       0.41       20.2
16:44              76        0.0         34       24.8      176.0       24.8       24.5        7.9     1018.0       25.5       10.8        0.0        0.0        0.0       0.00       75.9       2.24       0.41       20.2
16:45              76        0.0         34       24.8      176.0       24.8       24.5        7.9     1018.0       25.5       10.8        0.0        0.0        0.0       0.00       76.0       2.24       0.44       20.2
16:48              86        0.0         34       24.8      176.0       24.8       24.5        7.9     1018.0       25.5       10.8        0.0        0.0        0.0       0.00       76.3       2.24       0.44       20.2
16:50              95        0.0         33       24.8      176.0       24.8       24.5        7.5     1018.1       25.5       10.8        0.0        0.0        0.0       0.00       76.5       2.24       0.44       20.2
16:52              87        0.0         33       24.8      176.0       24.8       24.5        7.5     1017.9       25.5       10.8        0.0        0.0        0.0       0.00       76.7       2.24       0.44       20.2
16:53              94        0.0         33       24.8      176.0       24.8       24.5        7.5     1018.0       25.5       10.8        0.0        0.0        0.0       0.00       76.9       2.24       0.44       20.2
16:56              90        0.0         33       24.9      176.0       24.9       24.6        7.5     1017.9       25.5       10.8        0.0        0.0        0.0       0.00       77.0       2.24       0.44       20.2
16:58              90        0.0         34       24.9      176.0       24.9       24.6        8.0     1017.9       25.5       10.8        0.0        0.0        0.0       0.00       77.2       2.24       0.44       20.2
17:00              84        0.0         34       25.0      176.0       25.0       24.7        8.1     1017.9       25.5       10.8        0.0        0.0        0.0       0.00       77.3       2.24       0.44       20.2
17:02              90        0.0         33       25.0      176.0       25.0       24.7        7.6     1017.9       25.5       10.8        0.0        0.0        0.0       0.00       77.5       2.24       0.47       20.2
17:04              88        0.0         33       25.1      176.0       25.1       24.7        7.7     1017.9       25.5       10.8        0.0        0.0        0.0       0.00       77.6       2.24       0.47       20.2
17:05              88        0.0         33       25.1      176.0       25.1       24.7        7.7     1017.8       25.5       10.8        0.0        0.0        0.0       0.00       77.7       2.24       0.47       20.2
17:08              88        0.0         34       25.1      176.0       25.1       24.8        8.2     1017.9       25.5       10.8        0.0        0.0        0.0       0.00       77.9       2.24       0.47       20.2
17:10              96        0.0         34       25.1      176.0       25.1       24.8        8.2     1017.8       25.5       10.8        0.0        0.0        0.0       0.00       78.1       2.24       0.47       20.2
17:12              96        0.0         33       25.1      176.0       25.1       24.7        7.7     1017.9       25.5       10.8        0.0        0.0        0.0       0.00       78.3       2.24       0.47       20.2
17:14              96        0.0         33       25.0      176.0       25.0       24.7        7.6     1017.8       25.5       10.8        0.0        0.0        0.0       0.00       78.4       2.24       0.47       20.2
17:16              95        0.0         33       24.9      176.0       24.9       24.6        7.6     1017.8       25.5       10.8        0.0        0.0        0.0       0.00       78.5       2.24       0.50       20.2
17:18              81        0.0         33       24.9      176.0       24.9       24.6        7.5     1017.9       25.5       10.8        0.0        0.0        0.0       0.00       78.7       2.24       0.50       20.2
17:19              56        0.0         33       24.8      176.0       24.8       24.4        7.4     1017.9       25.5       10.8        0.0        0.0        0.0       0.00       79.0       2.24       0.50       20.2
17:22              57        0.0         33       24.7      176.0       24.7       24.3        7.3     1017.9       25.5       10.8        0.0        0.0        0.0       0.00       79.1       2.24       0.50       20.2
17:24              57        0.0         33       24.6      176.0       24.6       24.2        7.2     1017.9       25.5       10.8        0.0        0.0        0.0       0.00       79.2       2.24       0.50       20.2
17:25              64        0.0         33       24.6      176.0       24.6       24.2        7.2     1017.8       25.5       10.8        0.0        0.0        0.0       0.00       79.3       2.24       0.50       20.2
17:28              86        0.0         34       24.5      176.0       24.5       24.2        7.6     1017.9       25.5       10.8        0.0        0.0        0.0       0.00       79.5       2.24       0.50       20.2
17:30              90        0.0         34       24.4      176.0       24.4       24.1        7.5     1017.8       25.5       10.8        0.0        0.0        0.0       0.00       79.6       2.24       0.50       20.2
17:32              90        0.0         34       24.3      176.0       24.3       24.0        7.5     1017.9       25.5       10.8        0.0        0.0        0.0       0.00       79.7       2.24       0.53       20.2
17:34              93        0.0         34       24.3      176.0       24.3       24.0        7.4     1017.9       25.5       10.8        0.0        0.0        0.0       0.00       79.8       2.24       0.53       20.2
17:36              93        0.0         34       24.2      176.0       24.2       23.9        7.4     1017.8       25.5       10.8        0.0        0.0        0.0       0.00       79.9       2.24       0.53       20.2
17:37              95        0.0         34       24.2      176.0       24.2       23.9        7.3     1017.8       25.5       10.8        0.0        0.0        0.0       0.00       80.0       2.24       0.53       20.2
17:40              94        0.0         35       24.1      176.0       24.1       23.9        7.7     1017.9       25.5       10.8        0.0        0.0        0.0       0.00       80.2       2.24       0.53       20.2
17:42              94        0.0         35       24.1      176.0       24.1       23.8        7.7     1017.9       25.5       10.8        0.0        0.0        0.0       0.00       80.3       2.24       0.53       20.2
17:44              94        0.0         35       23.9      176.0       23.9       23.7        7.6     1017.8       25.5       10.8        0.0        0.0        0.0       0.00       80.4       2.24       0.53       20.2
17:46              93        0.0         34       23.9      176.0       23.9       23.6        7.1     1017.9       25.5       10.8        0.0        0.0        0.0       0.00       80.5       2.24       0.55       20.2
17:48              93        0.0         35       23.8      176.0       23.8       23.6        7.5     1017.9       25.5       10.8        0.0        0.0        0.0       0.00       80.6       2.24       0.55       20.2
17:50              97        0.0         35       23.8      176.0       23.8       23.5        7.4     1017.8       25.5       10.8        0.0        0.0        0.0       0.00       80.7       2.24       0.55       20.2
17:52              97        0.0         35       23.7      176.0       23.7       23.5        7.4     1017.9       25.5       10.8        0.0        0.0        0.0       0.00       80.8       2.24       0.55       20.2
17:54              98        0.0         35       23.7      176.0       23.7       23.5        7.4     1017.9       25.5       10.8        0.0        0.0        0.0       0.00       80.9       2.24       0.55       20.2
17:56              98        0.0         35       23.7      176.0       23.7       23.5        7.4     1017.8       25.5       10.8        0.0        0.0        0.0       0.00       81.1       2.24       0.55       20.2
17:58              98        0.0         35       23.7      176.0       23.7       23.5        7.4     1017.9       25.5       10.8        0.0        0.0        0.0       0.00       81.2       2.24       0.55       20.2
18:00              98        0.0         35       23.7      176.0       23.7       23.4        7.3     1017.8       25.5       10.8        0.0        0.0        0.0       0.00       81.3       2.24       0.55       20.2
18:02              98        0.0         35       23.6      176.0       23.6       23.4        7.3     1017.9       25.5       10.8        0.0        0.0        0.0       0.00       81.3       2.24       0.57       20.2
18:04              98        0.0         36       23.5      176.0       23.5       23.3        7.6     1017.9       25.5       10.8        0.0        0.0        0.0       0.00       81.4       2.24       0.57       20.2
18:06              98        0.0         36       23.4      176.0       23.4       23.2        7.5     1017.9       25.5       10.8        0.0        0.0        0.0       0.00       81.5       2.24       0.57       20.2
18:08             101        0.0         36       23.4      176.0       23.4       23.2        7.5     1017.9       25.5       10.8        0.0        0.0        0.0       0.00       81.6       2.24       0.57       20.2
18:09             101        0.0         37       23.3      176.0       23.3       23.2        7.8     1017.9       25.5       10.8        0.0        0.0        0.0       0.00       81.7       2.24       0.57       20.2
18:12             101        0.0         37       23.3      176.0       23.3       23.1        7.8     1017.9       25.5       10.8        0.0        0.0        0.0       0.00       81.8       2.24       0.57       20.2
18:14             102        0.0         37       23.2      176.0       23.2       23.1        7.7     1018.0       25.5       10.8        0.0        0.0        0.0       0.00       81.8       2.24       0.57       20.2
18:15             101        0.0         37       23.2      176.0       23.2       23.1        7.7     1018.0       25.5       10.8        0.0        0.0        0.0       0.00       81.9       2.24       0.58       20.2
18:18             101        0.0         38       23.2      176.0       23.2       23.0        8.1     1018.1       25.5       10.8        0.0        0.0        0.0       0.00       82.0       2.24       0.58       20.2
18:20             101        0.0         38       23.1      176.0       23.1       23.0        8.0     1018.0       25.5       10.8        0.0        0.0        0.0       0.00       82.0       2.24       0.58       20.2
18:21             101        0.0         38       23.1      176.0       23.1       22.9        8.0     1018.1       25.5       10.8        0.0        0.0        0.0       0.00       82.1       2.24       0.58       20.2
18:24             101        0.0         37       23.0      176.0       23.0       22.8        7.5     1018.2       25.5       10.8        0.0        0.0        0.0       0.00       82.1       2.24       0.58       20.2
18:26             101        0.0         37       22.9      176.0       22.9       22.7        7.4     1018.2       25.5       10.8        0.0        0.0        0.0       0.00       82.2       2.24       0.58       20.2
18:27             101        0.0         37       22.8      176.0       22.8       22.7        7.4     1018.2       25.5       10.8        0.0        0.0        0.0       0.00       82.2       2.24       0.58       20.2
18:30             101        0.0         38       22.7      176.0       22.7       22.6        7.7     1018.3       25.5       10.8        0.0        0.0        0.0       0.00       82.2       2.24       0.58       20.2
18:32             101        0.0         38       22.7      176.0       22.7       22.5        7.6     1018.3       25.5       10.8        0.0        0.0        0.0       0.00       82.2       2.24       0.59       20.2
18:33             101        0.0         39       22.6      176.0       22.6       22.5        7.9     1018.3       25.5       10.8        0.0        0.0        0.0       0.00       82.2       2.24       0.59       20.2
18:36             101        0.0         39       22.4      176.0       22.4       22.4        7.8     1018.3       25.5       10.8        0.0        0.0        0.0       0.00       82.2       2.24       0.59       20.2
18:38             102        0.0         39       22.3      176.0       22.3       22.2        7.7     1018.3       25.5       10.8        0.0        0.0        0.0       0.00       82.2       2.24       0.59       20.2
18:39             102        0.0         40       22.2      176.0       22.2       22.2        8.0     1018.3       25.5       10.8        0.0        0.0        0.0       0.00       82.2       2.24       0.59       20.2
18:42             101        0.0         40       22.2      176.0       22.2       22.1        7.9     1018.4       25.5       10.8        0.0        0.0        0.0       0.00       82.2       2.24       0.59       20.2
18:44             101        0.0         39       22.1      176.0       22.1       22.0        7.5     1018.5       25.5       10.8        0.0        0.0        0.0       0.00       82.2       2.24       0.59       20.2
18:45             101        0.0         39       22.0      176.0       22.0       21.9        7.4     1018.5       25.5       10.8        0.0        0.0        0.0       0.00       82.2       2.24       0.59       20.2
18:48             101        0.0         39       21.9      176.0       21.9       21.8        7.3     1018.5       25.5       10.8        0.0        0.0        0.0       0.00       82.2       2.24       0.59       20.2
18:50             101        0.0         39       21.8      176.0       21.8       21.7        7.3     1018.5       25.5       10.8        0.0        0.0        0.0       0.00       82.2       2.24       0.59       20.2
18:52             101        0.0         41       21.8      176.0       21.8       21.8        8.0     1018.5       25.5       10.8        0.0        0.0        0.0       0.00       82.2       2.24       0.59       20.2
18:54             101        0.0         40       21.7      176.0       21.7       21.7        7.5     1018.5       25.5       10.8        0.0        0.0        0.0       0.00       82.3       2.24       0.59       20.2
18:56             101        0.0         40       21.7      176.0       21.7       21.6        7.5     1018.5       25.5       10.8        0.0        0.0        0.0       0.00       82.3       2.24       0.59       20.2
18:58             101        0.0         40       21.6      176.0       21.6       21.5        7.4     1018.6       25.5       10.8        0.0        0.0        0.0       0.00       82.3       2.24       0.59       20.2
19:00             101        0.0         41       21.5      176.0       21.5       21.5        7.7     1018.6       25.5       10.8        0.0        0.0        0.0       0.00       82.3       2.24       0.59       20.2
19:02             101        0.0         41       21.4      176.0       21.4       21.4        7.6     1018.6       25.5       10.8        0.0        0.0        0.0       0.00       82.3       2.24       0.59       20.2
19:04             101        0.0         41       21.3      176.0       21.3       21.3        7.6     1018.7       25.5       10.8        0.0        0.0        0.0       0.00       82.3       2.24       0.59       20.2
19:06             101        0.0         41       21.2      176.0       21.2       21.2        7.5     1018.5       25.5       10.8        0.0        0.0        0.0       0.00       82.3       2.24       0.59       20.2
19:07             101        0.0         41       21.2      176.0       21.2       21.2        7.4     1018.5       25.5       10.8        0.0        0.0        0.0       0.00       82.4       2.24       0.59       20.2
19:10             101        0.0         41       21.1      176.0       21.1       21.1        7.4     1018.4       25.5       10.8        0.0        0.0        0.0       0.00       82.4       2.24       0.59       20.2
19:11             101        0.0         41       21.1      176.0       21.1       21.1        7.3     1018.7       25.5       10.8        0.0        0.0        0.0       0.00       82.4       2.24       0.59       20.2
19:14             101        0.0         41       21.0      176.0       21.0       21.0        7.3     1018.7       25.5       10.8        0.0        0.0        0.0       0.00       82.5       2.24       0.59       20.2
19:16             101        0.0         42       20.9      176.0       20.9       21.0        7.6     1018.7       25.5       10.8        0.0        0.0        0.0       0.00       82.5       2.24       0.59       20.2
19:18             101        0.0         43       20.8      176.0       20.8       20.9        7.8     1018.8       25.5       10.8        0.0        0.0        0.0       0.00       82.5       2.24       0.59       20.2
19:20             101        0.0         42       20.8      176.0       20.8       20.8        7.4     1018.7       25.5       10.8        0.0        0.0        0.0       0.00       82.5       2.24       0.59       20.2
19:22             102        0.0         42       20.7      176.0       20.7       20.8        7.4     1018.8       25.5       10.8        0.0        0.0        0.0       0.00       82.6       2.24       0.59       20.2
19:23             101        0.0         42       20.7      176.0       20.7       20.7        7.3     1018.8       25.5       10.8        0.0        0.0        0.0       0.00       82.6       2.24       0.59       20.2
19:26             101        0.0         43       20.6      176.0       20.6       20.7        7.6     1018.9       25.5       10.8        0.0        0.0        0.0       0.00       82.6       2.24       0.59       20.2
19:28             101        0.0         42       20.6      176.0       20.6       20.6        7.2     1018.8       25.5       10.8        0.0        0.0        0.0       0.00       82.7       2.24       0.59       20.2
19:30             101        0.0         42       20.5      176.0       20.5       20.6        7.2     1018.8       25.5       10.8        0.0        0.0        0.0       0.00       82.7       2.24       0.59       20.2
19:32             101        0.0         42       20.5      176.0       20.5       20.6        7.2     1018.9       25.5       10.8        0.0        0.0        0.0       0.00       82.8       2.24       0.59       20.2
19:34             101        0.0         42       20.4      176.0       20.4       20.5        7.1     1018.9       25.5       10.8        0.0        0.0        0.0       0.00       82.8       2.24       0.59       20.2
19:35             101        0.0         43       20.4      176.0       20.4       20.5        7.4     1018.9       25.5       10.8        0.0        0.0        0.0       0.00       82.8       2.24       0.59       20.2
19:38             101        0.0         43       20.3      176.0       20.3       20.4        7.4     1018.9       25.5       10.8        0.0        0.0        0.0       0.00       82.8       2.24       0.59       20.2
19:40             101        0.0         43       20.3      176.0       20.3       20.4        7.3     1019.0       25.5       10.8        0.0        0.0        0.0       0.00       82.9       2.24       0.59       20.2
19:42             101        0.0         43       20.2      176.0       20.2       20.3        7.3     1019.0       25.5       10.8        0.0        0.0        0.0       0.00       82.9       2.24       0.59       20.2
19:44             101        0.0         43       20.2      176.0       20.2       20.3        7.3     1019.0       25.5       10.8        0.0        0.0        0.0       0.00       83.0       2.24       0.59       20.2
19:46             102        0.0         43       20.2      176.0       20.2       20.3        7.2     1019.1       25.5       10.8        0.0        0.0        0.0       0.00       83.0       2.24       0.59       20.2
19:48             101        0.0         44       20.1      176.0       20.1       20.3        7.5     1019.0       25.5       10.8        0.0        0.0        0.0       0.00       83.1       2.24       0.59       20.2
19:50             101        0.0         44       20.1      176.0       20.1       20.2        7.4     1019.1       25.5       10.8        0.0        0.0        0.0       0.00       83.1       2.24       0.59       20.2
19:52             101        0.0         44       20.0      176.0       20.0       20.1        7.4     1019.1       25.5       10.8        0.0        0.0        0.0       0.00       83.2       2.24       0.59       20.2
19:54             101        0.0         44       19.9      176.0       19.9       20.1        7.3     1019.2       25.5       10.8        0.0        0.0        0.0       0.00       83.2       2.24       0.59       20.2
19:55             101        0.0         44       19.9      176.0       19.9       20.1        7.3     1019.1       25.5       10.8        0.0        0.0        0.0       0.00       83.2       2.24       0.59       20.2
19:58             101        0.0         44       19.9      176.0       19.9       20.0        7.3     1019.1       25.5       10.8        0.0        0.0        0.0       0.00       83.3       2.24       0.59       20.2
20:00             101        0.0         44       19.8      176.0       19.8       20.0        7.2     1019.1       25.5       10.8        0.0        0.0        0.0       0.00       83.4       2.24       0.59       20.2
20:01             101        0.0         45       19.7      176.0       19.7       19.9        7.5     1019.1       25.5       10.8        0.0        0.0        0.0       0.00       83.4       2.24       0.59       20.2
20:04             101        0.0         45       19.7      176.0       19.7       19.9        7.4     1019.1       25.5       10.8        0.0        0.0        0.0       0.00       83.4       2.24       0.59       20.2
20:06             101        0.0         45       19.6      176.0       19.6       19.8        7.4     1019.2       25.5       10.8        0.0        0.0        0.0       0.00       83.5       2.24       0.59       20.2
20:07             101        0.0         46       19.6      176.0       19.6       19.8        7.6     1019.2       25.5       10.8        0.0        0.0        0.0       0.00       83.5       2.24       0.59       20.2
20:10             101        0.0         46       19.5      176.0       19.5       19.7        7.6     1019.2       25.5       10.8        0.0        0.0        0.0       0.00       83.5       2.24       0.59       20.2
20:12             101        0.0         46       19.4      176.0       19.4       19.7        7.5     1019.2       25.5       10.8        0.0        0.0        0.0       0.00       83.5       2.24       0.59       20.2
20:13             101        0.0         46       19.4      176.0       19.4       19.6        7.5     1019.2       25.5       10.8        0.0        0.0        0.0       0.00       83.5       2.24       0.59       20.2
20:16             101        0.0         46       19.3      176.0       19.3       19.5        7.4     1019.3       25.5       10.8        0.0        0.0        0.0       0.00       83.5       2.24       0.59       20.2
20:18             102        0.0         46       19.2      176.0       19.2       19.5        7.3     1019.2       25.5       10.8        0.0        0.0        0.0       0.00       83.5       2.24       0.59       20.2
20:20             101        0.0         47       19.2      176.0       19.2       19.5        7.6     1019.3       25.5       10.8        0.0        0.0        0.0       0.00       83.5       2.24       0.59       20.2
20:22             101        0.0         47       19.1      176.0       19.1       19.3        7.5     1019.3       25.5       10.8        0.0        0.0        0.0       0.00       83.5       2.24       0.59       20.2
20:24             101        0.0         47       19.0      176.0       19.0       19.3        7.4     1019.4       25.5       10.8        0.0        0.0        0.0       0.00       83.5       2.24       0.59       20.2
20:26             101        0.0         48       18.9      176.0       18.9       19.3        7.7     1019.4       25.5       10.8        0.0        0.0        0.0       0.00       83.5       2.24       0.59       20.2
20:28             101        0.0         48       18.8      176.0       18.8       19.2        7.6     1019.4       25.5       10.8        0.0        0.0        0.0       0.00       83.5       2.24       0.59       20.2
20:30             101        0.0         48       18.8      176.0       18.8       19.1        7.5     1019.5       25.5       10.8        0.0        0.0        0.0       0.00       83.5       2.24       0.59       20.2
20:31             101        0.0         48       18.7      176.0       18.7       19.1        7.5     1019.5       25.5       10.8        0.0        0.0        0.0       0.00       83.6       2.24       0.59       20.2
20:34             101        0.0         48       18.6      176.0       18.6       19.0        7.4     1019.5       25.5       10.8        0.0        0.0        0.0       0.00       83.6       2.24       0.59       20.2
20:36             101        0.0         49       18.6      176.0       18.6       18.9        7.6     1019.4       25.5       10.8        0.0        0.0        0.0       0.00       83.7       2.24       0.59       20.2
20:37             101        0.0         49       18.5      176.0       18.5       18.9        7.6     1019.4       25.5       10.8        0.0        0.0        0.0       0.00       83.7       2.24       0.59       20.2
20:39             101        0.0         49       18.4      176.0       18.4       18.8        7.5     1019.5       25.5       10.8        0.0        0.0        0.0       0.00       83.7       2.24       0.59       20.2
20:42             101        0.0         49       18.3      176.0       18.3       18.7        7.4     1019.5       25.5       10.8        0.0        0.0        0.0       0.00       83.8       2.24       0.59       20.2
20:43             101        0.0         50       18.3      176.0       18.3       18.7        7.7     1019.6       25.5       10.8        0.0        0.0        0.0       0.00       83.8       2.24       0.59       20.2
20:46             101        0.0         50       18.2      176.0       18.2       18.7        7.6     1019.6       25.5       10.8        0.0        0.0        0.0       0.00       83.9       2.24       0.59       20.2
20:48             101        0.0         50       18.2      176.0       18.2       18.6        7.6     1019.7       25.5       10.8        0.0        0.0        0.0       0.00       83.9       2.24       0.59       20.2
20:49             101        0.0         51       18.1      176.0       18.1       18.6        7.8     1019.6       25.5       10.8        0.0        0.0        0.0       0.00       84.0       2.24       0.59       20.2
20:51             101        0.0         51       18.1      176.0       18.1       18.6        7.8     1019.6       25.5       10.8        0.0        0.0        0.0       0.00       84.0       2.24       0.59       20.2
20:54             101        0.0         51       18.0      176.0       18.0       18.5        7.7     1019.7       25.5       10.8        0.0        0.0        0.0       0.00       84.0       2.24       0.59       20.2
20:56             101        0.0         52       17.9      176.0       17.9       18.5        8.0     1019.7       25.5       10.8        0.0        0.0        0.0       0.00       84.0       2.24       0.59       20.2
20:57             101        0.0         52       17.9      176.0       17.9       18.5        8.0     1019.7       25.5       10.8        0.0        0.0        0.0       0.00       84.1       2.24       0.59       20.2
21:00             101        0.0         53       17.9      176.0       17.9       18.6        8.2     1019.8       25.5       10.8        0.0        0.0        0.0       0.00       84.1       2.24       0.59       20.2
21:02             101        0.0         53       17.9      176.0       17.9       18.6        8.2     1019.7       25.5       10.8        0.0        0.0        0.0       0.00       84.2       2.24       0.59       20.2
21:03             101        0.0         53       17.9      176.0       17.9       18.5        8.2     1019.7       25.5       10.8        0.0        0.0        0.0       0.00       84.2       2.24       0.59       20.2
21:06             101        0.0         53       17.9      176.0       17.9       18.6        8.2     1019.7       25.5       10.8        0.0        0.0        0.0       0.00       84.2       2.24       0.59       20.2
21:08             101        0.0         53       17.9      176.0       17.9       18.5        8.2     1019.8       25.5       10.8        0.0        0.0        0.0       0.00       84.2       2.24       0.59       20.2
21:09             101        0.0         53       17.9      176.0       17.9       18.5        8.2     1019.9       25.5       10.8        0.0        0.0        0.0       0.00       84.2       2.24       0.59       20.2
21:12             101        0.0         53       17.8      176.0       17.8       18.4        8.1     1019.9       25.5       10.8        0.0        0.0        0.0       0.00       84.2       2.24       0.59       20.2
21:14             101        0.0         53       17.8      176.0       17.8       18.4        8.1     1019.9       25.5       10.8        0.0        0.0        0.0       0.00       84.2       2.24       0.59       20.2
21:16             101        0.0         53       17.8      176.0       17.8       18.4        8.1     1020.0       25.5       10.8        0.0        0.0        0.0       0.00       84.2       2.24       0.59       20.2
21:18             101        0.0         53       17.8      176.0       17.8       18.4        8.1     1019.9       25.5       10.8        0.0        0.0        0.0       0.00       84.2       2.24       0.59       20.2
21:20             101        0.0         54       17.7      176.0       17.7       18.4        8.3     1020.0       25.5       10.8        0.0        0.0        0.0       0.00       84.3       2.24       0.59       20.2
21:22             101        0.0         54       17.7      176.0       17.7       18.3        8.3     1020.0       25.5       10.8        0.0        0.0        0.0       0.00       84.3       2.24       0.59       20.2
21:24             101        0.0         54       17.7      176.0       17.7       18.3        8.3     1020.0       25.5       10.8        0.0        0.0        0.0       0.00       84.4       2.24       0.59       20.2
21:26             101        0.0         54       17.6      176.0       17.6       18.3        8.2     1020.0       25.5       10.8        0.0        0.0        0.0       0.00       84.4       2.24       0.59       20.2
21:27             102        0.0         54       17.6      176.0       17.6       18.3        8.2     1020.0       25.5       10.8        0.0        0.0        0.0       0.00       84.4       2.24       0.59       20.2
21:30             101        0.0         54       17.6      176.0       17.6       18.2        8.1     1020.0       25.5       10.8        0.0        0.0        0.0       0.00       84.5       2.24       0.59       20.2
21:32             101        0.0         54       17.5      176.0       17.5       18.2        8.1     1020.1       25.5       10.8        0.0        0.0        0.0       0.00       84.5       2.24       0.59       20.2
21:34             101        0.0         54       17.5      176.0       17.5       18.2        8.1     1020.1       25.5       10.8        0.0        0.0        0.0       0.00       84.5       2.24       0.59       20.2
21:35             101        0.0         55       17.5      176.0       17.5       18.2        8.4     1020.0       25.5       10.8        0.0        0.0        0.0       0.00       84.5       2.24       0.59       20.2
21:38             102        0.0         54       17.4      176.0       17.4       18.1        8.0     1020.0       25.5       10.8        0.0        0.0        0.0       0.00       84.5       2.24       0.59       20.2
21:40             102        0.0         54       17.4      176.0       17.4       18.0        8.0     1020.1       25.5       10.8        0.0        0.0        0.0       0.00       84.5       2.24       0.59       20.2
21:42             101        0.0         54       17.4      176.0       17.4       18.0        8.0     1020.1       25.5       10.8        0.0        0.0        0.0       0.00       84.5       2.24       0.59       20.2
21:44             101        0.0         54       17.3      176.0       17.3       18.0        7.9     1020.2       25.5       10.8        0.0        0.0        0.0       0.00       84.5       2.24       0.59       20.2
21:46             101        0.0         54       17.3      176.0       17.3       17.9        7.9     1020.1       25.5       10.8        0.0        0.0        0.0       0.00       84.5       2.25       0.59       20.2
21:48             101        0.0         54       17.3      176.0       17.3       17.9        7.9     1020.1       25.5       10.8        0.0        0.0        0.0       0.00       84.5       2.25       0.59       20.2
21:50             101        0.0         54       17.2      176.0       17.2       17.9        7.8     1020.1       25.5       10.8        0.0        0.0        0.0       0.00       84.5       2.25       0.59       20.2
21:51             101        0.0         54       17.2      176.0       17.2       17.9        7.8     1020.1       25.5       10.8        0.0        0.0        0.0       0.00       84.5       2.25       0.59       20.2
21:53             101        0.0         53       17.2      176.0       17.2       17.8        7.5     1020.1       25.5       10.8        0.0        0.0        0.0       0.00       84.5       2.25       0.59       20.2
21:55             101        0.0         53       17.1      176.0       17.1       17.7        7.5     1020.2       25.5       10.8        0.0        0.0        0.0       0.00       84.5       2.25       0.59       20.2
21:58             101        0.0         54       17.1      176.0       17.1       17.8        7.7     1020.2       25.5       10.8        0.0        0.0        0.0       0.00       84.5       2.25       0.59       20.2
22:00             101        0.0         54       17.1      176.0       17.1       17.7        7.7     1020.2       25.5       10.8        0.0        0.0        0.0       0.00       84.5       2.25       0.59       20.2
22:02             101        0.0         53       17.0      176.0       17.0       17.6        7.4     1020.2       25.5       10.8        0.0        0.0        0.0       0.00       84.5       2.26       0.59       20.2
22:04             101        0.0         54       17.0      176.0       17.0       17.7        7.6     1020.2       25.5       10.8        0.0        0.0        0.0       0.00       84.5       2.26       0.59       20.2
22:06             101        0.0         54       16.9      176.0       16.9       17.6        7.6     1020.2       25.5       10.8        0.0        0.0        0.0       0.00       84.5       2.26       0.59       20.2
22:08             101        0.0         54       16.9      176.0       16.9       17.5        7.5     1020.3       25.5       10.8        0.0        0.0        0.0       0.00       84.5       2.26       0.59       20.2
22:10             101        0.0         53       16.9      176.0       16.9       17.5        7.3     1020.2       25.5       10.8        0.0        0.0        0.0       0.00       84.5       2.26       0.59       20.2
22:12             102        0.0         53       16.8      176.0       16.8       17.4        7.2     1020.2       25.5       10.8        0.0        0.0        0.0       0.00       84.5       2.26       0.59       20.2
22:14             101        0.0         53       16.8      176.0       16.8       17.4        7.2     1020.2       25.5       10.8        0.0        0.0        0.0       0.00       84.5       2.26       0.59       20.2
22:16             101        0.0         54       16.8      176.0       16.8       17.4        7.4     1020.3       25.5       10.8        0.0        0.0        0.0       0.00       84.5       2.27       0.59       20.2
22:18             101        0.0         54       16.7      176.0       16.7       17.4        7.4     1020.3       25.5       10.8        0.0        0.0        0.0       0.00       84.5       2.27       0.59       20.2
22:20             101        0.0         54       16.7      176.0       16.7       17.4        7.4     1020.4       25.5       10.8        0.0        0.0        0.0       0.00       84.5       2.27       0.59       20.2
22:22             101        0.0         54       16.7      176.0       16.7       17.3        7.3     1020.4       25.5       10.8        0.0        0.0        0.0       0.00       84.6       2.27       0.59       20.2
22:24             101        0.0         54       16.7      176.0       16.7       17.3        7.3     1020.4       25.5       10.8        0.0        0.0        0.0       0.00       84.6       2.27       0.59       20.2
22:25             101        0.0         54       16.6      176.0       16.6       17.3        7.3     1020.4       25.5       10.8        0.0        0.0        0.0       0.00       84.6       2.27       0.59       20.2
22:28             101        0.0         54       16.6      176.0       16.6       17.3        7.3     1020.4       25.5       10.8        0.0        0.0        0.0       0.00       84.6       2.27       0.59       20.2
22:30             101        0.0         54       16.6      176.0       16.6       17.2        7.2     1020.4       25.5       10.8        0.0        0.0        0.0       0.00       84.6       2.27       0.59       20.2
22:31             101        0.0         54       16.6      176.0       16.6       17.2        7.2     1020.5       25.5       10.8        0.0        0.0        0.0       0.00       84.6       2.29       0.59       20.2
22:34             101        0.0         54       16.5      176.0       16.5       17.2        7.2     1020.4       25.5       10.8        0.0        0.0        0.0       0.00       84.6       2.29       0.59       20.2
22:36             101        0.0         54       16.5      176.0       16.5       17.2        7.2     1020.4       25.5       10.8        0.0        0.0        0.0       0.00       84.6       2.29       0.59       20.2
22:37             102        0.0         55       16.4      176.0       16.4       17.2        7.4     1020.5       25.5       10.8        0.0        0.0        0.0       0.00       84.6       2.29       0.59       20.2
22:40             101        0.0         55       16.4      176.0       16.4       17.1        7.3     1020.5       25.5       10.8        0.0        0.0        0.0       0.00       84.6       2.29       0.59       20.2
22:42             101        0.0         55       16.4      176.0       16.4       17.1        7.3     1020.6       25.5       10.8        0.0        0.0        0.0       0.00       84.6       2.29       0.59       20.2
22:43             102        0.0         55       16.3      176.0       16.3       17.0        7.3     1020.5       25.5       10.8        0.0        0.0        0.0       0.00       84.6       2.29       0.59       20.2
22:46             101        0.0         56       16.3      176.0       16.3       17.1        7.5     1020.5       25.5       10.8        0.0        0.0        0.0       0.00       84.6       2.30       0.59       20.2
22:48             101        0.0         56       16.3      176.0       16.3       17.1        7.5     1020.4       25.5       10.8        0.0        0.0        0.0       0.00       84.7       2.30       0.59       20.2
22:50             101        0.0         56       16.3      176.0       16.3       17.1        7.5     1020.5       25.5       10.8        0.0        0.0        0.0       0.00       84.7       2.30       0.59       20.2
22:52             101        0.0         57       16.2      176.0       16.2       17.1        7.7     1020.5       25.5       10.8        0.0        0.0        0.0       0.00       84.7       2.30       0.59       20.2
22:54             101        0.0         57       16.2      176.0       16.2       17.0        7.6     1020.5       25.5       10.8        0.0        0.0        0.0       0.00       84.8       2.30       0.59       20.2
22:56             101        0.0         57       16.1      176.0       16.1       16.9        7.6     1020.5       25.5       10.8        0.0        0.0        0.0       0.00       84.8       2.30       0.59       20.2
22:58             102        0.0         57       16.1      176.0       16.1       16.9        7.5     1020.5       25.5       10.8        0.0        0.0        0.0       0.00       84.9       2.30       0.59       20.2
23:00             101        0.0         57       16.0      176.0       16.0       16.8        7.5     1020.5       25.5       10.8        0.0        0.0        0.0       0.00       84.9       2.30       0.59       20.2
23:02             101        0.0         57       16.0      176.0       16.0       16.8        7.5     1020.5       25.5       10.8        0.0        0.0        0.0       0.00       84.9       2.33       0.59       20.2
23:04             101        0.0         57       15.9      176.0       15.9       16.8        7.4     1020.5       25.5       10.8        0.0        0.0        0.0       0.00       84.9       2.33       0.59       20.2
23:06             101        0.0         57       15.9      176.0       15.9       16.7        7.4     1020.4       25.5       10.8        0.0        0.0        0.0       0.00       85.0       2.33       0.59       20.2
23:08             101        0.0         58       15.8      176.0       15.8       16.7        7.6     1020.4       25.5       10.8        0.0        0.0        0.0       0.00       85.0       2.33       0.59       20.2
23:09             101        0.0         58       15.8      176.0       15.8       16.7        7.6     1020.4       25.5       10.8        0.0        0.0        0.0       0.00       85.0       2.33       0.59       20.2
23:12             101        0.0         57       15.8      176.0       15.8       16.6        7.3     1020.5       25.5       10.8        0.0        0.0        0.0       0.00       85.0       2.33       0.59       20.2
23:14             101        0.0         57       15.8      176.0       15.8       16.6        7.3     1020.4       25.5       10.8        0.0        0.0        0.0       0.00       85.0       2.33       0.59       20.2
23:16             102        0.0         58       15.7      176.0       15.7       16.6        7.5     1020.3       25.5       10.8        0.0        0.0        0.0       0.00       85.0       2.35       0.59       20.2
23:18             101        0.0         58       15.7      176.0       15.7       16.6        7.4     1020.4       25.5       10.8        0.0        0.0        0.0       0.00       85.0       2.35       0.59       20.2
23:20             101        0.0         58       15.6      176.0       15.6       16.5        7.4     1020.4       25.5       10.8        0.0        0.0        0.0       0.00       85.0       2.35       0.59       20.2
23:21             101        0.0         58       15.6      176.0       15.6       16.4        7.3     1020.4       25.5       10.8        0.0        0.0        0.0       0.00       85.0       2.35       0.59       20.2
23:24             101        0.0         58       15.5      176.0       15.5       16.4        7.3     1020.3       25.5       10.8        0.0        0.0        0.0       0.00       85.0       2.35       0.59       20.2
23:26             101        0.0         58       15.4      176.0       15.4       16.3        7.2     1020.3       25.5       10.8        0.0        0.0        0.0       0.00       85.0       2.35       0.59       20.2
23:27             101        0.0         59       15.4      176.0       15.4       16.3        7.4     1020.2       25.5       10.8        0.0        0.0        0.0       0.00       85.0       2.35       0.59       20.2
23:29             102        0.0         59       15.3      176.0       15.3       16.3        7.4     1020.3       25.5       10.8        0.0        0.0        0.0       0.00       85.0       2.35       0.59       20.2
23:32             102        0.0         59       15.3      176.0       15.3       16.3        7.4     1020.3       25.5       10.8        0.0        0.0        0.0       0.00       85.0       2.38       0.59       20.2
23:34             101        0.0         59       15.3      176.0       15.3       16.2        7.3     1020.2       25.5       10.8        0.0        0.0        0.0       0.00       85.0       2.38       0.59       20.2
23:36             101        0.0         59       15.2      176.0       15.2       16.2        7.3     1020.2       25.5       10.8        0.0        0.0        0.0       0.00       85.0       2.38       0.59       20.2
23:38             101        0.0         59       15.2      176.0       15.2       16.2        7.3     1020.2       25.5       10.8        0.0        0.0        0.0       0.00       85.0       2.38       0.59       20.2
23:40             101        0.0         59       15.2      176.0       15.2       16.1        7.2     1020.2       25.5       10.8        0.0        0.0        0.0       0.00       85.0       2.38       0.59       20.2
23:42             101        0.0         59       15.1      176.0       15.1       16.1        7.2     1020.2       25.5       10.8        0.0        0.0        0.0       0.00       85.0       2.38       0.59       20.2
23:44             101        0.0         59       15.1      176.0       15.1       16.1        7.2     1020.1       25.5       10.8        0.0        0.0        0.0       0.00       85.0       2.38       0.59       20.2
23:46             101        0.0         59       15.1      176.0       15.1       16.0        7.1     1020.1       25.5       10.8        0.0        0.0        0.0       0.00       85.0       2.41       0.59       20.2
23:47             101        0.0         60       15.1      176.0       15.1       16.1        7.4     1020.1       25.5       10.8        0.0        0.0        0.0       0.00       85.0       2.41       0.59       20.2
23:50             101        0.0         60       15.0      176.0       15.0       16.0        7.3     1020.1       25.5       10.8        0.0        0.0        0.0       0.00       85.1       2.41       0.59       20.2
23:52             101        0.0         60       15.0      176.0       15.0       16.0        7.3     1020.1       25.5       10.8        0.0        0.0        0.0       0.00       85.1       2.41       0.59       20.2
23:53             101        0.0         61       14.9      176.0       14.9       16.0        7.5     1020.1       25.5       10.8        0.0        0.0        0.0       0.00       85.2       2.41       0.59       20.2
23:56             101        0.0         61       14.9      176.0       14.9       16.0        7.4     1020.1       25.5       10.8        0.0        0.0        0.0       0.00       85.3       2.41       0.59       20.2
23:58             101        0.0         62       14.8      176.0       14.8       16.0        7.6     1020.1       25.5       10.8        0.0        0.0        0.0       0.00       85.4       2.41       0.59       20.2


Detalle de hace 2 das:

15/3/21
Time         Wind Dir  Wind Gust   Humidity       Temp   Tot Rain Wind Chill Heat Index  Dew Point   Barom SL Temp Out H Temp Out L  DailyRain   HourRain   24HrRain   RainRate   Wind Run   Deg Heat   Deg Cool  MonthRain
                          km/hr          %         C         mm         C         C         C         mb         C         C         mm         mm         mm      mm/hr         km         C         C         mm
0:00               13        0.0         56       14.8      176.0       14.8       15.6        6.1     1021.5       14.8       14.8        0.0        0.0        0.0       0.00       90.5       3.12       0.14       20.2
0:02               13        0.0         56       14.7      176.0       14.7       15.5        6.0     1021.6       14.8       14.7        0.0        0.0        0.0       0.00        0.1       0.03       0.00       20.2
0:04               13        0.0         56       14.7      176.0       14.7       15.4        6.0     1021.5       14.8       14.7        0.0        0.0        0.0       0.00        0.2       0.03       0.00       20.2
0:06               13        0.0         57       14.6      176.0       14.6       15.4        6.2     1021.6       14.8       14.6        0.0        0.0        0.0       0.00        0.2       0.03       0.00       20.2
0:08               13        0.0         57       14.6      176.0       14.6       15.4        6.1     1021.5       14.8       14.6        0.0        0.0        0.0       0.00        0.3       0.03       0.00       20.2
0:10               13        0.0         57       14.5      176.0       14.5       15.3        6.1     1021.6       14.8       14.5        0.0        0.0        0.0       0.00        0.4       0.03       0.00       20.2
0:12               13        0.0         57       14.5      176.0       14.5       15.3        6.1     1021.6       14.8       14.5        0.0        0.0        0.0       0.00        0.4       0.03       0.00       20.2
0:14               13        0.0         57       14.4      176.0       14.4       15.3        6.0     1021.5       14.8       14.4        0.0        0.0        0.0       0.00        0.5       0.03       0.00       20.2
0:16               13        0.0         57       14.4      176.0       14.4       15.2        6.0     1021.5       14.8       14.4        0.0        0.0        0.0       0.00        0.6       0.07       0.00       20.2
0:18               13        0.0         58       14.4      176.0       14.4       15.3        6.2     1021.5       14.8       14.4        0.0        0.0        0.0       0.00        0.6       0.07       0.00       20.2
0:20               13        0.0         58       14.3      176.0       14.3       15.2        6.2     1021.6       14.8       14.3        0.0        0.0        0.0       0.00        0.7       0.07       0.00       20.2
0:22               13        0.0         58       14.3      176.0       14.3       15.2        6.2     1021.6       14.8       14.3        0.0        0.0        0.0       0.00        0.7       0.07       0.00       20.2
0:24               13        0.0         58       14.3      176.0       14.3       15.2        6.1     1021.6       14.8       14.3        0.0        0.0        0.0       0.00        0.8       0.07       0.00       20.2
0:26               14        0.0         58       14.2      176.0       14.2       15.1        6.1     1021.6       14.8       14.2        0.0        0.0        0.0       0.00        0.9       0.07       0.00       20.2
0:28               13        0.0         59       14.2      176.0       14.2       15.1        6.3     1021.5       14.8       14.2        0.0        0.0        0.0       0.00        0.9       0.07       0.00       20.2
0:30               14        0.0         59       14.1      176.0       14.1       15.1        6.2     1021.5       14.8       14.1        0.0        0.0        0.0       0.00        1.0       0.07       0.00       20.2
0:32               14        0.0         59       14.1      176.0       14.1       15.0        6.2     1021.5       14.8       14.1        0.0        0.0        0.0       0.00        1.0       0.11       0.00       20.2
0:34               14        0.0         59       14.0      176.0       14.0       14.9        6.1     1021.5       14.8       14.0        0.0        0.0        0.0       0.00        1.1       0.11       0.00       20.2
0:36               14        0.0         59       14.0      176.0       14.0       14.9        6.1     1021.6       14.8       14.0        0.0        0.0        0.0       0.00        1.2       0.11       0.00       20.2
0:38               13        0.0         59       13.9      176.0       13.9       14.9        6.1     1021.5       14.8       13.9        0.0        0.0        0.0       0.00        1.2       0.11       0.00       20.2
0:40               13        0.0         60       13.9      176.0       13.9       14.9        6.3     1021.6       14.8       13.9        0.0        0.0        0.0       0.00        1.3       0.11       0.00       20.2
0:42               13        0.0         60       13.8      176.0       13.8       14.8        6.2     1021.7       14.8       13.8        0.0        0.0        0.0       0.00        1.4       0.11       0.00       20.2
0:44               14        0.0         60       13.8      176.0       13.8       14.8        6.2     1021.6       14.8       13.8        0.0        0.0        0.0       0.00        1.4       0.11       0.00       20.2
0:46               13        0.0         60       13.8      176.0       13.8       14.8        6.2     1021.6       14.8       13.8        0.0        0.0        0.0       0.00        1.5       0.16       0.00       20.2
0:48               13        0.0         60       13.8      176.0       13.8       14.8        6.2     1021.6       14.8       13.8        0.0        0.0        0.0       0.00        1.5       0.16       0.00       20.2
0:50               13        0.0         60       13.7      176.0       13.7       14.7        6.1     1021.6       14.8       13.7        0.0        0.0        0.0       0.00        1.6       0.16       0.00       20.2
0:52               14        0.0         61       13.7      176.0       13.7       14.8        6.3     1021.5       14.8       13.7        0.0        0.0        0.0       0.00        1.7       0.16       0.00       20.2
0:54               14        0.0         61       13.7      176.0       13.7       14.7        6.3     1021.5       14.8       13.7        0.0        0.0        0.0       0.00        1.8       0.16       0.00       20.2
0:56               13        0.0         61       13.7      176.0       13.7       14.7        6.3     1021.4       14.8       13.7        0.0        0.0        0.0       0.00        1.8       0.16       0.00       20.2
0:58               13        0.0         61       13.6      176.0       13.6       14.7        6.2     1021.5       14.8       13.6        0.0        0.0        0.0       0.00        1.9       0.16       0.00       20.2
1:00               13        0.0         61       13.6      176.0       13.6       14.7        6.2     1021.5       14.8       13.6        0.0        0.0        0.0       0.00        2.0       0.16       0.00       20.2
1:02               14        0.0         61       13.6      176.0       13.6       14.7        6.2     1021.5       14.8       13.6        0.0        0.0        0.0       0.00        2.0       0.20       0.00       20.2
1:04               13        0.0         61       13.6      176.0       13.6       14.6        6.2     1021.5       14.8       13.6        0.0        0.0        0.0       0.00        2.1       0.20       0.00       20.2
1:06               13        0.0         61       13.6      176.0       13.6       14.6        6.2     1021.6       14.8       13.6        0.0        0.0        0.0       0.00        2.1       0.20       0.00       20.2
1:08               13        0.0         61       13.6      176.0       13.6       14.6        6.2     1021.6       14.8       13.6        0.0        0.0        0.0       0.00        2.2       0.20       0.00       20.2
1:10               14        0.0         61       13.5      176.0       13.5       14.6        6.1     1021.6       14.8       13.5        0.0        0.0        0.0       0.00        2.3       0.20       0.00       20.2
1:12               14        0.0         62       13.5      176.0       13.5       14.6        6.4     1021.6       14.8       13.5        0.0        0.0        0.0       0.00        2.4       0.20       0.00       20.2
1:13               14        0.0         62       13.5      176.0       13.5       14.6        6.4     1021.6       14.8       13.5        0.0        0.0        0.0       0.00        2.4       0.20       0.00       20.2
1:16               14        0.0         62       13.5      176.0       13.5       14.6        6.4     1021.5       14.8       13.5        0.0        0.0        0.0       0.00        2.5       0.25       0.00       20.2
1:18               14        0.0         62       13.5      176.0       13.5       14.6        6.4     1021.5       14.8       13.5        0.0        0.0        0.0       0.00        2.6       0.25       0.00       20.2
1:20               14        0.0         62       13.5      176.0       13.5       14.6        6.4     1021.5       14.8       13.5        0.0        0.0        0.0       0.00        2.6       0.25       0.00       20.2
1:22               14        0.0         62       13.5      176.0       13.5       14.6        6.4     1021.5       14.8       13.5        0.0        0.0        0.0       0.00        2.7       0.25       0.00       20.2
1:24               14        0.0         61       13.5      176.0       13.5       14.6        6.1     1021.5       14.8       13.5        0.0        0.0        0.0       0.00        2.8       0.25       0.00       20.2
1:26               14        0.0         61       13.5      176.0       13.5       14.6        6.1     1021.5       14.8       13.4        0.0        0.0        0.0       0.00        2.8       0.25       0.00       20.2
1:28               14        0.0         62       13.5      176.0       13.5       14.6        6.4     1021.4       14.8       13.4        0.0        0.0        0.0       0.00        2.9       0.25       0.00       20.2
1:30               14        0.0         61       13.5      176.0       13.5       14.6        6.1     1021.5       14.8       13.4        0.0        0.0        0.0       0.00        3.0       0.25       0.00       20.2
1:32               14        0.0         62       13.4      176.0       13.4       14.6        6.3     1021.4       14.8       13.4        0.0        0.0        0.0       0.00        3.1       0.29       0.00       20.2
1:34               14        0.0         62       13.4      176.0       13.4       14.6        6.3     1021.4       14.8       13.4        0.0        0.0        0.0       0.00        3.1       0.29       0.00       20.2
1:36               14        0.0         62       13.4      176.0       13.4       14.5        6.3     1021.4       14.8       13.4        0.0        0.0        0.0       0.00        3.2       0.29       0.00       20.2
1:38               14        0.0         62       13.3      176.0       13.3       14.5        6.2     1021.3       14.8       13.3        0.0        0.0        0.0       0.00        3.3       0.29       0.00       20.2
1:40               14        0.0         62       13.3      176.0       13.3       14.4        6.2     1021.3       14.8       13.3        0.0        0.0        0.0       0.00        3.4       0.29       0.00       20.2
1:42               14        0.0         63       13.2      176.0       13.2       14.4        6.3     1021.3       14.8       13.2        0.0        0.0        0.0       0.00        3.5       0.29       0.00       20.2
1:44               14        0.0         63       13.2      176.0       13.2       14.4        6.3     1021.3       14.8       13.2        0.0        0.0        0.0       0.00        3.5       0.29       0.00       20.2
1:46               14        0.0         63       13.2      176.0       13.2       14.4        6.3     1021.2       14.8       13.2        0.0        0.0        0.0       0.00        3.6       0.34       0.00       20.2
1:48               14        0.0         63       13.1      176.0       13.1       14.3        6.2     1021.3       14.8       13.1        0.0        0.0        0.0       0.00        3.7       0.34       0.00       20.2
1:50               13        0.0         63       13.1      176.0       13.1       14.3        6.2     1021.2       14.8       13.1        0.0        0.0        0.0       0.00        3.8       0.34       0.00       20.2
1:52               13        0.0         63       13.1      176.0       13.1       14.2        6.2     1021.2       14.8       13.1        0.0        0.0        0.0       0.00        3.9       0.34       0.00       20.2
1:53               13        0.0         63       13.1      176.0       13.1       14.2        6.2     1021.1       14.8       13.1        0.0        0.0        0.0       0.00        4.0       0.34       0.00       20.2
1:56               13        0.0         63       13.1      176.0       13.1       14.2        6.2     1021.1       14.8       13.1        0.0        0.0        0.0       0.00        4.1       0.34       0.00       20.2
1:58               13        0.0         63       13.0      176.0       13.0       14.2        6.1     1021.1       14.8       13.0        0.0        0.0        0.0       0.00        4.1       0.34       0.00       20.2
2:00               13        0.0         63       13.0      176.0       13.0       14.2        6.1     1021.0       14.8       13.0        0.0        0.0        0.0       0.00        4.2       0.34       0.00       20.2
2:02               13        0.0         63       12.9      176.0       12.9       14.1        6.1     1021.1       14.8       12.9        0.0        0.0        0.0       0.00        4.3       0.40       0.00       20.2
2:04               13        0.0         63       12.9      176.0       12.9       14.1        6.0     1021.1       14.8       12.9        0.0        0.0        0.0       0.00        4.4       0.40       0.00       20.2
2:06               16        0.0         63       12.9      176.0       12.9       14.1        6.0     1021.1       14.8       12.8        0.0        0.0        0.0       0.00        4.5       0.40       0.00       20.2
2:08               18        0.0         63       12.8      176.0       12.8       14.0        6.0     1021.1       14.8       12.8        0.0        0.0        0.0       0.00        4.6       0.40       0.00       20.2
2:10               17        0.0         64       12.8      176.0       12.8       14.1        6.2     1021.0       14.8       12.8        0.0        0.0        0.0       0.00        4.6       0.40       0.00       20.2
2:12               17        0.0         64       12.8      176.0       12.8       14.1        6.2     1021.0       14.8       12.8        0.0        0.0        0.0       0.00        4.7       0.40       0.00       20.2
2:14               17        0.0         64       12.8      176.0       12.8       14.0        6.1     1021.0       14.8       12.8        0.0        0.0        0.0       0.00        4.8       0.40       0.00       20.2
2:16               16        0.0         64       12.8      176.0       12.8       14.0        6.1     1020.9       14.8       12.8        0.0        0.0        0.0       0.00        4.9       0.45       0.00       20.2
2:18               17        0.0         64       12.7      176.0       12.7       14.0        6.1     1020.9       14.8       12.7        0.0        0.0        0.0       0.00        5.0       0.45       0.00       20.2
2:20               17        0.0         64       12.7      176.0       12.7       13.9        6.0     1020.9       14.8       12.7        0.0        0.0        0.0       0.00        5.1       0.45       0.00       20.2
2:22               17        0.0         64       12.7      176.0       12.7       13.9        6.0     1020.9       14.8       12.7        0.0        0.0        0.0       0.00        5.1       0.45       0.00       20.2
2:24               17        0.0         64       12.7      176.0       12.7       13.9        6.0     1020.9       14.8       12.7        0.0        0.0        0.0       0.00        5.2       0.45       0.00       20.2
2:26               17        0.0         64       12.6      176.0       12.6       13.9        6.0     1020.8       14.8       12.6        0.0        0.0        0.0       0.00        5.3       0.45       0.00       20.2
2:28               17        0.0         65       12.6      176.0       12.6       13.9        6.2     1020.8       14.8       12.6        0.0        0.0        0.0       0.00        5.4       0.45       0.00       20.2
2:29               17        0.0         65       12.6      176.0       12.6       13.9        6.2     1020.8       14.8       12.6        0.0        0.0        0.0       0.00        5.5       0.45       0.00       20.2
2:32               17        0.0         65       12.5      176.0       12.5       13.8        6.1     1020.7       14.8       12.5        0.0        0.0        0.0       0.00        5.6       0.51       0.00       20.2
2:34               17        0.0         65       12.5      176.0       12.5       13.8        6.1     1020.7       14.8       12.5        0.0        0.0        0.0       0.00        5.6       0.51       0.00       20.2
2:36               17        0.0         65       12.4      176.0       12.4       13.8        6.1     1020.7       14.8       12.4        0.0        0.0        0.0       0.00        5.7       0.51       0.00       20.2
2:38               17        0.0         65       12.4      176.0       12.4       13.8        6.1     1020.7       14.8       12.4        0.0        0.0        0.0       0.00        5.8       0.51       0.00       20.2
2:40               19        0.0         65       12.4      176.0       12.4       13.8        6.1     1020.7       14.8       12.4        0.0        0.0        0.0       0.00        6.0       0.51       0.00       20.2
2:42               23        0.0         64       12.4      176.0       12.4       13.7        5.8     1020.6       14.8       12.4        0.0        0.0        0.0       0.00        6.1       0.51       0.00       20.2
2:44               30        0.0         63       12.6      176.0       12.6       13.7        5.7     1020.6       14.8       12.4        0.0        0.0        0.0       0.00        6.2       0.51       0.00       20.2
2:46               31        0.0         63       12.7      176.0       12.7       13.9        5.8     1020.7       14.8       12.4        0.0        0.0        0.0       0.00        6.4       0.56       0.00       20.2
2:48               27        0.0         63       12.8      176.0       12.8       14.0        5.9     1020.6       14.8       12.4        0.0        0.0        0.0       0.00        6.5       0.56       0.00       20.2
2:50               33        0.0         62       12.8      176.0       12.8       14.0        5.7     1020.6       14.8       12.4        0.0        0.0        0.0       0.00        6.6       0.56       0.00       20.2
2:52               30        0.0         62       12.9      176.0       12.9       14.1        5.8     1020.5       14.8       12.4        0.0        0.0        0.0       0.00        6.7       0.56       0.00       20.2
2:54               24        0.0         62       13.0      176.0       13.0       14.1        5.9     1020.5       14.8       12.4        0.0        0.0        0.0       0.00        6.8       0.56       0.00       20.2
2:56               32        0.0         62       13.0      176.0       13.0       14.1        5.9     1020.5       14.8       12.4        0.0        0.0        0.0       0.00        6.9       0.56       0.00       20.2
2:58               25        0.0         61       13.0      176.0       13.0       14.1        5.7     1020.6       14.8       12.4        0.0        0.0        0.0       0.00        7.1       0.56       0.00       20.2
3:00               29        0.0         61       13.1      176.0       13.1       14.1        5.7     1020.6       14.8       12.4        0.0        0.0        0.0       0.00        7.2       0.56       0.00       20.2
3:02               19        0.0         62       13.0      176.0       13.0       14.1        5.9     1020.5       14.8       12.4        0.0        0.0        0.0       0.00        7.3       0.62       0.00       20.2
3:04               18        0.0         61       13.0      176.0       13.0       14.1        5.7     1020.5       14.8       12.4        0.0        0.0        0.0       0.00        7.5       0.62       0.00       20.2
3:06               28        0.0         62       13.0      176.0       13.0       14.1        5.9     1020.5       14.8       12.4        0.0        0.0        0.0       0.00        7.6       0.62       0.00       20.2
3:08               22        0.0         62       13.0      176.0       13.0       14.1        5.9     1020.3       14.8       12.4        0.0        0.0        0.0       0.00        7.7       0.62       0.00       20.2
3:10               35        0.0         62       12.9      176.0       12.9       14.0        5.8     1020.4       14.8       12.4        0.0        0.0        0.0       0.00        7.8       0.62       0.00       20.2
3:12               26        0.0         62       12.9      176.0       12.9       14.0        5.8     1020.3       14.8       12.4        0.0        0.0        0.0       0.00        8.0       0.62       0.00       20.2
3:14               26        0.0         62       12.8      176.0       12.8       14.0        5.7     1020.4       14.8       12.4        0.0        0.0        0.0       0.00        8.1       0.62       0.00       20.2
3:16               21        0.0         63       12.8      176.0       12.8       14.0        5.9     1020.4       14.8       12.4        0.0        0.0        0.0       0.00        8.3       0.67       0.00       20.2
3:18               28        0.0         63       12.7      176.0       12.7       13.9        5.9     1020.4       14.8       12.4        0.0        0.0        0.0       0.00        8.5       0.67       0.00       20.2
3:20               18        0.0         63       12.7      176.0       12.7       13.9        5.8     1020.4       14.8       12.4        0.0        0.0        0.0       0.00        8.7       0.67       0.00       20.2
3:22               23        0.0         63       12.6      176.0       12.6       13.7        5.7     1020.3       14.8       12.4        0.0        0.0        0.0       0.00        8.8       0.67       0.00       20.2
3:24               25        0.0         64       12.5      176.0       12.5       13.8        5.9     1020.4       14.8       12.4        0.0        0.0        0.0       0.00        9.0       0.67       0.00       20.2
3:26               27        0.0         64       12.4      176.0       12.4       13.7        5.8     1020.3       14.8       12.4        0.0        0.0        0.0       0.00        9.1       0.67       0.00       20.2
3:28               22        0.0         65       12.4      176.0       12.4       13.7        6.0     1020.3       14.8       12.4        0.0        0.0        0.0       0.00        9.2       0.67       0.00       20.2
3:30               18        0.0         65       12.3      176.0       12.3       13.6        5.9     1020.3       14.8       12.3        0.0        0.0        0.0       0.00        9.4       0.67       0.00       20.2
3:32               26        0.0         65       12.3      176.0       12.3       13.6        5.9     1020.4       14.8       12.3        0.0        0.0        0.0       0.00        9.5       0.73       0.00       20.2
3:34               25        0.0         65       12.2      176.0       12.2       13.5        5.8     1020.4       14.8       12.2        0.0        0.0        0.0       0.00        9.6       0.73       0.00       20.2
3:36               26        0.0         65       12.2      176.0       12.2       13.5        5.8     1020.3       14.8       12.2        0.0        0.0        0.0       0.00        9.8       0.73       0.00       20.2
3:38               41        0.0         66       12.1      176.0       12.1       13.5        6.0     1020.5       14.8       12.1        0.0        0.0        0.0       0.00        9.9       0.73       0.00       20.2
3:40               24        0.0         66       12.1      176.0       12.1       13.5        6.0     1020.3       14.8       12.1        0.0        0.0        0.0       0.00       10.0       0.73       0.00       20.2
3:42               32        0.0         66       12.1      176.0       12.1       13.4        5.9     1020.4       14.8       12.1        0.0        0.0        0.0       0.00       10.2       0.73       0.00       20.2
3:44               37        0.0         66       12.0      176.0       12.0       13.4        5.9     1020.3       14.8       12.0        0.0        0.0        0.0       0.00       10.3       0.73       0.00       20.2
3:46               35        0.0         66       12.0      176.0       12.0       13.4        5.9     1020.4       14.8       12.0        0.0        0.0        0.0       0.00       10.4       0.79       0.00       20.2
3:48               25        0.0         66       11.9      176.0       11.9       13.3        5.8     1020.4       14.8       11.9        0.0        0.0        0.0       0.00       10.5       0.79       0.00       20.2
3:49               22        0.0         67       11.9      176.0       11.9       13.3        6.0     1020.4       14.8       11.9        0.0        0.0        0.0       0.00       10.6       0.79       0.00       20.2
3:52               30        0.0         67       11.9      176.0       11.9       13.3        6.0     1020.4       14.8       11.9        0.0        0.0        0.0       0.00       10.7       0.79       0.00       20.2
3:54               28        0.0         67       11.8      176.0       11.8       13.3        5.9     1020.3       14.8       11.8        0.0        0.0        0.0       0.00       10.8       0.79       0.00       20.2
3:56               27        0.0         67       11.8      176.0       11.8       13.3        5.9     1020.4       14.8       11.8        0.0        0.0        0.0       0.00       10.9       0.79       0.00       20.2
3:58               22        0.0         67       11.8      176.0       11.8       13.2        5.9     1020.3       14.8       11.8        0.0        0.0        0.0       0.00       11.0       0.79       0.00       20.2
4:00               22        0.0         67       11.8      176.0       11.8       13.2        5.9     1020.3       14.8       11.8        0.0        0.0        0.0       0.00       11.2       0.79       0.00       20.2
4:02               17        0.0         67       11.8      176.0       11.8       13.2        5.9     1020.3       14.8       11.8        0.0        0.0        0.0       0.00       11.3       0.86       0.00       20.2
4:04               17        0.0         67       11.8      176.0       11.8       13.2        5.9     1020.2       14.8       11.8        0.0        0.0        0.0       0.00       11.3       0.86       0.00       20.2
4:06               17        0.0         67       11.8      176.0       11.8       13.2        5.9     1020.2       14.8       11.8        0.0        0.0        0.0       0.00       11.4       0.86       0.00       20.2
4:08               19        0.0         67       11.7      176.0       11.7       13.2        5.8     1020.3       14.8       11.7        0.0        0.0        0.0       0.00       11.5       0.86       0.00       20.2
4:10               23        0.0         67       11.7      176.0       11.7       13.2        5.8     1020.2       14.8       11.7        0.0        0.0        0.0       0.00       11.6       0.86       0.00       20.2
4:12               24        0.0         67       11.7      176.0       11.7       13.2        5.8     1020.3       14.8       11.7        0.0        0.0        0.0       0.00       11.7       0.86       0.00       20.2
4:14               27        0.0         67       11.7      176.0       11.7       13.2        5.8     1020.2       14.8       11.7        0.0        0.0        0.0       0.00       11.8       0.86       0.00       20.2
4:16               29        0.0         67       11.7      176.0       11.7       13.1        5.8     1020.2       14.8       11.7        0.0        0.0        0.0       0.00       11.9       0.92       0.00       20.2
4:18               36        0.0         67       11.7      176.0       11.7       13.1        5.8     1020.3       14.8       11.7        0.0        0.0        0.0       0.00       12.0       0.92       0.00       20.2
4:20               38        0.0         67       11.7      176.0       11.7       13.1        5.8     1020.2       14.8       11.7        0.0        0.0        0.0       0.00       12.1       0.92       0.00       20.2
4:22               36        0.0         67       11.7      176.0       11.7       13.1        5.8     1020.2       14.8       11.7        0.0        0.0        0.0       0.00       12.2       0.92       0.00       20.2
4:24               34        0.0         67       11.6      176.0       11.6       13.1        5.7     1020.2       14.8       11.6        0.0        0.0        0.0       0.00       12.3       0.92       0.00       20.2
4:26               31        0.0         67       11.6      176.0       11.6       13.1        5.7     1020.3       14.8       11.6        0.0        0.0        0.0       0.00       12.4       0.92       0.00       20.2
4:28               35        0.0         68       11.6      176.0       11.6       13.1        5.9     1020.2       14.8       11.6        0.0        0.0        0.0       0.00       12.5       0.92       0.00       20.2
4:30               34        0.0         68       11.6      176.0       11.6       13.1        5.9     1020.2       14.8       11.6        0.0        0.0        0.0       0.00       12.5       0.92       0.00       20.2
4:32               32        0.0         68       11.5      176.0       11.5       13.0        5.8     1020.3       14.8       11.5        0.0        0.0        0.0       0.00       12.6       0.99       0.00       20.2
4:34               32        0.0         68       11.5      176.0       11.5       13.0        5.8     1020.2       14.8       11.5        0.0        0.0        0.0       0.00       12.7       0.99       0.00       20.2
4:36               32        0.0         68       11.4      176.0       11.4       13.0        5.8     1020.3       14.8       11.4        0.0        0.0        0.0       0.00       12.7       0.99       0.00       20.2
4:38               32        0.0         68       11.4      176.0       11.4       12.9        5.7     1020.3       14.8       11.4        0.0        0.0        0.0       0.00       12.8       0.99       0.00       20.2
4:40               32        0.0         68       11.3      176.0       11.3       12.8        5.6     1020.3       14.8       11.3        0.0        0.0        0.0       0.00       12.9       0.99       0.00       20.2
4:42               32        0.0         69       11.3      176.0       11.3       12.9        5.9     1020.3       14.8       11.3        0.0        0.0        0.0       0.00       13.0       0.99       0.00       20.2
4:44               31        0.0         69       11.3      176.0       11.3       12.9        5.8     1020.2       14.8       11.3        0.0        0.0        0.0       0.00       13.0       0.99       0.00       20.2
4:46               31        0.0         69       11.3      176.0       11.3       12.9        5.8     1020.2       14.8       11.3        0.0        0.0        0.0       0.00       13.1       1.06       0.00       20.2
4:48               31        0.0         69       11.2      176.0       11.2       12.8        5.8     1020.3       14.8       11.2        0.0        0.0        0.0       0.00       13.2       1.06       0.00       20.2
4:50               31        0.0         69       11.2      176.0       11.2       12.8        5.8     1020.3       14.8       11.2        0.0        0.0        0.0       0.00       13.2       1.06       0.00       20.2
4:52               28        0.0         69       11.2      176.0       11.2       12.7        5.7     1020.2       14.8       11.2        0.0        0.0        0.0       0.00       13.3       1.06       0.00       20.2
4:54               29        0.0         69       11.2      176.0       11.2       12.7        5.7     1020.3       14.8       11.2        0.0        0.0        0.0       0.00       13.4       1.06       0.00       20.2
4:56               32        0.0         69       11.2      176.0       11.2       12.7        5.7     1020.2       14.8       11.2        0.0        0.0        0.0       0.00       13.5       1.06       0.00       20.2
4:58               30        0.0         69       11.2      176.0       11.2       12.8        5.8     1020.2       14.8       11.2        0.0        0.0        0.0       0.00       13.6       1.06       0.00       20.2
5:00               28        0.0         68       11.3      176.0       11.3       12.8        5.6     1020.2       14.8       11.2        0.0        0.0        0.0       0.00       13.7       1.06       0.00       20.2
5:02               11        0.0         68       11.3      176.0       11.3       12.8        5.6     1020.4       14.8       11.2        0.0        0.0        0.0       0.00       13.8       1.13       0.00       20.2
5:04               19        0.0         68       11.3      176.0       11.3       12.8        5.6     1020.3       14.8       11.2        0.0        0.0        0.0       0.00       13.9       1.13       0.00       20.2
5:06               20        0.0         68       11.3      176.0       11.3       12.8        5.6     1020.3       14.8       11.2        0.0        0.0        0.0       0.00       14.0       1.13       0.00       20.2
5:08               20        0.0         68       11.3      176.0       11.3       12.8        5.6     1020.3       14.8       11.2        0.0        0.0        0.0       0.00       14.0       1.13       0.00       20.2
5:10               20        0.0         68       11.3      176.0       11.3       12.8        5.6     1020.3       14.8       11.2        0.0        0.0        0.0       0.00       14.1       1.13       0.00       20.2
5:12               26        0.0         68       11.3      176.0       11.3       12.8        5.6     1020.3       14.8       11.2        0.0        0.0        0.0       0.00       14.2       1.13       0.00       20.2
5:14               24        0.0         68       11.3      176.0       11.3       12.8        5.6     1020.3       14.8       11.2        0.0        0.0        0.0       0.00       14.3       1.13       0.00       20.2
5:16               24        0.0         68       11.2      176.0       11.2       12.7        5.5     1020.4       14.8       11.2        0.0        0.0        0.0       0.00       14.3       1.20       0.00       20.2
5:18               24        0.0         69       11.2      176.0       11.2       12.7        5.7     1020.4       14.8       11.2        0.0        0.0        0.0       0.00       14.4       1.20       0.00       20.2
5:20               23        0.0         69       11.2      176.0       11.2       12.7        5.7     1020.4       14.8       11.2        0.0        0.0        0.0       0.00       14.5       1.20       0.00       20.2
5:22               33        0.0         69       11.1      176.0       11.1       12.7        5.6     1020.3       14.8       11.1        0.0        0.0        0.0       0.00       14.6       1.20       0.00       20.2
5:23               28        0.0         69       11.1      176.0       11.1       12.7        5.6     1020.4       14.8       11.1        0.0        0.0        0.0       0.00       14.7       1.20       0.00       20.2
5:26               30        0.0         69       11.1      176.0       11.1       12.7        5.6     1020.3       14.8       11.1        0.0        0.0        0.0       0.00       14.8       1.20       0.00       20.2
5:28               26        0.0         68       11.2      176.0       11.2       12.7        5.5     1020.4       14.8       11.1        0.0        0.0        0.0       0.00       14.9       1.20       0.00       20.2
5:30               30        0.0         68       11.2      176.0       11.2       12.7        5.5     1020.4       14.8       11.1        0.0        0.0        0.0       0.00       15.0       1.20       0.00       20.2
5:32               18        0.0         68       11.3      176.0       11.3       12.8        5.6     1020.3       14.8       11.1        0.0        0.0        0.0       0.00       15.1       1.27       0.00       20.2
5:34               20        0.0         68       11.3      176.0       11.3       12.8        5.6     1020.3       14.8       11.1        0.0        0.0        0.0       0.00       15.2       1.27       0.00       20.2
5:36                5        0.0         67       11.3      176.0       11.3       12.8        5.4     1020.3       14.8       11.1        0.0        0.0        0.0       0.00       15.4       1.27       0.00       20.2
5:38               37        0.0         67       11.4      176.0       11.4       12.8        5.5     1020.3       14.8       11.1        0.0        0.0        0.0       0.00       15.5       1.27       0.00       20.2
5:40               24        0.0         67       11.4      176.0       11.4       12.9        5.5     1020.4       14.8       11.1        0.0        0.0        0.0       0.00       15.6       1.27       0.00       20.2
5:42               28        0.0         67       11.5      176.0       11.5       12.9        5.6     1020.5       14.8       11.1        0.0        0.0        0.0       0.00       15.7       1.27       0.00       20.2
5:44               13        0.0         66       11.5      176.0       11.5       12.9        5.4     1020.4       14.8       11.1        0.0        0.0        0.0       0.00       15.8       1.27       0.00       20.2
5:46               14        0.0         66       11.5      176.0       11.5       12.9        5.4     1020.4       14.8       11.1        0.0        0.0        0.0       0.00       16.0       1.34       0.00       20.2
5:48               30        0.0         66       11.5      176.0       11.5       12.9        5.4     1020.4       14.8       11.1        0.0        0.0        0.0       0.00       16.1       1.34       0.00       20.2
5:50               21        0.0         66       11.5      176.0       11.5       12.9        5.4     1020.4       14.8       11.1        0.0        0.0        0.0       0.00       16.3       1.34       0.00       20.2
5:52               22        0.0         66       11.6      176.0       11.6       12.9        5.4     1020.4       14.8       11.1        0.0        0.0        0.0       0.00       16.4       1.34       0.00       20.2
5:54               34        0.0         66       11.6      176.0       11.6       12.9        5.4     1020.5       14.8       11.1        0.0        0.0        0.0       0.00       16.6       1.34       0.00       20.2
5:56               14        0.0         66       11.6      176.0       11.6       13.0        5.5     1020.5       14.8       11.1        0.0        0.0        0.0       0.00       16.7       1.34       0.00       20.2
5:58               23        0.0         66       11.6      176.0       11.6       13.0        5.5     1020.4       14.8       11.1        0.0        0.0        0.0       0.00       16.8       1.34       0.00       20.2
6:00               30        0.0         66       11.6      176.0       11.6       13.0        5.5     1020.5       14.8       11.1        0.0        0.0        0.0       0.00       16.9       1.34       0.00       20.2
6:02               15        0.0         66       11.6      176.0       11.6       13.0        5.5     1020.5       14.8       11.1        0.0        0.0        0.0       0.00       17.1       1.41       0.00       20.2
6:04               15        0.0         66       11.6      176.0       11.6       13.0        5.5     1020.5       14.8       11.1        0.0        0.0        0.0       0.00       17.1       1.41       0.00       20.2
6:06               15        0.0         66       11.6      176.0       11.6       12.9        5.4     1020.5       14.8       11.1        0.0        0.0        0.0       0.00       17.2       1.41       0.00       20.2
6:08               15        0.0         66       11.5      176.0       11.5       12.9        5.4     1020.7       14.8       11.1        0.0        0.0        0.0       0.00       17.3       1.41       0.00       20.2
6:10               15        0.0         67       11.4      176.0       11.4       12.9        5.5     1020.6       14.8       11.1        0.0        0.0        0.0       0.00       17.4       1.41       0.00       20.2
6:12               24        0.0         67       11.4      176.0       11.4       12.8        5.5     1020.6       14.8       11.1        0.0        0.0        0.0       0.00       17.5       1.41       0.00       20.2
6:14               26        0.0         67       11.3      176.0       11.3       12.8        5.4     1020.7       14.8       11.1        0.0        0.0        0.0       0.00       17.6       1.41       0.00       20.2
6:16               28        0.0         68       11.3      176.0       11.3       12.8        5.6     1020.6       14.8       11.1        0.0        0.0        0.0       0.00       17.6       1.48       0.00       20.2
6:18               35        0.0         67       11.2      176.0       11.2       12.7        5.3     1020.6       14.8       11.1        0.0        0.0        0.0       0.00       17.7       1.48       0.00       20.2
6:20               26        0.0         68       11.2      176.0       11.2       12.7        5.5     1020.7       14.8       11.1        0.0        0.0        0.0       0.00       17.8       1.48       0.00       20.2
6:22               27        0.0         68       11.2      176.0       11.2       12.7        5.5     1020.6       14.8       11.1        0.0        0.0        0.0       0.00       18.0       1.48       0.00       20.2
6:24               34        0.0         67       11.2      176.0       11.2       12.7        5.3     1020.6       14.8       11.1        0.0        0.0        0.0       0.00       18.1       1.48       0.00       20.2
6:26               40        0.0         67       11.2      176.0       11.2       12.7        5.3     1020.6       14.8       11.1        0.0        0.0        0.0       0.00       18.3       1.48       0.00       20.2
6:28                9        0.0         67       11.2      176.0       11.2       12.7        5.3     1020.7       14.8       11.1        0.0        0.0        0.0       0.00       18.4       1.48       0.00       20.2
6:30                9        0.0         68       11.2      176.0       11.2       12.7        5.5     1020.7       14.8       11.1        0.0        0.0        0.0       0.00       18.5       1.48       0.00       20.2
6:32               10        0.0         68       11.2      176.0       11.2       12.7        5.5     1020.8       14.8       11.1        0.0        0.0        0.0       0.00       18.5       1.55       0.00       20.2
6:34                9        0.0         68       11.1      176.0       11.1       12.6        5.4     1020.7       14.8       11.1        0.0        0.0        0.0       0.00       18.6       1.55       0.00       20.2
6:36                9        0.0         68       11.1      176.0       11.1       12.6        5.4     1020.8       14.8       11.1        0.0        0.0        0.0       0.00       18.7       1.55       0.00       20.2
6:38               16        0.0         69       11.0      176.0       11.0       12.6        5.5     1020.7       14.8       11.0        0.0        0.0        0.0       0.00       18.9       1.55       0.00       20.2
6:40               15        0.0         69       10.9      176.0       10.9       12.5        5.5     1020.8       14.8       10.9        0.0        0.0        0.0       0.00       19.0       1.55       0.00       20.2
6:42               15        0.0         69       10.9      176.0       10.9       12.5        5.4     1020.8       14.8       10.9        0.0        0.0        0.0       0.00       19.1       1.55       0.00       20.2
6:44               22        0.0         69       10.8      176.0       10.8       12.4        5.4     1020.8       14.8       10.8        0.0        0.0        0.0       0.00       19.2       1.55       0.00       20.2
6:46               23        0.0         69       10.8      176.0       10.8       12.4        5.4     1020.9       14.8       10.8        0.0        0.0        0.0       0.00       19.3       1.62       0.00       20.2
6:48               27        0.0         70       10.8      176.0       10.8       12.4        5.5     1020.9       14.8       10.8        0.0        0.0        0.0       0.00       19.4       1.62       0.00       20.2
6:50               17        0.0         70       10.8      176.0       10.8       12.4        5.5     1020.9       14.8       10.8        0.0        0.0        0.0       0.00       19.5       1.62       0.00       20.2
6:52               28        0.0         70       10.8      176.0       10.8       12.4        5.5     1020.9       14.8       10.8        0.0        0.0        0.0       0.00       19.6       1.62       0.00       20.2
6:54               13        0.0         70       10.8      176.0       10.8       12.4        5.5     1020.9       14.8       10.8        0.0        0.0        0.0       0.00       19.7       1.62       0.00       20.2
6:56               15        0.0         70       10.8      176.0       10.8       12.4        5.5     1020.9       14.8       10.8        0.0        0.0        0.0       0.00       19.8       1.62       0.00       20.2
6:58               16        0.0         70       10.8      176.0       10.8       12.4        5.5     1020.9       14.8       10.8        0.0        0.0        0.0       0.00       19.9       1.62       0.00       20.2
7:00               18        0.0         70       10.8      176.0       10.8       12.4        5.5     1020.9       14.8       10.8        0.0        0.0        0.0       0.00       20.0       1.62       0.00       20.2
7:02               17        0.0         70       10.8      176.0       10.8       12.4        5.5     1020.9       14.8       10.8        0.0        0.0        0.0       0.00       20.1       1.70       0.00       20.2
7:04               17        0.0         70       10.7      176.0       10.7       12.4        5.5     1020.9       14.8       10.7        0.0        0.0        0.0       0.00       20.2       1.70       0.00       20.2
7:06               15        0.0         70       10.7      176.0       10.7       12.4        5.5     1021.0       14.8       10.7        0.0        0.0        0.0       0.00       20.3       1.70       0.00       20.2
7:08               24        0.0         70       10.7      176.0       10.7       12.4        5.5     1021.0       14.8       10.7        0.0        0.0        0.0       0.00       20.4       1.70       0.00       20.2
7:10               20        0.0         70       10.7      176.0       10.7       12.3        5.4     1021.1       14.8       10.7        0.0        0.0        0.0       0.00       20.5       1.70       0.00       20.2
7:12               29        0.0         70       10.7      176.0       10.7       12.3        5.4     1021.0       14.8       10.7        0.0        0.0        0.0       0.00       20.6       1.70       0.00       20.2
7:14               32        0.0         70       10.7      176.0       10.7       12.3        5.4     1021.0       14.8       10.7        0.0        0.0        0.0       0.00       20.8       1.70       0.00       20.2
7:16               29        0.0         70       10.7      176.0       10.7       12.4        5.5     1020.9       14.8       10.7        0.0        0.0        0.0       0.00       20.9       1.77       0.00       20.2
7:18               30        0.0         70       10.7      176.0       10.7       12.4        5.5     1021.0       14.8       10.7        0.0        0.0        0.0       0.00       21.0       1.77       0.00       20.2
7:20               19        0.0         69       10.8      176.0       10.8       12.4        5.3     1021.0       14.8       10.7        0.0        0.0        0.0       0.00       21.2       1.77       0.00       20.2
7:22               21        0.0         69       10.8      176.0       10.8       12.4        5.3     1020.9       14.8       10.7        0.0        0.0        0.0       0.00       21.3       1.77       0.00       20.2
7:24               22        0.0         69       10.8      176.0       10.8       12.4        5.4     1021.0       14.8       10.7        0.0        0.0        0.0       0.00       21.5       1.77       0.00       20.2
7:26               24        0.0         69       10.8      176.0       10.8       12.4        5.4     1021.0       14.8       10.7        0.0        0.0        0.0       0.00       21.6       1.77       0.00       20.2
7:28               22        0.0         69       10.8      176.0       10.8       12.4        5.4     1021.0       14.8       10.7        0.0        0.0        0.0       0.00       21.7       1.77       0.00       20.2
7:30               26        0.0         69       10.9      176.0       10.9       12.5        5.4     1021.0       14.8       10.7        0.0        0.0        0.0       0.00       22.0       1.77       0.00       20.2
7:32               26        0.0         69       10.9      176.0       10.9       12.5        5.4     1021.0       14.8       10.7        0.0        0.0        0.0       0.00       22.1       1.85       0.00       20.2
7:34               34        0.0         68       10.9      176.0       10.9       12.5        5.3     1021.0       14.8       10.7        0.0        0.0        0.0       0.00       22.3       1.85       0.00       20.2
7:36               38        0.0         68       11.0      176.0       11.0       12.5        5.3     1020.9       14.8       10.7        0.0        0.0        0.0       0.00       22.4       1.85       0.00       20.2
7:38               32        0.0         68       11.1      176.0       11.1       12.6        5.4     1021.0       14.8       10.7        0.0        0.0        0.0       0.00       22.6       1.85       0.00       20.2
7:40               14        0.0         68       11.1      176.0       11.1       12.6        5.4     1021.1       14.8       10.7        0.0        0.0        0.0       0.00       22.7       1.85       0.00       20.2
7:42               25        0.0         68       11.2      176.0       11.2       12.7        5.5     1021.0       14.8       10.7        0.0        0.0        0.0       0.00       22.9       1.85       0.00       20.2
7:43               30        0.0         67       11.3      176.0       11.3       12.7        5.4     1021.2       14.8       10.7        0.0        0.0        0.0       0.00       23.1       1.85       0.00       20.2
7:46               19        0.0         68       11.3      176.0       11.3       12.8        5.6     1021.3       14.8       10.7        0.0        0.0        0.0       0.00       23.2       1.92       0.00       20.2
7:48               22        0.0         67       11.3      176.0       11.3       12.8        5.4     1021.2       14.8       10.7        0.0        0.0        0.0       0.00       23.3       1.92       0.00       20.2
7:50               15        0.0         67       11.4      176.0       11.4       12.8        5.5     1021.2       14.8       10.7        0.0        0.0        0.0       0.00       23.5       1.92       0.00       20.2
7:52               20        0.0         68       11.4      176.0       11.4       12.9        5.7     1021.3       14.8       10.7        0.0        0.0        0.0       0.00       23.7       1.92       0.00       20.2
7:54               32        0.0         67       11.4      176.0       11.4       12.9        5.5     1021.2       14.8       10.7        0.0        0.0        0.0       0.00       23.8       1.92       0.00       20.2
7:56               11        0.0         67       11.4      176.0       11.4       12.9        5.5     1021.2       14.8       10.7        0.0        0.0        0.0       0.00       24.0       1.92       0.00       20.2
7:58               16        0.0         67       11.5      176.0       11.5       12.9        5.6     1021.2       14.8       10.7        0.0        0.0        0.0       0.00       24.2       1.92       0.00       20.2
8:00               17        0.0         67       11.5      176.0       11.5       12.9        5.6     1021.2       14.8       10.7        0.0        0.0        0.0       0.00       24.4       1.92       0.00       20.2
8:02               26        0.0         67       11.5      176.0       11.5       12.9        5.6     1021.3       14.8       10.7        0.0        0.0        0.0       0.00       24.6       1.98       0.00       20.2
8:04               38        0.0         67       11.6      176.0       11.6       13.0        5.6     1021.3       14.8       10.7        0.0        0.0        0.0       0.00       24.8       1.98       0.00       20.2
8:06               19        0.0         67       11.6      176.0       11.6       13.1        5.7     1021.3       14.8       10.7        0.0        0.0        0.0       0.00       25.0       1.98       0.00       20.2
8:08               28        0.0         67       11.6      176.0       11.6       13.1        5.7     1021.4       14.8       10.7        0.0        0.0        0.0       0.00       25.2       1.98       0.00       20.2
8:10               34        0.0         67       11.7      176.0       11.7       13.1        5.8     1021.3       14.8       10.7        0.0        0.0        0.0       0.00       25.4       1.98       0.00       20.2
8:12               28        0.0         67       11.7      176.0       11.7       13.2        5.8     1021.4       14.8       10.7        0.0        0.0        0.0       0.00       25.5       1.98       0.00       20.2
8:14               38        0.0         67       11.8      176.0       11.8       13.2        5.9     1021.4       14.8       10.7        0.0        0.0        0.0       0.00       25.7       1.98       0.00       20.2
8:16               15        0.0         66       11.8      176.0       11.8       13.2        5.7     1021.3       14.8       10.7        0.0        0.0        0.0       0.00       25.9       2.05       0.00       20.2
8:18               15        0.0         66       11.9      176.0       11.9       13.3        5.7     1021.4       14.8       10.7        0.0        0.0        0.0       0.00       26.1       2.05       0.00       20.2
8:20               26        0.0         66       11.9      176.0       11.9       13.3        5.8     1021.4       14.8       10.7        0.0        0.0        0.0       0.00       26.2       2.05       0.00       20.2
8:22               34        0.0         66       12.0      176.0       12.0       13.4        5.9     1021.4       14.8       10.7        0.0        0.0        0.0       0.00       26.4       2.05       0.00       20.2
8:24               38        0.0         66       12.1      176.0       12.1       13.4        5.9     1021.3       14.8       10.7        0.0        0.0        0.0       0.00       26.6       2.05       0.00       20.2
8:26               19        0.0         66       12.1      176.0       12.1       13.5        6.0     1021.4       14.8       10.7        0.0        0.0        0.0       0.00       26.7       2.05       0.00       20.2
8:28               32        0.0         66       12.2      176.0       12.2       13.6        6.1     1021.4       14.8       10.7        0.0        0.0        0.0       0.00       26.9       2.05       0.00       20.2
8:29               40        0.0         66       12.3      176.0       12.3       13.7        6.1     1021.4       14.8       10.7        0.0        0.0        0.0       0.00       27.2       2.05       0.00       20.2
8:32               24        0.0         66       12.3      176.0       12.3       13.7        6.2     1021.4       14.8       10.7        0.0        0.0        0.0       0.00       27.4       2.11       0.00       20.2
8:34               15        0.0         66       12.4      176.0       12.4       13.8        6.2     1021.3       14.8       10.7        0.0        0.0        0.0       0.00       27.6       2.11       0.00       20.2
8:36               24        0.0         66       12.5      176.0       12.5       13.9        6.3     1021.3       14.8       10.7        0.0        0.0        0.0       0.00       27.9       2.11       0.00       20.2
8:38               35        0.0         65       12.6      176.0       12.6       13.9        6.2     1021.3       14.8       10.7        0.0        0.0        0.0       0.00       28.1       2.11       0.00       20.2
8:40               36        0.0         65       12.7      176.0       12.7       14.0        6.3     1021.3       14.8       10.7        0.0        0.0        0.0       0.00       28.3       2.11       0.00       20.2
8:42               55        0.0         65       12.8      176.0       12.8       14.1        6.4     1021.4       14.8       10.7        0.0        0.0        0.0       0.00       28.5       2.11       0.00       20.2
8:44               44        0.0         64       12.9      176.0       12.9       14.2        6.3     1021.4       14.8       10.7        0.0        0.0        0.0       0.00       28.7       2.11       0.00       20.2
8:46               33        0.0         64       13.1      176.0       13.1       14.3        6.4     1021.4       14.8       10.7        0.0        0.0        0.0       0.00       28.9       2.16       0.00       20.2
8:48               38        0.0         64       13.2      176.0       13.2       14.4        6.5     1021.5       14.8       10.7        0.0        0.0        0.0       0.00       29.1       2.16       0.00       20.2
8:50               40        0.0         64       13.3      176.0       13.3       14.5        6.6     1021.5       14.8       10.7        0.0        0.0        0.0       0.00       29.4       2.16       0.00       20.2
8:52               32        0.0         63       13.4      176.0       13.4       14.6        6.5     1021.4       14.8       10.7        0.0        0.0        0.0       0.00       29.6       2.16       0.00       20.2
8:54               30        0.0         63       13.5      176.0       13.5       14.7        6.6     1021.4       14.8       10.7        0.0        0.0        0.0       0.00       29.8       2.16       0.00       20.2
8:56               32        0.0         62       13.7      176.0       13.7       14.8        6.5     1021.4       14.8       10.7        0.0        0.0        0.0       0.00       29.9       2.16       0.00       20.2
8:58               32        0.0         62       13.8      176.0       13.8       14.9        6.6     1021.3       14.8       10.7        0.0        0.0        0.0       0.00       30.1       2.16       0.00       20.2
9:00               38        0.0         61       13.8      176.0       13.8       14.9        6.4     1021.4       14.8       10.7        0.0        0.0        0.0       0.00       30.3       2.16       0.00       20.2
9:02               71        0.0         60       14.0      176.0       14.0       15.0        6.4     1021.4       14.8       10.7        0.0        0.0        0.0       0.00       30.5       2.20       0.00       20.2
9:04               34        0.0         60       14.1      176.0       14.1       15.1        6.5     1021.4       14.8       10.7        0.0        0.0        0.0       0.00       30.7       2.20       0.00       20.2
9:06               45        0.0         59       14.2      176.0       14.2       15.2        6.3     1021.4       14.8       10.7        0.0        0.0        0.0       0.00       31.0       2.20       0.00       20.2
9:08               36        0.0         59       14.3      176.0       14.3       15.3        6.4     1021.4       14.8       10.7        0.0        0.0        0.0       0.00       31.1       2.20       0.00       20.2
9:10               36        0.0         59       14.4      176.0       14.4       15.4        6.5     1021.5       14.8       10.7        0.0        0.0        0.0       0.00       31.4       2.20       0.00       20.2
9:12               53        0.0         57       14.5      176.0       14.5       15.3        6.1     1021.4       14.8       10.7        0.0        0.0        0.0       0.00       31.6       2.20       0.00       20.2
9:14               23        0.0         58       14.6      176.0       14.6       15.4        6.4     1021.5       14.8       10.7        0.0        0.0        0.0       0.00       31.8       2.20       0.00       20.2
9:16               15        0.0         58       14.6      176.0       14.6       15.5        6.4     1021.5       14.8       10.7        0.0        0.0        0.0       0.00       32.0       2.24       0.00       20.2
9:17               38        0.0         57       14.7      176.0       14.7       15.6        6.3     1021.5       14.8       10.7        0.0        0.0        0.0       0.00       32.2       2.24       0.00       20.2
9:20               35        0.0         57       14.8      176.0       14.8       15.6        6.4     1021.5       14.8       10.7        0.0        0.0        0.0       0.00       32.4       2.24       0.00       20.2
9:22               29        0.0         57       14.9      176.0       14.9       15.7        6.5     1021.6       14.9       10.7        0.0        0.0        0.0       0.00       32.5       2.24       0.00       20.2
9:24               48        0.0         56       15.0      176.0       15.0       15.8        6.3     1021.6       15.0       10.7        0.0        0.0        0.0       0.00       32.7       2.24       0.00       20.2
9:26               38        0.0         56       15.1      176.0       15.1       15.9        6.4     1021.7       15.1       10.7        0.0        0.0        0.0       0.00       32.9       2.24       0.00       20.2
9:28               57        0.0         56       15.2      176.0       15.2       15.9        6.5     1021.6       15.2       10.7        0.0        0.0        0.0       0.00       33.1       2.24       0.00       20.2
9:30               57        0.0         56       15.3      176.0       15.3       16.1        6.6     1021.7       15.3       10.7        0.0        0.0        0.0       0.00       33.2       2.24       0.00       20.2
9:32               25        0.0         55       15.4      176.0       15.4       16.1        6.4     1021.7       15.4       10.7        0.0        0.0        0.0       0.00       33.4       2.27       0.00       20.2
9:34               38        0.0         55       15.5      176.0       15.5       16.2        6.5     1021.6       15.5       10.7        0.0        0.0        0.0       0.00       33.6       2.27       0.00       20.2
9:36               52        0.0         55       15.6      176.0       15.6       16.3        6.6     1021.7       15.6       10.7        0.0        0.0        0.0       0.00       33.7       2.27       0.00       20.2
9:38               29        0.0         55       15.7      176.0       15.7       16.4        6.7     1021.6       15.7       10.7        0.0        0.0        0.0       0.00       33.9       2.27       0.00       20.2
9:40               29        0.0         54       15.8      176.0       15.8       16.4        6.5     1021.6       15.8       10.7        0.0        0.0        0.0       0.00       34.2       2.27       0.00       20.2
9:42               28        0.0         54       15.8      176.0       15.8       16.4        6.5     1021.7       15.8       10.7        0.0        0.0        0.0       0.00       34.3       2.27       0.00       20.2
9:44               26        0.0         53       15.8      176.0       15.8       16.4        6.3     1021.7       15.8       10.7        0.0        0.0        0.0       0.00       34.5       2.27       0.00       20.2
9:46               25        0.0         53       15.9      176.0       15.9       16.5        6.3     1021.5       15.9       10.7        0.0        0.0        0.0       0.00       34.7       2.29       0.00       20.2
9:48               46        0.0         53       15.9      176.0       15.9       16.6        6.4     1021.6       15.9       10.7        0.0        0.0        0.0       0.00       34.9       2.29       0.00       20.2
9:49               18        0.0         53       16.0      176.0       16.0       16.6        6.4     1021.6       16.0       10.7        0.0        0.0        0.0       0.00       35.0       2.29       0.00       20.2
9:52               43        0.0         52       16.1      176.0       16.1       16.6        6.2     1021.6       16.1       10.7        0.0        0.0        0.0       0.00       35.2       2.29       0.00       20.2
9:54               39        0.0         52       16.1      176.0       16.1       16.7        6.3     1021.6       16.1       10.7        0.0        0.0        0.0       0.00       35.4       2.29       0.00       20.2
9:56               27        0.0         52       16.2      176.0       16.2       16.7        6.3     1021.5       16.2       10.7        0.0        0.0        0.0       0.00       35.6       2.29       0.00       20.2
9:58               49        0.0         52       16.3      176.0       16.3       16.8        6.4     1021.5       16.3       10.7        0.0        0.0        0.0       0.00       35.8       2.29       0.00       20.2
10:00              49        0.0         51       16.4      176.0       16.4       16.9        6.2     1021.5       16.4       10.7        0.0        0.0        0.0       0.00       36.0       2.29       0.00       20.2
10:02              49        0.0         51       16.5      176.0       16.5       17.0        6.3     1021.5       16.5       10.7        0.0        0.0        0.0       0.00       36.1       2.30       0.00       20.2
10:04              54        0.0         51       16.6      176.0       16.6       17.1        6.4     1021.4       16.6       10.7        0.0        0.0        0.0       0.00       36.3       2.30       0.00       20.2
10:06              51        0.0         50       16.7      176.0       16.7       17.1        6.2     1021.5       16.7       10.7        0.0        0.0        0.0       0.00       36.6       2.30       0.00       20.2
10:08              53        0.0         50       16.8      176.0       16.8       17.2        6.3     1021.5       16.8       10.7        0.0        0.0        0.0       0.00       36.8       2.30       0.00       20.2
10:10              63        0.0         49       16.8      176.0       16.8       17.2        6.1     1021.4       16.8       10.7        0.0        0.0        0.0       0.00       37.0       2.30       0.00       20.2
10:12              34        0.0         49       16.8      176.0       16.8       17.2        6.1     1021.4       16.8       10.7        0.0        0.0        0.0       0.00       37.3       2.30       0.00       20.2
10:14              38        0.0         49       16.9      176.0       16.9       17.3        6.1     1021.4       16.9       10.7        0.0        0.0        0.0       0.00       37.4       2.30       0.00       20.2
10:16              60        0.0         49       16.9      176.0       16.9       17.3        6.2     1021.4       16.9       10.7        0.0        0.0        0.0       0.00       37.6       2.32       0.00       20.2
10:18              40        0.0         49       17.1      176.0       17.1       17.4        6.3     1021.4       17.1       10.7        0.0        0.0        0.0       0.00       37.8       2.32       0.00       20.2
10:20              43        0.0         48       17.1      176.0       17.1       17.5        6.0     1021.3       17.1       10.7        0.0        0.0        0.0       0.00       37.9       2.32       0.00       20.2
10:22              36        0.0         49       17.2      176.0       17.2       17.6        6.4     1021.5       17.2       10.7        0.0        0.0        0.0       0.00       38.1       2.32       0.00       20.2
10:24              39        0.0         49       17.3      176.0       17.3       17.7        6.5     1021.4       17.3       10.7        0.0        0.0        0.0       0.00       38.2       2.32       0.00       20.2
10:26              29        0.0         49       17.3      176.0       17.3       17.7        6.5     1021.3       17.3       10.7        0.0        0.0        0.0       0.00       38.4       2.32       0.00       20.2
10:28              66        0.0         48       17.4      176.0       17.4       17.8        6.3     1021.4       17.4       10.7        0.0        0.0        0.0       0.00       38.6       2.32       0.00       20.2
10:30              57        0.0         48       17.5      176.0       17.5       17.8        6.4     1021.4       17.5       10.7        0.0        0.0        0.0       0.00       38.8       2.32       0.00       20.2
10:32              36        0.0         48       17.6      176.0       17.6       17.9        6.4     1021.3       17.6       10.7        0.0        0.0        0.0       0.00       39.0       2.32       0.00       20.2
10:34              67        0.0         47       17.5      176.0       17.5       17.8        6.1     1021.4       17.6       10.7        0.0        0.0        0.0       0.00       39.3       2.32       0.00       20.2
10:36              65        0.0         47       17.6      176.0       17.6       17.8        6.1     1021.4       17.6       10.7        0.0        0.0        0.0       0.00       39.5       2.32       0.00       20.2
10:38              53        0.0         47       17.6      176.0       17.6       17.9        6.2     1021.3       17.6       10.7        0.0        0.0        0.0       0.00       39.7       2.32       0.00       20.2
10:40              66        0.0         48       17.7      176.0       17.7       18.1        6.6     1021.3       17.7       10.7        0.0        0.0        0.0       0.00       39.9       2.32       0.00       20.2
10:42              65        0.0         48       17.8      176.0       17.8       18.2        6.7     1021.3       17.8       10.7        0.0        0.0        0.0       0.00       40.0       2.32       0.00       20.2
10:44              65        0.0         47       18.0      176.0       18.0       18.3        6.5     1021.3       18.0       10.7        0.0        0.0        0.0       0.00       40.2       2.32       0.00       20.2
10:46              46        0.0         47       18.1      176.0       18.1       18.4        6.6     1021.3       18.1       10.7        0.0        0.0        0.0       0.00       40.4       2.32       0.00       20.2
10:48              66        0.0         46       18.2      176.0       18.2       18.4        6.4     1021.3       18.2       10.7        0.0        0.0        0.0       0.00       40.6       2.32       0.00       20.2
10:50              42        0.0         46       18.2      176.0       18.2       18.5        6.4     1021.1       18.2       10.7        0.0        0.0        0.0       0.00       40.9       2.32       0.00       20.2
10:52              53        0.0         47       18.3      176.0       18.3       18.6        6.8     1021.2       18.3       10.7        0.0        0.0        0.0       0.00       41.0       2.32       0.00       20.2
10:54              74        0.0         47       18.3      176.0       18.3       18.6        6.8     1021.1       18.3       10.7        0.0        0.0        0.0       0.00       41.2       2.32       0.00       20.2
10:56              69        0.0         46       18.4      176.0       18.4       18.6        6.6     1021.1       18.4       10.7        0.0        0.0        0.0       0.00       41.5       2.32       0.00       20.2
10:58              71        0.0         46       18.4      176.0       18.4       18.6        6.6     1021.0       18.4       10.7        0.0        0.0        0.0       0.00       41.8       2.32       0.00       20.2
11:00              79        0.0         46       18.5      176.0       18.5       18.7        6.7     1021.1       18.5       10.7        0.0        0.0        0.0       0.00       42.0       2.32       0.00       20.2
11:02              85        0.0         46       18.6      176.0       18.6       18.8        6.7     1021.1       18.6       10.7        0.0        0.0        0.0       0.00       42.2       2.32       0.00       20.2
11:04              72        0.0         46       18.6      176.0       18.6       18.9        6.8     1021.0       18.6       10.7        0.0        0.0        0.0       0.00       42.4       2.32       0.00       20.2
11:06              73        0.0         46       18.7      176.0       18.7       19.0        6.9     1021.1       18.7       10.7        0.0        0.0        0.0       0.00       42.6       2.32       0.00       20.2
11:08              51        0.0         45       18.8      176.0       18.8       19.0        6.7     1021.0       18.8       10.7        0.0        0.0        0.0       0.00       42.9       2.32       0.00       20.2
11:10              69        0.0         45       18.9      176.0       18.9       19.1        6.7     1021.1       18.9       10.7        0.0        0.0        0.0       0.00       43.1       2.32       0.00       20.2
11:12              66        0.0         45       18.9      176.0       18.9       19.1        6.7     1021.0       18.9       10.7        0.0        0.0        0.0       0.00       43.3       2.32       0.00       20.2
11:14              38        0.0         45       18.9      176.0       18.9       19.1        6.8     1021.1       18.9       10.7        0.0        0.0        0.0       0.00       43.5       2.32       0.00       20.2
11:16              59        0.0         45       19.0      176.0       19.0       19.2        6.8     1021.0       19.0       10.7        0.0        0.0        0.0       0.00       43.7       2.32       0.00       20.2
11:18              63        0.0         45       19.0      176.0       19.0       19.2        6.8     1020.9       19.0       10.7        0.0        0.0        0.0       0.00       43.9       2.32       0.00       20.2
11:20              43        0.0         45       19.1      176.0       19.1       19.2        6.9     1021.0       19.1       10.7        0.0        0.0        0.0       0.00       44.1       2.32       0.00       20.2
11:22              39        0.0         44       19.1      176.0       19.1       19.3        6.6     1021.1       19.1       10.7        0.0        0.0        0.0       0.00       44.4       2.32       0.00       20.2
11:24              26        0.0         44       19.1      176.0       19.1       19.3        6.6     1021.0       19.1       10.7        0.0        0.0        0.0       0.00       44.6       2.32       0.00       20.2
11:26              36        0.0         45       19.1      176.0       19.1       19.3        6.9     1021.0       19.1       10.7        0.0        0.0        0.0       0.00       44.8       2.32       0.00       20.2
11:28              51        0.0         45       19.2      176.0       19.2       19.4        7.0     1020.9       19.2       10.7        0.0        0.0        0.0       0.00       44.9       2.32       0.00       20.2
11:29              12        0.0         45       19.3      176.0       19.3       19.5        7.1     1020.8       19.3       10.7        0.0        0.0        0.0       0.00       45.1       2.32       0.00       20.2
11:32              34        0.0         44       19.3      176.0       19.3       19.4        6.7     1020.8       19.3       10.7        0.0        0.0        0.0       0.00       45.3       2.32       0.00       20.2
11:34              66        0.0         45       19.3      176.0       19.3       19.5        7.1     1020.8       19.3       10.7        0.0        0.0        0.0       0.00       45.5       2.32       0.00       20.2
11:36              49        0.0         45       19.3      176.0       19.3       19.5        7.1     1020.9       19.3       10.7        0.0        0.0        0.0       0.00       45.7       2.32       0.00       20.2
11:38              69        0.0         44       19.4      176.0       19.4       19.6        6.9     1020.8       19.4       10.7        0.0        0.0        0.0       0.00       45.8       2.32       0.00       20.2
11:40              65        0.0         44       19.6      176.0       19.6       19.7        7.0     1020.8       19.6       10.7        0.0        0.0        0.0       0.00       46.0       2.32       0.00       20.2
11:42              65        0.0         44       19.7      176.0       19.7       19.8        7.1     1020.7       19.7       10.7        0.0        0.0        0.0       0.00       46.1       2.32       0.00       20.2
11:44              66        0.0         44       19.8      176.0       19.8       20.0        7.2     1020.7       19.8       10.7        0.0        0.0        0.0       0.00       46.2       2.32       0.00       20.2
11:46              66        0.0         44       20.0      176.0       20.0       20.1        7.4     1020.7       20.0       10.7        0.0        0.0        0.0       0.00       46.3       2.32       0.00       20.2
11:48              44        0.0         44       20.1      176.0       20.1       20.3        7.5     1020.7       20.1       10.7        0.0        0.0        0.0       0.00       46.5       2.32       0.00       20.2
11:50              85        0.0         43       20.2      176.0       20.2       20.3        7.3     1020.7       20.2       10.7        0.0        0.0        0.0       0.00       46.7       2.32       0.00       20.2
11:52              82        0.0         43       20.3      176.0       20.3       20.4        7.4     1020.7       20.3       10.7        0.0        0.0        0.0       0.00       46.9       2.32       0.00       20.2
11:54              66        0.0         43       20.4      176.0       20.4       20.5        7.4     1020.7       20.4       10.7        0.0        0.0        0.0       0.00       47.1       2.32       0.00       20.2
11:56              64        0.0         43       20.5      176.0       20.5       20.6        7.5     1020.7       20.5       10.7        0.0        0.0        0.0       0.00       47.2       2.32       0.00       20.2
11:58              21        0.0         43       20.5      176.0       20.5       20.6        7.5     1020.7       20.5       10.7        0.0        0.0        0.0       0.00       47.4       2.32       0.00       20.2
12:00              21        0.0         43       20.4      176.0       20.4       20.5        7.5     1020.6       20.5       10.7        0.0        0.0        0.0       0.00       47.5       2.32       0.00       20.2
12:02              21        0.0         44       20.5      176.0       20.5       20.6        7.8     1020.7       20.5       10.7        0.0        0.0        0.0       0.00       47.6       2.32       0.00       20.2
12:04              23        0.0         43       20.6      176.0       20.6       20.7        7.6     1020.6       20.6       10.7        0.0        0.0        0.0       0.00       47.7       2.32       0.00       20.2
12:06              33        0.0         42       20.6      176.0       20.6       20.7        7.3     1020.6       20.6       10.7        0.0        0.0        0.0       0.00       47.9       2.32       0.00       20.2
12:08              41        0.0         43       20.7      176.0       20.7       20.8        7.7     1020.6       20.7       10.7        0.0        0.0        0.0       0.00       48.0       2.32       0.00       20.2
12:10              26        0.0         42       20.8      176.0       20.8       20.8        7.4     1020.6       20.8       10.7        0.0        0.0        0.0       0.00       48.2       2.32       0.00       20.2
12:12              72        0.0         42       20.8      176.0       20.8       20.9        7.5     1020.6       20.8       10.7        0.0        0.0        0.0       0.00       48.4       2.32       0.00       20.2
12:14              60        0.0         42       20.9      176.0       20.9       20.9        7.5     1020.6       20.9       10.7        0.0        0.0        0.0       0.00       48.6       2.32       0.00       20.2
12:16              60        0.0         42       21.0      176.0       21.0       21.1        7.6     1020.6       21.0       10.7        0.0        0.0        0.0       0.00       48.7       2.32       0.00       20.2
12:18              25        0.0         43       21.0      176.0       21.0       21.1        8.0     1020.5       21.0       10.7        0.0        0.0        0.0       0.00       48.8       2.32       0.00       20.2
12:20              10        0.0         43       21.1      176.0       21.1       21.2        8.0     1020.5       21.1       10.7        0.0        0.0        0.0       0.00       49.0       2.32       0.00       20.2
12:22              10        0.0         42       21.0      176.0       21.0       21.1        7.6     1020.6       21.1       10.7        0.0        0.0        0.0       0.00       49.1       2.32       0.00       20.2
12:24              10        0.0         44       21.0      176.0       21.0       21.1        8.3     1020.5       21.1       10.7        0.0        0.0        0.0       0.00       49.3       2.32       0.00       20.2
12:26               9        0.0         43       21.0      176.0       21.0       21.1        8.0     1020.5       21.1       10.7        0.0        0.0        0.0       0.00       49.4       2.32       0.00       20.2
12:28              32        0.0         42       21.0      176.0       21.0       21.1        7.6     1020.4       21.1       10.7        0.0        0.0        0.0       0.00       49.6       2.32       0.00       20.2
12:30              24        0.0         43       21.1      176.0       21.1       21.2        8.0     1020.4       21.1       10.7        0.0        0.0        0.0       0.00       49.7       2.32       0.00       20.2
12:32              13        0.0         43       21.2      176.0       21.2       21.3        8.1     1020.3       21.2       10.7        0.0        0.0        0.0       0.00       49.8       2.32       0.00       20.2
12:34              13        0.0         43       21.3      176.0       21.3       21.4        8.2     1020.3       21.3       10.7        0.0        0.0        0.0       0.00       49.9       2.32       0.00       20.2
12:36              17        0.0         43       21.3      176.0       21.3       21.4        8.3     1020.3       21.4       10.7        0.0        0.0        0.0       0.00       49.9       2.32       0.00       20.2
12:38              59        0.0         41       21.4      176.0       21.4       21.4        7.7     1020.4       21.4       10.7        0.0        0.0        0.0       0.00       50.2       2.32       0.00       20.2
12:39              55        0.0         40       21.5      176.0       21.5       21.5        7.3     1020.4       21.5       10.7        0.0        0.0        0.0       0.00       50.4       2.32       0.00       20.2
12:42              55        0.0         41       21.5      176.0       21.5       21.5        7.7     1020.3       21.5       10.7        0.0        0.0        0.0       0.00       50.5       2.32       0.00       20.2
12:44              24        0.0         41       21.6      176.0       21.6       21.6        7.8     1020.3       21.6       10.7        0.0        0.0        0.0       0.00       50.6       2.32       0.00       20.2
12:46              24        0.0         41       21.6      176.0       21.6       21.6        7.8     1020.3       21.6       10.7        0.0        0.0        0.0       0.00       50.8       2.32       0.00       20.2
12:48              43        0.0         40       21.6      176.0       21.6       21.5        7.4     1020.2       21.6       10.7        0.0        0.0        0.0       0.00       51.0       2.32       0.00       20.2
12:50              30        0.0         40       21.6      176.0       21.6       21.6        7.4     1020.1       21.6       10.7        0.0        0.0        0.0       0.00       51.1       2.32       0.00       20.2
12:52              14        0.0         39       21.6      176.0       21.6       21.5        7.1     1020.2       21.6       10.7        0.0        0.0        0.0       0.00       51.3       2.32       0.00       20.2
12:54              72        0.0         40       21.6      176.0       21.6       21.6        7.4     1020.2       21.6       10.7        0.0        0.0        0.0       0.00       51.4       2.32       0.00       20.2
12:56              66        0.0         40       21.7      176.0       21.7       21.6        7.5     1020.2       21.7       10.7        0.0        0.0        0.0       0.00       51.6       2.32       0.00       20.2
12:58              67        0.0         40       21.7      176.0       21.7       21.7        7.5     1020.2       21.7       10.7        0.0        0.0        0.0       0.00       51.7       2.32       0.00       20.2
13:00              67        0.0         40       21.8      176.0       21.8       21.8        7.6     1020.2       21.8       10.7        0.0        0.0        0.0       0.00       51.8       2.32       0.00       20.2
13:02              67        0.0         39       21.9      176.0       21.9       21.9        7.4     1020.2       21.9       10.7        0.0        0.0        0.0       0.00       52.0       2.32       0.00       20.2
13:04              34        0.0         40       22.1      176.0       22.1       22.0        7.8     1020.1       22.1       10.7        0.0        0.0        0.0       0.00       52.1       2.32       0.00       20.2
13:06              28        0.0         39       22.1      176.0       22.1       22.0        7.5     1020.2       22.1       10.7        0.0        0.0        0.0       0.00       52.2       2.32       0.00       20.2
13:08              33        0.0         40       22.2      176.0       22.2       22.1        7.9     1020.1       22.2       10.7        0.0        0.0        0.0       0.00       52.4       2.32       0.00       20.2
13:10              34        0.0         40       22.2      176.0       22.2       22.2        8.0     1020.2       22.2       10.7        0.0        0.0        0.0       0.00       52.6       2.32       0.00       20.2
13:12              11        0.0         40       22.3      176.0       22.3       22.2        8.0     1020.1       22.3       10.7        0.0        0.0        0.0       0.00       52.8       2.32       0.00       20.2
13:14              29        0.0         40       22.2      176.0       22.2       22.2        8.0     1020.1       22.3       10.7        0.0        0.0        0.0       0.00       53.0       2.32       0.00       20.2
13:16              40        0.0         41       22.2      176.0       22.2       22.2        8.4     1020.1       22.3       10.7        0.0        0.0        0.0       0.00       53.2       2.32       0.00       20.2
13:18              71        0.0         39       22.2      176.0       22.2       22.1        7.6     1020.0       22.3       10.7        0.0        0.0        0.0       0.00       53.4       2.32       0.00       20.2
13:20              65        0.0         39       22.3      176.0       22.3       22.2        7.7     1020.0       22.3       10.7        0.0        0.0        0.0       0.00       53.6       2.32       0.00       20.2
13:22              87        0.0         38       22.5      176.0       22.5       22.4        7.5     1020.0       22.5       10.7        0.0        0.0        0.0       0.00       53.8       2.32       0.00       20.2
13:24              91        0.0         38       22.6      176.0       22.6       22.5        7.6     1020.0       22.6       10.7        0.0        0.0        0.0       0.00       53.9       2.32       0.00       20.2
13:26              91        0.0         39       22.7      176.0       22.7       22.6        8.1     1019.9       22.7       10.7        0.0        0.0        0.0       0.00       54.1       2.32       0.00       20.2
13:28              90        0.0         38       22.9      176.0       22.9       22.8        7.8     1019.8       22.9       10.7        0.0        0.0        0.0       0.00       54.2       2.32       0.00       20.2
13:30              68        0.0         37       23.0      176.0       23.0       22.8        7.5     1019.8       23.0       10.7        0.0        0.0        0.0       0.00       54.4       2.32       0.00       20.2
13:32              51        0.0         37       23.1      176.0       23.1       22.9        7.6     1019.7       23.1       10.7        0.0        0.0        0.0       0.00       54.5       2.32       0.01       20.2
13:34              51        0.0         37       23.1      176.0       23.1       22.9        7.6     1019.7       23.1       10.7        0.0        0.0        0.0       0.00       54.6       2.32       0.01       20.2
13:36              51        0.0         37       23.1      176.0       23.1       22.9        7.6     1019.6       23.1       10.7        0.0        0.0        0.0       0.00       54.7       2.32       0.01       20.2
13:38              62        0.0         37       23.1      176.0       23.1       22.9        7.6     1019.6       23.1       10.7        0.0        0.0        0.0       0.00       54.8       2.32       0.01       20.2
13:40              49        0.0         38       23.2      176.0       23.2       23.0        8.1     1019.6       23.2       10.7        0.0        0.0        0.0       0.00       54.9       2.32       0.01       20.2
13:42              42        0.0         37       23.1      176.0       23.1       22.9        7.6     1019.6       23.2       10.7        0.0        0.0        0.0       0.00       55.1       2.32       0.01       20.2
13:44              41        0.0         38       22.9      176.0       22.9       22.8        7.8     1019.4       23.2       10.7        0.0        0.0        0.0       0.00       55.2       2.32       0.01       20.2
13:46              20        0.0         37       22.8      176.0       22.8       22.7        7.4     1019.4       23.2       10.7        0.0        0.0        0.0       0.00       55.4       2.32       0.02       20.2
13:48               9        0.0         36       22.8      176.0       22.8       22.6        6.9     1019.4       23.2       10.7        0.0        0.0        0.0       0.00       55.6       2.32       0.02       20.2
13:50              35        0.0         36       22.8      176.0       22.8       22.6        6.9     1019.4       23.2       10.7        0.0        0.0        0.0       0.00       55.8       2.32       0.02       20.2
13:52              30        0.0         36       22.8      176.0       22.8       22.6        7.0     1019.4       23.2       10.7        0.0        0.0        0.0       0.00       56.0       2.32       0.02       20.2
13:54              37        0.0         36       22.8      176.0       22.8       22.6        7.0     1019.4       23.2       10.7        0.0        0.0        0.0       0.00       56.2       2.32       0.02       20.2
13:56              59        0.0         36       22.9      176.0       22.9       22.7        7.0     1019.4       23.2       10.7        0.0        0.0        0.0       0.00       56.3       2.32       0.02       20.2
13:58              59        0.0         37       22.9      176.0       22.9       22.8        7.5     1019.3       23.2       10.7        0.0        0.0        0.0       0.00       56.4       2.32       0.02       20.2
14:00              69        0.0         37       23.0      176.0       23.0       22.8        7.5     1019.4       23.2       10.7        0.0        0.0        0.0       0.00       56.6       2.32       0.02       20.2
14:02              55        0.0         36       23.1      176.0       23.1       22.8        7.2     1019.3       23.2       10.7        0.0        0.0        0.0       0.00       56.8       2.32       0.03       20.2
14:04              75        0.0         35       23.2      176.0       23.2       22.9        6.9     1019.3       23.2       10.7        0.0        0.0        0.0       0.00       57.0       2.32       0.03       20.2
14:06              74        0.0         34       23.3      176.0       23.3       23.0        6.6     1019.3       23.3       10.7        0.0        0.0        0.0       0.00       57.2       2.32       0.03       20.2
14:08              76        0.0         35       23.4      176.0       23.4       23.1        7.1     1019.3       23.4       10.7        0.0        0.0        0.0       0.00       57.3       2.32       0.03       20.2
14:10              76        0.0         35       23.5      176.0       23.5       23.2        7.2     1019.2       23.5       10.7        0.0        0.0        0.0       0.00       57.4       2.32       0.03       20.2
14:12              73        0.0         35       23.6      176.0       23.6       23.4        7.3     1019.3       23.6       10.7        0.0        0.0        0.0       0.00       57.6       2.32       0.03       20.2
14:14              29        0.0         35       23.7      176.0       23.7       23.5        7.4     1019.2       23.7       10.7        0.0        0.0        0.0       0.00       57.8       2.32       0.03       20.2
14:16              19        0.0         35       23.7      176.0       23.7       23.5        7.4     1019.2       23.8       10.7        0.0        0.0        0.0       0.00       58.0       2.32       0.05       20.2
14:18              20        0.0         35       23.6      176.0       23.6       23.4        7.3     1019.2       23.8       10.7        0.0        0.0        0.0       0.00       58.1       2.32       0.05       20.2
14:20              53        0.0         35       23.6      176.0       23.6       23.3        7.2     1019.2       23.8       10.7        0.0        0.0        0.0       0.00       58.3       2.32       0.05       20.2
14:22              53        0.0         35       23.6      176.0       23.6       23.3        7.2     1019.2       23.8       10.7        0.0        0.0        0.0       0.00       58.4       2.32       0.05       20.2
14:24              50        0.0         35       23.6      176.0       23.6       23.4        7.3     1019.2       23.8       10.7        0.0        0.0        0.0       0.00       58.6       2.32       0.05       20.2
14:26              56        0.0         34       23.6      176.0       23.6       23.3        6.8     1019.2       23.8       10.7        0.0        0.0        0.0       0.00       58.8       2.32       0.05       20.2
14:28              35        0.0         34       23.6      176.0       23.6       23.3        6.8     1019.1       23.8       10.7        0.0        0.0        0.0       0.00       59.0       2.32       0.05       20.2
14:30               9        0.0         35       23.6      176.0       23.6       23.3        7.2     1019.2       23.8       10.7        0.0        0.0        0.0       0.00       59.2       2.32       0.05       20.2
14:32               5        0.0         35       23.4      176.0       23.4       23.2        7.1     1019.2       23.8       10.7        0.0        0.0        0.0       0.00       59.4       2.32       0.07       20.2
14:34              23        0.0         33       23.4      176.0       23.4       23.1        6.2     1019.2       23.8       10.7        0.0        0.0        0.0       0.00       59.7       2.32       0.07       20.2
14:36              10        0.0         34       23.3      176.0       23.3       23.0        6.6     1019.2       23.8       10.7        0.0        0.0        0.0       0.00       59.9       2.32       0.07       20.2
14:38              16        0.0         35       23.2      176.0       23.2       22.9        6.9     1019.2       23.8       10.7        0.0        0.0        0.0       0.00       60.1       2.32       0.07       20.2
14:40              11        0.0         35       23.1      176.0       23.1       22.9        6.8     1019.1       23.8       10.7        0.0        0.0        0.0       0.00       60.2       2.32       0.07       20.2
14:42              28        0.0         34       23.1      176.0       23.1       22.8        6.4     1019.2       23.8       10.7        0.0        0.0        0.0       0.00       60.4       2.32       0.07       20.2
14:44              28        0.0         35       23.1      176.0       23.1       22.8        6.8     1019.1       23.8       10.7        0.0        0.0        0.0       0.00       60.7       2.32       0.07       20.2
14:46              37        0.0         35       23.1      176.0       23.1       22.9        6.8     1019.2       23.8       10.7        0.0        0.0        0.0       0.00       60.8       2.32       0.08       20.2
14:48               5        0.0         35       23.2      176.0       23.2       23.0        6.9     1019.3       23.8       10.7        0.0        0.0        0.0       0.00       61.0       2.32       0.08       20.2
14:50               5        0.0         34       23.3      176.0       23.3       23.0        6.6     1019.3       23.8       10.7        0.0        0.0        0.0       0.00       61.2       2.32       0.08       20.2
14:52              20        0.0         34       23.3      176.0       23.3       23.0        6.6     1019.1       23.8       10.7        0.0        0.0        0.0       0.00       61.4       2.32       0.08       20.2
14:54              24        0.0         34       23.2      176.0       23.2       22.9        6.5     1019.1       23.8       10.7        0.0        0.0        0.0       0.00       61.7       2.32       0.08       20.2
14:56               5        0.0         35       23.2      176.0       23.2       23.0        6.9     1019.1       23.8       10.7        0.0        0.0        0.0       0.00       61.9       2.32       0.08       20.2
14:58              26        0.0         34       23.3      176.0       23.3       23.0        6.6     1019.1       23.8       10.7        0.0        0.0        0.0       0.00       62.1       2.32       0.08       20.2
15:00              42        0.0         34       23.3      176.0       23.3       23.0        6.6     1019.0       23.8       10.7        0.0        0.0        0.0       0.00       62.3       2.32       0.08       20.2
15:02              51        0.0         34       23.4      176.0       23.4       23.1        6.6     1019.0       23.8       10.7        0.0        0.0        0.0       0.00       62.5       2.32       0.09       20.2
15:04               5        0.0         34       23.4      176.0       23.4       23.1        6.7     1019.0       23.8       10.7        0.0        0.0        0.0       0.00       62.7       2.32       0.09       20.2
15:06              31        0.0         34       23.4      176.0       23.4       23.1        6.7     1019.1       23.8       10.7        0.0        0.0        0.0       0.00       62.9       2.32       0.09       20.2
15:08              33        0.0         34       23.4      176.0       23.4       23.1        6.7     1019.0       23.8       10.7        0.0        0.0        0.0       0.00       63.0       2.32       0.09       20.2
15:10              33        0.0         35       23.5      176.0       23.5       23.2        7.2     1018.9       23.8       10.7        0.0        0.0        0.0       0.00       63.1       2.32       0.09       20.2
15:12              36        0.0         34       23.6      176.0       23.6       23.3        6.8     1018.9       23.8       10.7        0.0        0.0        0.0       0.00       63.3       2.32       0.09       20.2
15:14              36        0.0         34       23.7      176.0       23.7       23.4        6.9     1018.9       23.8       10.7        0.0        0.0        0.0       0.00       63.4       2.32       0.09       20.2
15:16              37        0.0         34       23.8      176.0       23.8       23.5        7.0     1018.8       23.8       10.7        0.0        0.0        0.0       0.00       63.6       2.32       0.11       20.2
15:18              31        0.0         34       23.8      176.0       23.8       23.5        7.0     1018.8       23.8       10.7        0.0        0.0        0.0       0.00       63.8       2.32       0.11       20.2
15:20              30        0.0         34       23.8      176.0       23.8       23.5        7.0     1018.8       23.8       10.7        0.0        0.0        0.0       0.00       63.9       2.32       0.11       20.2
15:22              30        0.0         35       23.8      176.0       23.8       23.5        7.4     1018.7       23.8       10.7        0.0        0.0        0.0       0.00       64.0       2.32       0.11       20.2
15:24              28        0.0         34       23.8      176.0       23.8       23.5        7.0     1018.7       23.8       10.7        0.0        0.0        0.0       0.00       64.2       2.32       0.11       20.2
15:26              28        0.0         35       23.8      176.0       23.8       23.6        7.5     1018.8       23.8       10.7        0.0        0.0        0.0       0.00       64.4       2.32       0.11       20.2
15:28              26        0.0         35       23.8      176.0       23.8       23.6        7.5     1018.7       23.8       10.7        0.0        0.0        0.0       0.00       64.6       2.32       0.11       20.2
15:30              44        0.0         35       23.8      176.0       23.8       23.5        7.4     1018.9       23.8       10.7        0.0        0.0        0.0       0.00       64.9       2.32       0.11       20.2
15:32              42        0.0         36       23.8      176.0       23.8       23.6        7.8     1018.6       23.8       10.7        0.0        0.0        0.0       0.00       65.1       2.32       0.13       20.2
15:34               5        0.0         35       23.7      176.0       23.7       23.5        7.4     1018.6       23.8       10.7        0.0        0.0        0.0       0.00       65.2       2.32       0.13       20.2
15:36              34        0.0         34       23.6      176.0       23.6       23.3        6.8     1018.7       23.8       10.7        0.0        0.0        0.0       0.00       65.5       2.32       0.13       20.2
15:38              74        0.0         35       23.6      176.0       23.6       23.4        7.3     1018.8       23.8       10.7        0.0        0.0        0.0       0.00       65.7       2.32       0.13       20.2
15:40              31        0.0         35       23.7      176.0       23.7       23.4        7.3     1018.7       23.8       10.7        0.0        0.0        0.0       0.00       65.9       2.32       0.13       20.2
15:42              27        0.0         34       23.7      176.0       23.7       23.4        6.9     1018.7       23.8       10.7        0.0        0.0        0.0       0.00       66.1       2.32       0.13       20.2
15:44              28        0.0         34       23.7      176.0       23.7       23.4        6.9     1018.6       23.8       10.7        0.0        0.0        0.0       0.00       66.2       2.32       0.13       20.2
15:46              34        0.0         34       23.8      176.0       23.8       23.5        7.0     1018.6       23.8       10.7        0.0        0.0        0.0       0.00       66.4       2.32       0.15       20.2
15:48              35        0.0         34       23.9      176.0       23.9       23.6        7.1     1018.6       23.9       10.7        0.0        0.0        0.0       0.00       66.6       2.32       0.15       20.2
15:50              25        0.0         33       23.9      176.0       23.9       23.6        6.7     1018.7       23.9       10.7        0.0        0.0        0.0       0.00       66.7       2.32       0.15       20.2
15:52              19        0.0         33       23.8      176.0       23.8       23.5        6.6     1018.7       23.9       10.7        0.0        0.0        0.0       0.00       66.9       2.32       0.15       20.2
15:54              27        0.0         33       23.8      176.0       23.8       23.5        6.6     1018.6       23.9       10.7        0.0        0.0        0.0       0.00       67.1       2.32       0.15       20.2
15:56              29        0.0         33       23.8      176.0       23.8       23.4        6.6     1018.6       23.9       10.7        0.0        0.0        0.0       0.00       67.3       2.32       0.15       20.2
15:58              35        0.0         33       23.7      176.0       23.7       23.4        6.5     1018.5       23.9       10.7        0.0        0.0        0.0       0.00       67.5       2.32       0.15       20.2
16:00               5        0.0         33       23.7      176.0       23.7       23.4        6.5     1018.5       23.9       10.7        0.0        0.0        0.0       0.00       67.8       2.32       0.15       20.2
16:02              27        0.0         33       23.7      176.0       23.7       23.4        6.5     1018.5       23.9       10.7        0.0        0.0        0.0       0.00       68.0       2.32       0.16       20.2
16:04               5        0.0         34       23.7      176.0       23.7       23.4        6.9     1018.5       23.9       10.7        0.0        0.0        0.0       0.00       68.1       2.32       0.16       20.2
16:06               9        0.0         34       23.7      176.0       23.7       23.4        6.9     1018.5       23.9       10.7        0.0        0.0        0.0       0.00       68.2       2.32       0.16       20.2
16:08              32        0.0         34       23.7      176.0       23.7       23.4        6.9     1018.5       23.9       10.7        0.0        0.0        0.0       0.00       68.4       2.32       0.16       20.2
16:10              47        0.0         34       23.7      176.0       23.7       23.4        6.9     1018.5       23.9       10.7        0.0        0.0        0.0       0.00       68.6       2.32       0.16       20.2
16:12              44        0.0         35       23.6      176.0       23.6       23.4        7.3     1018.5       23.9       10.7        0.0        0.0        0.0       0.00       68.7       2.32       0.16       20.2
16:14              61        0.0         35       23.6      176.0       23.6       23.4        7.3     1018.4       23.9       10.7        0.0        0.0        0.0       0.00       68.9       2.32       0.16       20.2
16:16              64        0.0         35       23.7      176.0       23.7       23.4        7.3     1018.4       23.9       10.7        0.0        0.0        0.0       0.00       69.1       2.32       0.18       20.2
16:18              53        0.0         35       23.7      176.0       23.7       23.4        7.3     1018.4       23.9       10.7        0.0        0.0        0.0       0.00       69.3       2.32       0.18       20.2
16:20              17        0.0         34       23.6      176.0       23.6       23.3        6.8     1018.5       23.9       10.7        0.0        0.0        0.0       0.00       69.5       2.32       0.18       20.2
16:22              28        0.0         35       23.6      176.0       23.6       23.3        7.2     1018.4       23.9       10.7        0.0        0.0        0.0       0.00       69.6       2.32       0.18       20.2
16:24              26        0.0         35       23.6      176.0       23.6       23.3        7.2     1018.3       23.9       10.7        0.0        0.0        0.0       0.00       69.8       2.32       0.18       20.2
16:26              26        0.0         35       23.6      176.0       23.6       23.3        7.2     1018.4       23.9       10.7        0.0        0.0        0.0       0.00       69.8       2.32       0.18       20.2
16:28              32        0.0         36       23.6      176.0       23.6       23.4        7.7     1018.4       23.9       10.7        0.0        0.0        0.0       0.00       70.0       2.32       0.18       20.2
16:30              13        0.0         35       23.6      176.0       23.6       23.4        7.3     1018.4       23.9       10.7        0.0        0.0        0.0       0.00       70.2       2.32       0.18       20.2
16:32              51        0.0         35       23.5      176.0       23.5       23.2        7.2     1018.4       23.9       10.7        0.0        0.0        0.0       0.00       70.4       2.32       0.20       20.2
16:34              45        0.0         35       23.5      176.0       23.5       23.2        7.2     1018.3       23.9       10.7        0.0        0.0        0.0       0.00       70.6       2.32       0.20       20.2
16:36              35        0.0         35       23.4      176.0       23.4       23.2        7.1     1018.4       23.9       10.7        0.0        0.0        0.0       0.00       70.8       2.32       0.20       20.2
16:38              17        0.0         35       23.4      176.0       23.4       23.1        7.1     1018.4       23.9       10.7        0.0        0.0        0.0       0.00       71.0       2.32       0.20       20.2
16:40               9        0.0         35       23.3      176.0       23.3       23.1        7.0     1018.3       23.9       10.7        0.0        0.0        0.0       0.00       71.2       2.32       0.20       20.2
16:42              33        0.0         35       23.2      176.0       23.2       23.0        6.9     1018.4       23.9       10.7        0.0        0.0        0.0       0.00       71.5       2.32       0.20       20.2
16:44              20        0.0         36       23.2      176.0       23.2       23.0        7.3     1018.4       23.9       10.7        0.0        0.0        0.0       0.00       71.7       2.32       0.20       20.2
16:46              15        0.0         36       23.2      176.0       23.2       23.0        7.3     1018.3       23.9       10.7        0.0        0.0        0.0       0.00       71.8       2.32       0.21       20.2
16:48              17        0.0         36       23.3      176.0       23.3       23.1        7.4     1018.4       23.9       10.7        0.0        0.0        0.0       0.00       71.9       2.32       0.21       20.2
16:50              20        0.0         36       23.3      176.0       23.3       23.1        7.4     1018.4       23.9       10.7        0.0        0.0        0.0       0.00       72.1       2.32       0.21       20.2
16:52              35        0.0         34       23.3      176.0       23.3       23.0        6.6     1018.4       23.9       10.7        0.0        0.0        0.0       0.00       72.4       2.32       0.21       20.2
16:53              18        0.0         35       23.3      176.0       23.3       23.0        7.0     1018.4       23.9       10.7        0.0        0.0        0.0       0.00       72.6       2.32       0.21       20.2
16:56              24        0.0         34       23.2      176.0       23.2       22.9        6.5     1018.4       23.9       10.7        0.0        0.0        0.0       0.00       72.8       2.32       0.21       20.2
16:58              36        0.0         34       23.1      176.0       23.1       22.8        6.4     1018.4       23.9       10.7        0.0        0.0        0.0       0.00       73.0       2.32       0.21       20.2
17:00              24        0.0         35       23.1      176.0       23.1       22.8        6.8     1018.4       23.9       10.7        0.0        0.0        0.0       0.00       73.2       2.32       0.21       20.2
17:02              24        0.0         35       23.0      176.0       23.0       22.7        6.7     1018.3       23.9       10.7        0.0        0.0        0.0       0.00       73.4       2.32       0.22       20.2
17:04              24        0.0         35       22.9      176.0       22.9       22.7        6.7     1018.3       23.9       10.7        0.0        0.0        0.0       0.00       73.5       2.32       0.22       20.2
17:06              23        0.0         36       22.9      176.0       22.9       22.7        7.1     1018.3       23.9       10.7        0.0        0.0        0.0       0.00       73.6       2.32       0.22       20.2
17:08              24        0.0         36       22.9      176.0       22.9       22.7        7.1     1018.3       23.9       10.7        0.0        0.0        0.0       0.00       73.7       2.32       0.22       20.2
17:10              35        0.0         36       22.9      176.0       22.9       22.7        7.1     1018.4       23.9       10.7        0.0        0.0        0.0       0.00       73.9       2.32       0.22       20.2
17:11              34        0.0         36       22.9      176.0       22.9       22.7        7.1     1018.3       23.9       10.7        0.0        0.0        0.0       0.00       74.0       2.32       0.22       20.2
17:14              34        0.0         36       22.9      176.0       22.9       22.7        7.1     1018.3       23.9       10.7        0.0        0.0        0.0       0.00       74.2       2.32       0.22       20.2
17:16              39        0.0         36       23.0      176.0       23.0       22.8        7.1     1018.3       23.9       10.7        0.0        0.0        0.0       0.00       74.3       2.32       0.23       20.2
17:18              37        0.0         35       23.0      176.0       23.0       22.7        6.7     1018.3       23.9       10.7        0.0        0.0        0.0       0.00       74.5       2.32       0.23       20.2
17:20              38        0.0         35       23.1      176.0       23.1       22.8        6.8     1018.3       23.9       10.7        0.0        0.0        0.0       0.00       74.7       2.32       0.23       20.2
17:22              33        0.0         35       23.1      176.0       23.1       22.8        6.8     1018.3       23.9       10.7        0.0        0.0        0.0       0.00       74.8       2.32       0.23       20.2
17:24              32        0.0         35       23.1      176.0       23.1       22.8        6.8     1018.2       23.9       10.7        0.0        0.0        0.0       0.00       75.0       2.32       0.23       20.2
17:26              32        0.0         36       23.0      176.0       23.0       22.8        7.1     1018.2       23.9       10.7        0.0        0.0        0.0       0.00       75.1       2.32       0.23       20.2
17:28              33        0.0         36       23.0      176.0       23.0       22.8        7.1     1018.3       23.9       10.7        0.0        0.0        0.0       0.00       75.2       2.32       0.23       20.2
17:30              44        0.0         35       23.1      176.0       23.1       22.8        6.8     1018.3       23.9       10.7        0.0        0.0        0.0       0.00       75.5       2.32       0.23       20.2
17:32              43        0.0         35       23.0      176.0       23.0       22.7        6.7     1018.3       23.9       10.7        0.0        0.0        0.0       0.00       75.7       2.32       0.24       20.2
17:33              43        0.0         35       23.0      176.0       23.0       22.7        6.7     1018.3       23.9       10.7        0.0        0.0        0.0       0.00       75.8       2.32       0.24       20.2
17:36              43        0.0         35       23.0      176.0       23.0       22.7        6.7     1018.4       23.9       10.7        0.0        0.0        0.0       0.00       75.9       2.32       0.24       20.2
17:38              43        0.0         35       22.9      176.0       22.9       22.7        6.7     1018.4       23.9       10.7        0.0        0.0        0.0       0.00       76.1       2.32       0.24       20.2
17:40              43        0.0         35       22.9      176.0       22.9       22.7        6.7     1018.3       23.9       10.7        0.0        0.0        0.0       0.00       76.2       2.32       0.24       20.2
17:42              43        0.0         35       22.9      176.0       22.9       22.7        6.7     1018.4       23.9       10.7        0.0        0.0        0.0       0.00       76.3       2.32       0.24       20.2
17:44              43        0.0         35       22.9      176.0       22.9       22.7        6.7     1018.4       23.9       10.7        0.0        0.0        0.0       0.00       76.4       2.32       0.24       20.2
17:46              44        0.0         35       23.0      176.0       23.0       22.7        6.7     1018.4       23.9       10.7        0.0        0.0        0.0       0.00       76.6       2.32       0.25       20.2
17:48              46        0.0         35       22.9      176.0       22.9       22.7        6.7     1018.4       23.9       10.7        0.0        0.0        0.0       0.00       76.7       2.32       0.25       20.2
17:50              46        0.0         35       22.9      176.0       22.9       22.7        6.7     1018.4       23.9       10.7        0.0        0.0        0.0       0.00       76.9       2.32       0.25       20.2
17:52              46        0.0         35       22.9      176.0       22.9       22.7        6.7     1018.3       23.9       10.7        0.0        0.0        0.0       0.00       77.0       2.32       0.25       20.2
17:54              46        0.0         35       22.9      176.0       22.9       22.6        6.6     1018.4       23.9       10.7        0.0        0.0        0.0       0.00       77.1       2.32       0.25       20.2
17:56              46        0.0         35       22.9      176.0       22.9       22.7        6.7     1018.4       23.9       10.7        0.0        0.0        0.0       0.00       77.2       2.32       0.25       20.2
17:58              48        0.0         35       22.9      176.0       22.9       22.6        6.6     1018.4       23.9       10.7        0.0        0.0        0.0       0.00       77.3       2.32       0.25       20.2
18:00              48        0.0         35       22.9      176.0       22.9       22.6        6.6     1018.3       23.9       10.7        0.0        0.0        0.0       0.00       77.4       2.32       0.25       20.2
18:02              48        0.0         35       22.9      176.0       22.9       22.6        6.6     1018.4       23.9       10.7        0.0        0.0        0.0       0.00       77.5       2.32       0.26       20.2
18:03              48        0.0         34       22.9      176.0       22.9       22.6        6.2     1018.5       23.9       10.7        0.0        0.0        0.0       0.00       77.6       2.32       0.26       20.2
18:06              48        0.0         34       22.8      176.0       22.8       22.5        6.2     1018.4       23.9       10.7        0.0        0.0        0.0       0.00       77.8       2.32       0.26       20.2
18:08              48        0.0         34       22.8      176.0       22.8       22.5        6.1     1018.5       23.9       10.7        0.0        0.0        0.0       0.00       77.9       2.32       0.26       20.2
18:10              48        0.0         34       22.8      176.0       22.8       22.5        6.1     1018.4       23.9       10.7        0.0        0.0        0.0       0.00       78.0       2.32       0.26       20.2
18:12              48        0.0         35       22.7      176.0       22.7       22.5        6.5     1018.5       23.9       10.7        0.0        0.0        0.0       0.00       78.2       2.32       0.26       20.2
18:14              48        0.0         35       22.7      176.0       22.7       22.4        6.4     1018.5       23.9       10.7        0.0        0.0        0.0       0.00       78.2       2.32       0.26       20.2
18:16              48        0.0         35       22.6      176.0       22.6       22.4        6.4     1018.6       23.9       10.7        0.0        0.0        0.0       0.00       78.3       2.32       0.27       20.2
18:18              48        0.0         35       22.6      176.0       22.6       22.3        6.3     1018.6       23.9       10.7        0.0        0.0        0.0       0.00       78.4       2.32       0.27       20.2
18:20              48        0.0         35       22.5      176.0       22.5       22.2        6.3     1018.6       23.9       10.7        0.0        0.0        0.0       0.00       78.5       2.32       0.27       20.2
18:22              48        0.0         35       22.4      176.0       22.4       22.1        6.2     1018.6       23.9       10.7        0.0        0.0        0.0       0.00       78.6       2.32       0.27       20.2
18:24              48        0.0         35       22.3      176.0       22.3       22.1        6.1     1018.7       23.9       10.7        0.0        0.0        0.0       0.00       78.7       2.32       0.27       20.2
18:26              48        0.0         35       22.3      176.0       22.3       22.0        6.1     1018.7       23.9       10.7        0.0        0.0        0.0       0.00       78.7       2.32       0.27       20.2
18:28              48        0.0         35       22.2      176.0       22.2       22.0        6.0     1018.7       23.9       10.7        0.0        0.0        0.0       0.00       78.8       2.32       0.27       20.2
18:30              48        0.0         36       22.2      176.0       22.2       22.0        6.4     1018.7       23.9       10.7        0.0        0.0        0.0       0.00       78.9       2.32       0.27       20.2
18:32              48        0.0         36       22.1      176.0       22.1       21.8        6.3     1018.7       23.9       10.7        0.0        0.0        0.0       0.00       79.0       2.32       0.27       20.2
18:34              48        0.0         35       22.0      176.0       22.0       21.7        5.8     1018.8       23.9       10.7        0.0        0.0        0.0       0.00       79.1       2.32       0.27       20.2
18:36              48        0.0         36       21.9      176.0       21.9       21.7        6.2     1018.8       23.9       10.7        0.0        0.0        0.0       0.00       79.2       2.32       0.27       20.2
18:38              48        0.0         35       21.8      176.0       21.8       21.6        5.7     1018.9       23.9       10.7        0.0        0.0        0.0       0.00       79.2       2.32       0.27       20.2
18:40              48        0.0         36       21.8      176.0       21.8       21.6        6.1     1018.8       23.9       10.7        0.0        0.0        0.0       0.00       79.3       2.32       0.27       20.2
18:42              48        0.0         36       21.7      176.0       21.7       21.5        6.0     1018.9       23.9       10.7        0.0        0.0        0.0       0.00       79.4       2.32       0.27       20.2
18:44              48        0.0         37       21.7      176.0       21.7       21.5        6.4     1018.9       23.9       10.7        0.0        0.0        0.0       0.00       79.4       2.32       0.27       20.2
18:46              48        0.0         37       21.6      176.0       21.6       21.4        6.3     1018.9       23.9       10.7        0.0        0.0        0.0       0.00       79.4       2.32       0.27       20.2
18:48              48        0.0         37       21.5      176.0       21.5       21.3        6.2     1019.0       23.9       10.7        0.0        0.0        0.0       0.00       79.4       2.32       0.27       20.2
18:50              48        0.0         37       21.4      176.0       21.4       21.3        6.2     1019.0       23.9       10.7        0.0        0.0        0.0       0.00       79.4       2.32       0.27       20.2
18:52              48        0.0         37       21.3      176.0       21.3       21.2        6.1     1019.0       23.9       10.7        0.0        0.0        0.0       0.00       79.4       2.32       0.27       20.2
18:54              48        0.0         37       21.3      176.0       21.3       21.1        6.0     1019.0       23.9       10.7        0.0        0.0        0.0       0.00       79.4       2.32       0.27       20.2
18:56              48        0.0         37       21.2      176.0       21.2       21.1        6.0     1019.1       23.9       10.7        0.0        0.0        0.0       0.00       79.4       2.32       0.27       20.2
18:58              48        0.0         37       21.1      176.0       21.1       20.9        5.9     1019.0       23.9       10.7        0.0        0.0        0.0       0.00       79.4       2.32       0.27       20.2
19:00              48        0.0         38       21.1      176.0       21.1       20.9        6.2     1019.0       23.9       10.7        0.0        0.0        0.0       0.00       79.4       2.32       0.27       20.2
19:02              48        0.0         38       21.0      176.0       21.0       20.9        6.2     1019.0       23.9       10.7        0.0        0.0        0.0       0.00       79.4       2.32       0.27       20.2
19:04              48        0.0         38       20.9      176.0       20.9       20.8        6.1     1019.1       23.9       10.7        0.0        0.0        0.0       0.00       79.4       2.32       0.27       20.2
19:06              48        0.0         38       20.8      176.0       20.8       20.7        6.0     1019.0       23.9       10.7        0.0        0.0        0.0       0.00       79.4       2.32       0.27       20.2
19:08              48        0.0         39       20.8      176.0       20.8       20.7        6.3     1019.0       23.9       10.7        0.0        0.0        0.0       0.00       79.4       2.32       0.27       20.2
19:10              48        0.0         39       20.7      176.0       20.7       20.6        6.3     1019.0       23.9       10.7        0.0        0.0        0.0       0.00       79.4       2.32       0.27       20.2
19:12              48        0.0         39       20.7      176.0       20.7       20.6        6.2     1019.1       23.9       10.7        0.0        0.0        0.0       0.00       79.4       2.32       0.27       20.2
19:14              48        0.0         40       20.6      176.0       20.6       20.6        6.5     1019.1       23.9       10.7        0.0        0.0        0.0       0.00       79.4       2.32       0.27       20.2
19:16              48        0.0         40       20.6      176.0       20.6       20.5        6.5     1019.1       23.9       10.7        0.0        0.0        0.0       0.00       79.4       2.32       0.27       20.2
19:18              48        0.0         40       20.4      176.0       20.4       20.4        6.4     1019.1       23.9       10.7        0.0        0.0        0.0       0.00       79.4       2.32       0.27       20.2
19:20              48        0.0         40       20.4      176.0       20.4       20.3        6.3     1019.1       23.9       10.7        0.0        0.0        0.0       0.00       79.4       2.32       0.27       20.2
19:22              48        0.0         41       20.3      176.0       20.3       20.3        6.7     1019.1       23.9       10.7        0.0        0.0        0.0       0.00       79.4       2.32       0.27       20.2
19:24              48        0.0         41       20.3      176.0       20.3       20.3        6.6     1019.1       23.9       10.7        0.0        0.0        0.0       0.00       79.4       2.32       0.27       20.2
19:26              48        0.0         41       20.2      176.0       20.2       20.2        6.6     1019.1       23.9       10.7        0.0        0.0        0.0       0.00       79.4       2.32       0.27       20.2
19:28              48        0.0         41       20.2      176.0       20.2       20.2        6.5     1019.1       23.9       10.7        0.0        0.0        0.0       0.00       79.4       2.32       0.27       20.2
19:30              48        0.0         41       20.1      176.0       20.1       20.1        6.5     1019.2       23.9       10.7        0.0        0.0        0.0       0.00       79.4       2.32       0.27       20.2
19:32              48        0.0         41       20.1      176.0       20.1       20.1        6.4     1019.2       23.9       10.7        0.0        0.0        0.0       0.00       79.4       2.32       0.27       20.2
19:34              48        0.0         42       20.0      176.0       20.0       20.1        6.7     1019.2       23.9       10.7        0.0        0.0        0.0       0.00       79.4       2.32       0.27       20.2
19:36              48        0.0         42       19.9      176.0       19.9       19.9        6.6     1019.1       23.9       10.7        0.0        0.0        0.0       0.00       79.4       2.32       0.27       20.2
19:38              48        0.0         42       19.9      176.0       19.9       19.9        6.6     1019.1       23.9       10.7        0.0        0.0        0.0       0.00       79.4       2.32       0.27       20.2
19:40              48        0.0         42       19.8      176.0       19.8       19.9        6.6     1019.1       23.9       10.7        0.0        0.0        0.0       0.00       79.4       2.32       0.27       20.2
19:42              48        0.0         42       19.8      176.0       19.8       19.8        6.5     1019.2       23.9       10.7        0.0        0.0        0.0       0.00       79.4       2.32       0.27       20.2
19:44              48        0.0         43       19.7      176.0       19.7       19.8        6.8     1019.2       23.9       10.7        0.0        0.0        0.0       0.00       79.4       2.32       0.27       20.2
19:46              48        0.0         43       19.7      176.0       19.7       19.8        6.8     1019.2       23.9       10.7        0.0        0.0        0.0       0.00       79.4       2.32       0.27       20.2
19:48              48        0.0         43       19.7      176.0       19.7       19.8        6.8     1019.2       23.9       10.7        0.0        0.0        0.0       0.00       79.4       2.32       0.27       20.2
19:50              48        0.0         43       19.6      176.0       19.6       19.7        6.7     1019.1       23.9       10.7        0.0        0.0        0.0       0.00       79.4       2.32       0.27       20.2
19:52              48        0.0         43       19.6      176.0       19.6       19.7        6.7     1019.2       23.9       10.7        0.0        0.0        0.0       0.00       79.4       2.32       0.27       20.2
19:54              48        0.0         44       19.6      176.0       19.6       19.7        7.0     1019.2       23.9       10.7        0.0        0.0        0.0       0.00       79.4       2.32       0.27       20.2
19:56              48        0.0         43       19.5      176.0       19.5       19.6        6.6     1019.2       23.9       10.7        0.0        0.0        0.0       0.00       79.4       2.32       0.27       20.2
19:58              48        0.0         43       19.5      176.0       19.5       19.6        6.6     1019.2       23.9       10.7        0.0        0.0        0.0       0.00       79.4       2.32       0.27       20.2
20:00              48        0.0         43       19.4      176.0       19.4       19.5        6.5     1019.1       23.9       10.7        0.0        0.0        0.0       0.00       79.4       2.32       0.27       20.2
20:02              48        0.0         43       19.4      176.0       19.4       19.5        6.5     1019.2       23.9       10.7        0.0        0.0        0.0       0.00       79.4       2.32       0.27       20.2
20:04              48        0.0         43       19.4      176.0       19.4       19.5        6.5     1019.2       23.9       10.7        0.0        0.0        0.0       0.00       79.4       2.32       0.27       20.2
20:06              48        0.0         43       19.4      176.0       19.4       19.5        6.5     1019.3       23.9       10.7        0.0        0.0        0.0       0.00       79.4       2.32       0.27       20.2
20:08              48        0.0         44       19.3      176.0       19.3       19.5        6.8     1019.3       23.9       10.7        0.0        0.0        0.0       0.00       79.4       2.32       0.27       20.2
20:10              48        0.0         45       19.3      176.0       19.3       19.5        7.1     1019.3       23.9       10.7        0.0        0.0        0.0       0.00       79.4       2.32       0.27       20.2
20:11              48        0.0         45       19.3      176.0       19.3       19.5        7.1     1019.3       23.9       10.7        0.0        0.0        0.0       0.00       79.4       2.32       0.27       20.2
20:14              48        0.0         45       19.2      176.0       19.2       19.4        7.0     1019.3       23.9       10.7        0.0        0.0        0.0       0.00       79.4       2.32       0.27       20.2
20:16              48        0.0         45       19.1      176.0       19.1       19.3        6.9     1019.3       23.9       10.7        0.0        0.0        0.0       0.00       79.4       2.32       0.27       20.2
20:18              48        0.0         45       19.1      176.0       19.1       19.2        6.9     1019.4       23.9       10.7        0.0        0.0        0.0       0.00       79.5       2.32       0.27       20.2
20:20              48        0.0         46       19.0      176.0       19.0       19.2        7.1     1019.4       23.9       10.7        0.0        0.0        0.0       0.00       79.5       2.32       0.27       20.2
20:22              48        0.0         45       19.0      176.0       19.0       19.2        6.8     1019.5       23.9       10.7        0.0        0.0        0.0       0.00       79.6       2.32       0.27       20.2
20:24              48        0.0         46       18.9      176.0       18.9       19.2        7.1     1019.5       23.9       10.7        0.0        0.0        0.0       0.00       79.7       2.32       0.27       20.2
20:26              48        0.0         45       18.9      176.0       18.9       19.1        6.8     1019.7       23.9       10.7        0.0        0.0        0.0       0.00       79.8       2.32       0.27       20.2
20:28              48        0.0         45       18.9      176.0       18.9       19.1        6.7     1019.6       23.9       10.7        0.0        0.0        0.0       0.00       79.9       2.32       0.27       20.2
20:30              48        0.0         45       18.9      176.0       18.9       19.1        6.7     1019.6       23.9       10.7        0.0        0.0        0.0       0.00       80.0       2.32       0.27       20.2
20:31              47        0.0         45       18.9      176.0       18.9       19.1        6.7     1019.5       23.9       10.7        0.0        0.0        0.0       0.00       80.1       2.32       0.27       20.2
20:34              48        0.0         45       18.8      176.0       18.8       19.0        6.7     1019.6       23.9       10.7        0.0        0.0        0.0       0.00       80.3       2.32       0.27       20.2
20:36              48        0.0         46       18.8      176.0       18.8       19.1        7.0     1019.6       23.9       10.7        0.0        0.0        0.0       0.00       80.4       2.32       0.27       20.2
20:38              48        0.0         46       18.8      176.0       18.8       19.0        6.9     1019.6       23.9       10.7        0.0        0.0        0.0       0.00       80.4       2.32       0.27       20.2
20:40              47        0.0         46       18.7      176.0       18.7       19.0        6.9     1019.7       23.9       10.7        0.0        0.0        0.0       0.00       80.5       2.32       0.27       20.2
20:42              47        0.0         46       18.7      176.0       18.7       18.9        6.8     1019.6       23.9       10.7        0.0        0.0        0.0       0.00       80.6       2.32       0.27       20.2
20:44              47        0.0         46       18.7      176.0       18.7       18.9        6.8     1019.6       23.9       10.7        0.0        0.0        0.0       0.00       80.7       2.32       0.27       20.2
20:46              47        0.0         46       18.6      176.0       18.6       18.9        6.8     1019.6       23.9       10.7        0.0        0.0        0.0       0.00       80.8       2.32       0.27       20.2
20:48              47        0.0         46       18.6      176.0       18.6       18.8        6.7     1019.6       23.9       10.7        0.0        0.0        0.0       0.00       80.9       2.32       0.27       20.2
20:50              47        0.0         46       18.6      176.0       18.6       18.8        6.7     1019.5       23.9       10.7        0.0        0.0        0.0       0.00       81.0       2.32       0.27       20.2
20:52              48        0.0         46       18.5      176.0       18.5       18.7        6.7     1019.5       23.9       10.7        0.0        0.0        0.0       0.00       81.1       2.32       0.27       20.2
20:54              47        0.0         47       18.5      176.0       18.5       18.8        7.0     1019.4       23.9       10.7        0.0        0.0        0.0       0.00       81.1       2.32       0.27       20.2
20:56              48        0.0         46       18.4      176.0       18.4       18.7        6.6     1019.5       23.9       10.7        0.0        0.0        0.0       0.00       81.2       2.32       0.27       20.2
20:58              48        0.0         46       18.4      176.0       18.4       18.6        6.6     1019.5       23.9       10.7        0.0        0.0        0.0       0.00       81.3       2.32       0.27       20.2
21:00              47        0.0         47       18.4      176.0       18.4       18.7        6.9     1019.5       23.9       10.7        0.0        0.0        0.0       0.00       81.4       2.32       0.27       20.2
21:02              47        0.0         47       18.3      176.0       18.3       18.6        6.8     1019.5       23.9       10.7        0.0        0.0        0.0       0.00       81.5       2.32       0.27       20.2
21:04              47        0.0         47       18.3      176.0       18.3       18.6        6.8     1019.5       23.9       10.7        0.0        0.0        0.0       0.00       81.5       2.32       0.27       20.2
21:06              48        0.0         47       18.3      176.0       18.3       18.6        6.8     1019.6       23.9       10.7        0.0        0.0        0.0       0.00       81.6       2.32       0.27       20.2
21:08              48        0.0         46       18.2      176.0       18.2       18.5        6.4     1019.6       23.9       10.7        0.0        0.0        0.0       0.00       81.7       2.32       0.27       20.2
21:10              47        0.0         46       18.2      176.0       18.2       18.5        6.4     1019.5       23.9       10.7        0.0        0.0        0.0       0.00       81.8       2.32       0.27       20.2
21:12              47        0.0         46       18.2      176.0       18.2       18.5        6.4     1019.6       23.9       10.7        0.0        0.0        0.0       0.00       81.9       2.32       0.27       20.2
21:14              47        0.0         46       18.2      176.0       18.2       18.4        6.4     1019.6       23.9       10.7        0.0        0.0        0.0       0.00       82.0       2.32       0.27       20.2
21:16              48        0.0         46       18.1      176.0       18.1       18.4        6.3     1019.5       23.9       10.7        0.0        0.0        0.0       0.00       82.2       2.32       0.27       20.2
21:18              48        0.0         47       18.1      176.0       18.1       18.4        6.6     1019.6       23.9       10.7        0.0        0.0        0.0       0.00       82.2       2.32       0.27       20.2
21:20              48        0.0         47       18.1      176.0       18.1       18.3        6.6     1019.6       23.9       10.7        0.0        0.0        0.0       0.00       82.3       2.32       0.27       20.2
21:22              48        0.0         46       18.0      176.0       18.0       18.2        6.2     1019.5       23.9       10.7        0.0        0.0        0.0       0.00       82.4       2.32       0.27       20.2
21:24              47        0.0         47       18.0      176.0       18.0       18.3        6.5     1019.6       23.9       10.7        0.0        0.0        0.0       0.00       82.5       2.32       0.27       20.2
21:26              47        0.0         47       17.9      176.0       17.9       18.2        6.5     1019.6       23.9       10.7        0.0        0.0        0.0       0.00       82.6       2.32       0.27       20.2
21:28              47        0.0         47       17.9      176.0       17.9       18.2        6.5     1019.6       23.9       10.7        0.0        0.0        0.0       0.00       82.7       2.32       0.27       20.2
21:30              47        0.0         47       17.9      176.0       17.9       18.2        6.4     1019.7       23.9       10.7        0.0        0.0        0.0       0.00       82.8       2.32       0.27       20.2
21:32              47        0.0         47       17.8      176.0       17.8       18.1        6.4     1019.6       23.9       10.7        0.0        0.0        0.0       0.00       82.9       2.32       0.27       20.2
21:34              47        0.0         47       17.8      176.0       17.8       18.1        6.4     1019.6       23.9       10.7        0.0        0.0        0.0       0.00       83.0       2.32       0.27       20.2
21:36              47        0.0         47       17.8      176.0       17.8       18.1        6.3     1019.6       23.9       10.7        0.0        0.0        0.0       0.00       83.1       2.32       0.27       20.2
21:38              47        0.0         47       17.8      176.0       17.8       18.1        6.3     1019.7       23.9       10.7        0.0        0.0        0.0       0.00       83.2       2.32       0.27       20.2
21:40              47        0.0         47       17.7      176.0       17.7       18.0        6.3     1019.8       23.9       10.7        0.0        0.0        0.0       0.00       83.3       2.32       0.27       20.2
21:42              47        0.0         46       17.7      176.0       17.7       18.0        6.0     1019.7       23.9       10.7        0.0        0.0        0.0       0.00       83.4       2.32       0.27       20.2
21:44              47        0.0         46       17.7      176.0       17.7       18.0        6.0     1019.7       23.9       10.7        0.0        0.0        0.0       0.00       83.5       2.32       0.27       20.2
21:46              47        0.0         46       17.7      176.0       17.7       18.0        6.0     1019.7       23.9       10.7        0.0        0.0        0.0       0.00       83.6       2.33       0.27       20.2
21:48              47        0.0         46       17.7      176.0       17.7       18.0        6.0     1019.7       23.9       10.7        0.0        0.0        0.0       0.00       83.7       2.33       0.27       20.2
21:50              47        0.0         46       17.7      176.0       17.7       17.9        5.9     1019.7       23.9       10.7        0.0        0.0        0.0       0.00       83.8       2.33       0.27       20.2
21:52              47        0.0         46       17.7      176.0       17.7       17.9        5.9     1019.8       23.9       10.7        0.0        0.0        0.0       0.00       83.9       2.33       0.27       20.2
21:54              47        0.0         46       17.6      176.0       17.6       17.9        5.9     1019.7       23.9       10.7        0.0        0.0        0.0       0.00       84.0       2.33       0.27       20.2
21:56              46        0.0         46       17.6      176.0       17.6       17.8        5.8     1019.7       23.9       10.7        0.0        0.0        0.0       0.00       84.1       2.33       0.27       20.2
21:58              46        0.0         46       17.6      176.0       17.6       17.8        5.8     1019.7       23.9       10.7        0.0        0.0        0.0       0.00       84.2       2.33       0.27       20.2
22:00              46        0.0         46       17.6      176.0       17.6       17.8        5.8     1019.7       23.9       10.7        0.0        0.0        0.0       0.00       84.3       2.33       0.27       20.2
22:02              46        0.0         46       17.5      176.0       17.5       17.7        5.8     1019.7       23.9       10.7        0.0        0.0        0.0       0.00       84.4       2.33       0.27       20.2
22:04              46        0.0         46       17.4      176.0       17.4       17.7        5.7     1019.7       23.9       10.7        0.0        0.0        0.0       0.00       84.5       2.33       0.27       20.2
22:06              46        0.0         46       17.4      176.0       17.4       17.7        5.7     1019.8       23.9       10.7        0.0        0.0        0.0       0.00       84.5       2.33       0.27       20.2
22:08              46        0.0         46       17.4      176.0       17.4       17.6        5.7     1019.7       23.9       10.7        0.0        0.0        0.0       0.00       84.6       2.33       0.27       20.2
22:10              46        0.0         46       17.4      176.0       17.4       17.6        5.7     1019.8       23.9       10.7        0.0        0.0        0.0       0.00       84.7       2.33       0.27       20.2
22:12              46        0.0         47       17.3      176.0       17.3       17.6        5.9     1019.8       23.9       10.7        0.0        0.0        0.0       0.00       84.8       2.33       0.27       20.2
22:14              45        0.0         46       17.3      176.0       17.3       17.5        5.6     1019.8       23.9       10.7        0.0        0.0        0.0       0.00       84.9       2.33       0.27       20.2
22:16              45        0.0         46       17.3      176.0       17.3       17.5        5.6     1019.8       23.9       10.7        0.0        0.0        0.0       0.00       85.0       2.34       0.27       20.2
22:18              44        0.0         46       17.2      176.0       17.2       17.5        5.5     1019.9       23.9       10.7        0.0        0.0        0.0       0.00       85.1       2.34       0.27       20.2
22:20              43        0.0         47       17.2      176.0       17.2       17.5        5.8     1019.9       23.9       10.7        0.0        0.0        0.0       0.00       85.2       2.34       0.27       20.2
22:22              43        0.0         46       17.2      176.0       17.2       17.4        5.5     1019.9       23.9       10.7        0.0        0.0        0.0       0.00       85.3       2.34       0.27       20.2
22:24              43        0.0         46       17.2      176.0       17.2       17.4        5.5     1019.9       23.9       10.7        0.0        0.0        0.0       0.00       85.4       2.34       0.27       20.2
22:26              28        0.0         46       17.2      176.0       17.2       17.4        5.5     1019.9       23.9       10.7        0.0        0.0        0.0       0.00       85.5       2.34       0.27       20.2
22:28              28        0.0         46       17.2      176.0       17.2       17.4        5.5     1020.0       23.9       10.7        0.0        0.0        0.0       0.00       85.6       2.34       0.27       20.2
22:30              28        0.0         46       17.2      176.0       17.2       17.4        5.5     1020.0       23.9       10.7        0.0        0.0        0.0       0.00       85.7       2.34       0.27       20.2
22:32              28        0.0         47       17.2      176.0       17.2       17.5        5.8     1020.0       23.9       10.7        0.0        0.0        0.0       0.00       85.8       2.35       0.27       20.2
22:34              28        0.0         47       17.2      176.0       17.2       17.5        5.8     1020.0       23.9       10.7        0.0        0.0        0.0       0.00       85.9       2.35       0.27       20.2
22:36              28        0.0         47       17.1      176.0       17.1       17.4        5.7     1019.9       23.9       10.7        0.0        0.0        0.0       0.00       85.9       2.35       0.27       20.2
22:38              28        0.0         47       17.1      176.0       17.1       17.3        5.7     1019.9       23.9       10.7        0.0        0.0        0.0       0.00       86.0       2.35       0.27       20.2
22:40              28        0.0         47       17.0      176.0       17.0       17.3        5.6     1019.9       23.9       10.7        0.0        0.0        0.0       0.00       86.1       2.35       0.27       20.2
22:42              28        0.0         47       16.9      176.0       16.9       17.2        5.6     1019.9       23.9       10.7        0.0        0.0        0.0       0.00       86.2       2.35       0.27       20.2
22:44              28        0.0         47       16.9      176.0       16.9       17.2        5.5     1020.0       23.9       10.7        0.0        0.0        0.0       0.00       86.2       2.35       0.27       20.2
22:46              28        0.0         47       16.9      176.0       16.9       17.2        5.5     1020.0       23.9       10.7        0.0        0.0        0.0       0.00       86.3       2.36       0.27       20.2
22:48              28        0.0         47       16.8      176.0       16.8       17.1        5.5     1020.0       23.9       10.7        0.0        0.0        0.0       0.00       86.4       2.36       0.27       20.2
22:50              28        0.0         47       16.8      176.0       16.8       17.1        5.4     1020.0       23.9       10.7        0.0        0.0        0.0       0.00       86.5       2.36       0.27       20.2
22:52              28        0.0         47       16.7      176.0       16.7       17.0        5.4     1020.0       23.9       10.7        0.0        0.0        0.0       0.00       86.6       2.36       0.27       20.2
22:54              28        0.0         47       16.7      176.0       16.7       17.0        5.3     1020.0       23.9       10.7        0.0        0.0        0.0       0.00       86.7       2.36       0.27       20.2
22:56              28        0.0         47       16.6      176.0       16.6       16.9        5.3     1020.0       23.9       10.7        0.0        0.0        0.0       0.00       86.7       2.36       0.27       20.2
22:58              28        0.0         47       16.6      176.0       16.6       16.9        5.3     1020.0       23.9       10.7        0.0        0.0        0.0       0.00       86.8       2.36       0.27       20.2
23:00              28        0.0         47       16.6      176.0       16.6       16.8        5.2     1020.1       23.9       10.7        0.0        0.0        0.0       0.00       86.9       2.36       0.27       20.2
23:02              28        0.0         47       16.6      176.0       16.6       16.8        5.2     1020.1       23.9       10.7        0.0        0.0        0.0       0.00       87.0       2.37       0.27       20.2
23:04              28        0.0         48       16.6      176.0       16.6       16.9        5.5     1020.1       23.9       10.7        0.0        0.0        0.0       0.00       87.1       2.37       0.27       20.2
23:06              28        0.0         48       16.5      176.0       16.5       16.8        5.5     1020.1       23.9       10.7        0.0        0.0        0.0       0.00       87.2       2.37       0.27       20.2
23:08              28        0.0         48       16.5      176.0       16.5       16.8        5.5     1020.1       23.9       10.7        0.0        0.0        0.0       0.00       87.3       2.37       0.27       20.2
23:10              28        0.0         48       16.4      176.0       16.4       16.8        5.4     1020.1       23.9       10.7        0.0        0.0        0.0       0.00       87.4       2.37       0.27       20.2
23:12              28        0.0         48       16.4      176.0       16.4       16.7        5.4     1020.1       23.9       10.7        0.0        0.0        0.0       0.00       87.4       2.37       0.27       20.2
23:14              28        0.0         48       16.3      176.0       16.3       16.7        5.3     1020.2       23.9       10.7        0.0        0.0        0.0       0.00       87.5       2.37       0.27       20.2
23:16              28        0.0         49       16.3      176.0       16.3       16.7        5.6     1020.1       23.9       10.7        0.0        0.0        0.0       0.00       87.6       2.39       0.27       20.2
23:18              28        0.0         49       16.2      176.0       16.2       16.6        5.5     1020.1       23.9       10.7        0.0        0.0        0.0       0.00       87.7       2.39       0.27       20.2
23:20              28        0.0         49       16.2      176.0       16.2       16.6        5.5     1020.2       23.9       10.7        0.0        0.0        0.0       0.00       87.8       2.39       0.27       20.2
23:22              28        0.0         50       16.1      176.0       16.1       16.6        5.7     1020.2       23.9       10.7        0.0        0.0        0.0       0.00       87.8       2.39       0.27       20.2
23:24              28        0.0         50       16.1      176.0       16.1       16.5        5.6     1020.2       23.9       10.7        0.0        0.0        0.0       0.00       87.9       2.39       0.27       20.2
23:26              28        0.0         51       16.0      176.0       16.0       16.5        5.9     1020.1       23.9       10.7        0.0        0.0        0.0       0.00       87.9       2.39       0.27       20.2
23:28              28        0.0         51       15.9      176.0       15.9       16.4        5.8     1020.1       23.9       10.7        0.0        0.0        0.0       0.00       87.9       2.39       0.27       20.2
23:30              28        0.0         51       15.9      176.0       15.9       16.4        5.8     1020.1       23.9       10.7        0.0        0.0        0.0       0.00       87.9       2.39       0.27       20.2
23:32              28        0.0         52       15.8      176.0       15.8       16.4        6.0     1020.1       23.9       10.7        0.0        0.0        0.0       0.00       87.9       2.41       0.27       20.2
23:34              28        0.0         52       15.8      176.0       15.8       16.3        6.0     1020.2       23.9       10.7        0.0        0.0        0.0       0.00       88.0       2.41       0.27       20.2
23:36              28        0.0         52       15.7      176.0       15.7       16.3        5.9     1020.1       23.9       10.7        0.0        0.0        0.0       0.00       88.0       2.41       0.27       20.2
23:38              28        0.0         52       15.6      176.0       15.6       16.2        5.8     1020.1       23.9       10.7        0.0        0.0        0.0       0.00       88.0       2.41       0.27       20.2
23:40              28        0.0         52       15.6      176.0       15.6       16.1        5.7     1020.1       23.9       10.7        0.0        0.0        0.0       0.00       88.1       2.41       0.27       20.2
23:42              28        0.0         52       15.5      176.0       15.5       16.1        5.7     1020.2       23.9       10.7        0.0        0.0        0.0       0.00       88.2       2.41       0.27       20.2
23:44              28        0.0         52       15.4      176.0       15.4       16.0        5.6     1020.2       23.9       10.7        0.0        0.0        0.0       0.00       88.3       2.41       0.27       20.2
23:46              28        0.0         52       15.4      176.0       15.4       16.0        5.6     1020.2       23.9       10.7        0.0        0.0        0.0       0.00       88.3       2.44       0.27       20.2
23:48              28        0.0         52       15.4      176.0       15.4       15.9        5.6     1020.2       23.9       10.7        0.0        0.0        0.0       0.00       88.4       2.44       0.27       20.2
23:50              28        0.0         52       15.4      176.0       15.4       15.9        5.6     1020.2       23.9       10.7        0.0        0.0        0.0       0.00       88.5       2.44       0.27       20.2
23:52              28        0.0         52       15.4      176.0       15.4       15.9        5.6     1020.2       23.9       10.7        0.0        0.0        0.0       0.00       88.5       2.44       0.27       20.2
23:53              28        0.0         52       15.4      176.0       15.4       15.9        5.6     1020.2       23.9       10.7        0.0        0.0        0.0       0.00       88.6       2.44       0.27       20.2
23:56              28        0.0         52       15.4      176.0       15.4       15.9        5.6     1020.2       23.9       10.7        0.0        0.0        0.0       0.00       88.7       2.44       0.27       20.2
23:58              28        0.0         52       15.4      176.0       15.4       15.9        5.6     1020.2       23.9       10.7        0.0        0.0        0.0       0.00       88.8       2.44       0.27       20.2